<?xml version="1.0" encoding="UTF-8" standalone="no" ?>
<gpx xmlns="http://www.topografix.com/GPX/1/1" xmlns:xsi="http://www.w3.org/2001/XMLSchema-instance" xsi:schemaLocation="http://www.topografix.com/GPX/1/1 http://www.topografix.com/GPX/1/1/gpx.xsd" version="1.1" creator="VisuGPX - https://www.visugpx.com">
  <metadata>
    <name>Grand Caunet - Roquefort</name>
    <desc><![CDATA[Boucle au départ du Grand Caunet via Roquefort et la chapelle Saint André]]></desc>
  </metadata>
  <trk>
    <name><![CDATA[2020-06-14 Grand Caunet]]></name>
    <trkseg>
      <trkpt lat="43.23504" lon="5.67005">
        <ele>396.3515625</ele>
        <time>2020-06-14T06:57:07Z</time>
      </trkpt>
      <trkpt lat="43.23503" lon="5.67007">
        <ele>396.25</ele>
        <time>2020-06-14T06:57:18Z</time>
      </trkpt>
      <trkpt lat="43.23503" lon="5.67008">
        <ele>396.24609375</ele>
        <time>2020-06-14T06:57:19Z</time>
      </trkpt>
      <trkpt lat="43.23503" lon="5.67008">
        <ele>396.23046875</ele>
        <time>2020-06-14T06:57:23Z</time>
      </trkpt>
      <trkpt lat="43.23506" lon="5.67007">
        <ele>396.30859375</ele>
        <time>2020-06-14T06:57:38Z</time>
      </trkpt>
      <trkpt lat="43.23507" lon="5.67004">
        <ele>396.43359375</ele>
        <time>2020-06-14T06:58:09Z</time>
      </trkpt>
      <trkpt lat="43.23502" lon="5.67002">
        <ele>396.421875</ele>
        <time>2020-06-14T06:58:46Z</time>
      </trkpt>
      <trkpt lat="43.23506" lon="5.67005">
        <ele>396.3671875</ele>
        <time>2020-06-14T06:59:22Z</time>
      </trkpt>
      <trkpt lat="43.23501" lon="5.67009">
        <ele>396.140625</ele>
        <time>2020-06-14T06:59:51Z</time>
      </trkpt>
      <trkpt lat="43.23492" lon="5.66985">
        <ele>397.1328125</ele>
        <time>2020-06-14T07:00:03Z</time>
      </trkpt>
      <trkpt lat="43.23492" lon="5.66956">
        <ele>398.54296875</ele>
        <time>2020-06-14T07:00:15Z</time>
      </trkpt>
      <trkpt lat="43.23493" lon="5.66925">
        <ele>398.83984375</ele>
        <time>2020-06-14T07:00:28Z</time>
      </trkpt>
      <trkpt lat="43.23496" lon="5.66891">
        <ele>399.69140625</ele>
        <time>2020-06-14T07:00:40Z</time>
      </trkpt>
      <trkpt lat="43.23499" lon="5.66859">
        <ele>399.80078125</ele>
        <time>2020-06-14T07:00:49Z</time>
      </trkpt>
      <trkpt lat="43.23499" lon="5.66852">
        <ele>399.78125</ele>
        <time>2020-06-14T07:01:00Z</time>
      </trkpt>
      <trkpt lat="43.23498" lon="5.66851">
        <ele>399.77734375</ele>
        <time>2020-06-14T07:01:29Z</time>
      </trkpt>
      <trkpt lat="43.23504" lon="5.66833">
        <ele>399.953125</ele>
        <time>2020-06-14T07:01:51Z</time>
      </trkpt>
      <trkpt lat="43.23513" lon="5.66803">
        <ele>400</ele>
        <time>2020-06-14T07:02:01Z</time>
      </trkpt>
      <trkpt lat="43.23528" lon="5.66748">
        <ele>398.3671875</ele>
        <time>2020-06-14T07:02:15Z</time>
      </trkpt>
      <trkpt lat="43.23537" lon="5.66692">
        <ele>397.125</ele>
        <time>2020-06-14T07:02:27Z</time>
      </trkpt>
      <trkpt lat="43.23538" lon="5.66627">
        <ele>395.78515625</ele>
        <time>2020-06-14T07:02:39Z</time>
      </trkpt>
      <trkpt lat="43.23546" lon="5.66583">
        <ele>395.203125</ele>
        <time>2020-06-14T07:02:48Z</time>
      </trkpt>
      <trkpt lat="43.23554" lon="5.66533">
        <ele>394.76171875</ele>
        <time>2020-06-14T07:02:59Z</time>
      </trkpt>
      <trkpt lat="43.23553" lon="5.66475">
        <ele>394.74609375</ele>
        <time>2020-06-14T07:03:11Z</time>
      </trkpt>
      <trkpt lat="43.23551" lon="5.66427">
        <ele>394.8828125</ele>
        <time>2020-06-14T07:03:23Z</time>
      </trkpt>
      <trkpt lat="43.2356" lon="5.66383">
        <ele>396.01171875</ele>
        <time>2020-06-14T07:03:36Z</time>
      </trkpt>
      <trkpt lat="43.23559" lon="5.66371">
        <ele>396.1796875</ele>
        <time>2020-06-14T07:03:48Z</time>
      </trkpt>
      <trkpt lat="43.23562" lon="5.66363">
        <ele>396.55859375</ele>
        <time>2020-06-14T07:03:58Z</time>
      </trkpt>
      <trkpt lat="43.23563" lon="5.66362">
        <ele>396.65234375</ele>
        <time>2020-06-14T07:03:59Z</time>
      </trkpt>
      <trkpt lat="43.23564" lon="5.6636">
        <ele>396.74609375</ele>
        <time>2020-06-14T07:04:00Z</time>
      </trkpt>
      <trkpt lat="43.23564" lon="5.66358">
        <ele>396.84765625</ele>
        <time>2020-06-14T07:04:01Z</time>
      </trkpt>
      <trkpt lat="43.23564" lon="5.66355">
        <ele>396.94140625</ele>
        <time>2020-06-14T07:04:02Z</time>
      </trkpt>
      <trkpt lat="43.23563" lon="5.66351">
        <ele>397.04296875</ele>
        <time>2020-06-14T07:04:03Z</time>
      </trkpt>
      <trkpt lat="43.23563" lon="5.66348">
        <ele>397.16015625</ele>
        <time>2020-06-14T07:04:04Z</time>
      </trkpt>
      <trkpt lat="43.23563" lon="5.66345">
        <ele>397.27734375</ele>
        <time>2020-06-14T07:04:05Z</time>
      </trkpt>
      <trkpt lat="43.23563" lon="5.66342">
        <ele>397.39453125</ele>
        <time>2020-06-14T07:04:06Z</time>
      </trkpt>
      <trkpt lat="43.23569" lon="5.66296">
        <ele>399.84375</ele>
        <time>2020-06-14T07:04:21Z</time>
      </trkpt>
      <trkpt lat="43.23577" lon="5.66253">
        <ele>400</ele>
        <time>2020-06-14T07:04:35Z</time>
      </trkpt>
      <trkpt lat="43.23582" lon="5.66196">
        <ele>398.6796875</ele>
        <time>2020-06-14T07:04:49Z</time>
      </trkpt>
      <trkpt lat="43.23582" lon="5.66191">
        <ele>398.48046875</ele>
        <time>2020-06-14T07:04:50Z</time>
      </trkpt>
      <trkpt lat="43.23583" lon="5.66186">
        <ele>398.28515625</ele>
        <time>2020-06-14T07:04:51Z</time>
      </trkpt>
      <trkpt lat="43.23583" lon="5.66135">
        <ele>398.08203125</ele>
        <time>2020-06-14T07:05:03Z</time>
      </trkpt>
      <trkpt lat="43.2359" lon="5.66074">
        <ele>399.51953125</ele>
        <time>2020-06-14T07:05:17Z</time>
      </trkpt>
      <trkpt lat="43.23593" lon="5.65997">
        <ele>400.82421875</ele>
        <time>2020-06-14T07:05:35Z</time>
      </trkpt>
      <trkpt lat="43.236" lon="5.65944">
        <ele>400.9921875</ele>
        <time>2020-06-14T07:05:48Z</time>
      </trkpt>
      <trkpt lat="43.23605" lon="5.65888">
        <ele>403.78515625</ele>
        <time>2020-06-14T07:06:02Z</time>
      </trkpt>
      <trkpt lat="43.23608" lon="5.65834">
        <ele>405.265625</ele>
        <time>2020-06-14T07:06:16Z</time>
      </trkpt>
      <trkpt lat="43.23615" lon="5.65776">
        <ele>407.3671875</ele>
        <time>2020-06-14T07:06:32Z</time>
      </trkpt>
      <trkpt lat="43.23626" lon="5.65734">
        <ele>410.34375</ele>
        <time>2020-06-14T07:06:46Z</time>
      </trkpt>
      <trkpt lat="43.23635" lon="5.65706">
        <ele>411.91015625</ele>
        <time>2020-06-14T07:06:56Z</time>
      </trkpt>
      <trkpt lat="43.23636" lon="5.65704">
        <ele>411.97265625</ele>
        <time>2020-06-14T07:06:57Z</time>
      </trkpt>
      <trkpt lat="43.23637" lon="5.65702">
        <ele>412.04296875</ele>
        <time>2020-06-14T07:06:58Z</time>
      </trkpt>
      <trkpt lat="43.23637" lon="5.657">
        <ele>412.15234375</ele>
        <time>2020-06-14T07:06:59Z</time>
      </trkpt>
      <trkpt lat="43.23638" lon="5.65698">
        <ele>412.23828125</ele>
        <time>2020-06-14T07:07:00Z</time>
      </trkpt>
      <trkpt lat="43.23639" lon="5.65695">
        <ele>412.34765625</ele>
        <time>2020-06-14T07:07:01Z</time>
      </trkpt>
      <trkpt lat="43.2364" lon="5.65693">
        <ele>412.4609375</ele>
        <time>2020-06-14T07:07:02Z</time>
      </trkpt>
      <trkpt lat="43.2364" lon="5.65691">
        <ele>412.6015625</ele>
        <time>2020-06-14T07:07:03Z</time>
      </trkpt>
      <trkpt lat="43.23641" lon="5.65688">
        <ele>412.734375</ele>
        <time>2020-06-14T07:07:04Z</time>
      </trkpt>
      <trkpt lat="43.23642" lon="5.65686">
        <ele>412.8671875</ele>
        <time>2020-06-14T07:07:05Z</time>
      </trkpt>
      <trkpt lat="43.23643" lon="5.65683">
        <ele>413.0078125</ele>
        <time>2020-06-14T07:07:06Z</time>
      </trkpt>
      <trkpt lat="43.23644" lon="5.65681">
        <ele>413.13671875</ele>
        <time>2020-06-14T07:07:07Z</time>
      </trkpt>
      <trkpt lat="43.23645" lon="5.65678">
        <ele>413.265625</ele>
        <time>2020-06-14T07:07:08Z</time>
      </trkpt>
      <trkpt lat="43.23663" lon="5.6563">
        <ele>415.140625</ele>
        <time>2020-06-14T07:07:25Z</time>
      </trkpt>
      <trkpt lat="43.23674" lon="5.65592">
        <ele>417.578125</ele>
        <time>2020-06-14T07:07:40Z</time>
      </trkpt>
      <trkpt lat="43.23687" lon="5.65554">
        <ele>419.28125</ele>
        <time>2020-06-14T07:07:56Z</time>
      </trkpt>
      <trkpt lat="43.23688" lon="5.65552">
        <ele>419.38671875</ele>
        <time>2020-06-14T07:07:57Z</time>
      </trkpt>
      <trkpt lat="43.23688" lon="5.65549">
        <ele>419.48828125</ele>
        <time>2020-06-14T07:07:58Z</time>
      </trkpt>
      <trkpt lat="43.23689" lon="5.65546">
        <ele>419.60546875</ele>
        <time>2020-06-14T07:07:59Z</time>
      </trkpt>
      <trkpt lat="43.23689" lon="5.65544">
        <ele>419.72265625</ele>
        <time>2020-06-14T07:08:00Z</time>
      </trkpt>
      <trkpt lat="43.2369" lon="5.65541">
        <ele>419.8671875</ele>
        <time>2020-06-14T07:08:01Z</time>
      </trkpt>
      <trkpt lat="43.2369" lon="5.65539">
        <ele>420.03515625</ele>
        <time>2020-06-14T07:08:02Z</time>
      </trkpt>
      <trkpt lat="43.2369" lon="5.65536">
        <ele>420.2265625</ele>
        <time>2020-06-14T07:08:03Z</time>
      </trkpt>
      <trkpt lat="43.2369" lon="5.65505">
        <ele>422.453125</ele>
        <time>2020-06-14T07:08:15Z</time>
      </trkpt>
      <trkpt lat="43.2369" lon="5.65502">
        <ele>422.6484375</ele>
        <time>2020-06-14T07:08:16Z</time>
      </trkpt>
      <trkpt lat="43.2369" lon="5.655">
        <ele>422.83984375</ele>
        <time>2020-06-14T07:08:17Z</time>
      </trkpt>
      <trkpt lat="43.2369" lon="5.65497">
        <ele>423.03125</ele>
        <time>2020-06-14T07:08:18Z</time>
      </trkpt>
      <trkpt lat="43.2369" lon="5.65495">
        <ele>423.20703125</ele>
        <time>2020-06-14T07:08:19Z</time>
      </trkpt>
      <trkpt lat="43.2369" lon="5.65492">
        <ele>423.390625</ele>
        <time>2020-06-14T07:08:20Z</time>
      </trkpt>
      <trkpt lat="43.2369" lon="5.6549">
        <ele>423.58203125</ele>
        <time>2020-06-14T07:08:21Z</time>
      </trkpt>
      <trkpt lat="43.23691" lon="5.65454">
        <ele>425.734375</ele>
        <time>2020-06-14T07:08:36Z</time>
      </trkpt>
      <trkpt lat="43.23696" lon="5.65419">
        <ele>428.03515625</ele>
        <time>2020-06-14T07:08:53Z</time>
      </trkpt>
      <trkpt lat="43.23697" lon="5.65398">
        <ele>429.2578125</ele>
        <time>2020-06-14T07:09:02Z</time>
      </trkpt>
      <trkpt lat="43.23702" lon="5.65357">
        <ele>431.34765625</ele>
        <time>2020-06-14T07:09:19Z</time>
      </trkpt>
      <trkpt lat="43.23708" lon="5.65322">
        <ele>433.0078125</ele>
        <time>2020-06-14T07:09:34Z</time>
      </trkpt>
      <trkpt lat="43.23717" lon="5.65296">
        <ele>433.9609375</ele>
        <time>2020-06-14T07:09:46Z</time>
      </trkpt>
      <trkpt lat="43.23726" lon="5.65261">
        <ele>435.18359375</ele>
        <time>2020-06-14T07:10:00Z</time>
      </trkpt>
      <trkpt lat="43.23736" lon="5.65221">
        <ele>435.953125</ele>
        <time>2020-06-14T07:10:17Z</time>
      </trkpt>
      <trkpt lat="43.23749" lon="5.6519">
        <ele>436.76171875</ele>
        <time>2020-06-14T07:10:30Z</time>
      </trkpt>
      <trkpt lat="43.23758" lon="5.65164">
        <ele>438.37109375</ele>
        <time>2020-06-14T07:10:41Z</time>
      </trkpt>
      <trkpt lat="43.23759" lon="5.65162">
        <ele>438.546875</ele>
        <time>2020-06-14T07:10:42Z</time>
      </trkpt>
      <trkpt lat="43.23759" lon="5.65159">
        <ele>438.7265625</ele>
        <time>2020-06-14T07:10:43Z</time>
      </trkpt>
      <trkpt lat="43.2376" lon="5.65157">
        <ele>438.91015625</ele>
        <time>2020-06-14T07:10:44Z</time>
      </trkpt>
      <trkpt lat="43.23761" lon="5.65154">
        <ele>439.0546875</ele>
        <time>2020-06-14T07:10:45Z</time>
      </trkpt>
      <trkpt lat="43.23762" lon="5.65152">
        <ele>439.14453125</ele>
        <time>2020-06-14T07:10:46Z</time>
      </trkpt>
      <trkpt lat="43.23763" lon="5.65149">
        <ele>439.234375</ele>
        <time>2020-06-14T07:10:47Z</time>
      </trkpt>
      <trkpt lat="43.23763" lon="5.65147">
        <ele>439.328125</ele>
        <time>2020-06-14T07:10:48Z</time>
      </trkpt>
      <trkpt lat="43.23763" lon="5.65144">
        <ele>439.42578125</ele>
        <time>2020-06-14T07:10:49Z</time>
      </trkpt>
      <trkpt lat="43.23764" lon="5.65141">
        <ele>439.515625</ele>
        <time>2020-06-14T07:10:50Z</time>
      </trkpt>
      <trkpt lat="43.23765" lon="5.65139">
        <ele>439.59375</ele>
        <time>2020-06-14T07:10:51Z</time>
      </trkpt>
      <trkpt lat="43.23765" lon="5.65137">
        <ele>439.6796875</ele>
        <time>2020-06-14T07:10:52Z</time>
      </trkpt>
      <trkpt lat="43.23778" lon="5.65096">
        <ele>441.11328125</ele>
        <time>2020-06-14T07:11:08Z</time>
      </trkpt>
      <trkpt lat="43.23785" lon="5.65068">
        <ele>442.28515625</ele>
        <time>2020-06-14T07:11:19Z</time>
      </trkpt>
      <trkpt lat="43.23786" lon="5.65064">
        <ele>442.44921875</ele>
        <time>2020-06-14T07:11:20Z</time>
      </trkpt>
      <trkpt lat="43.23786" lon="5.65061">
        <ele>442.61328125</ele>
        <time>2020-06-14T07:11:21Z</time>
      </trkpt>
      <trkpt lat="43.23786" lon="5.65058">
        <ele>442.74609375</ele>
        <time>2020-06-14T07:11:22Z</time>
      </trkpt>
      <trkpt lat="43.23786" lon="5.65055">
        <ele>442.86328125</ele>
        <time>2020-06-14T07:11:23Z</time>
      </trkpt>
      <trkpt lat="43.23787" lon="5.65052">
        <ele>442.99609375</ele>
        <time>2020-06-14T07:11:24Z</time>
      </trkpt>
      <trkpt lat="43.2379" lon="5.65005">
        <ele>445.7109375</ele>
        <time>2020-06-14T07:11:41Z</time>
      </trkpt>
      <trkpt lat="43.23793" lon="5.64969">
        <ele>449.12890625</ele>
        <time>2020-06-14T07:11:56Z</time>
      </trkpt>
      <trkpt lat="43.238" lon="5.64928">
        <ele>451.9921875</ele>
        <time>2020-06-14T07:12:13Z</time>
      </trkpt>
      <trkpt lat="43.2381" lon="5.64902">
        <ele>454.12109375</ele>
        <time>2020-06-14T07:12:25Z</time>
      </trkpt>
      <trkpt lat="43.2382" lon="5.64866">
        <ele>456.82421875</ele>
        <time>2020-06-14T07:12:40Z</time>
      </trkpt>
      <trkpt lat="43.23826" lon="5.64823">
        <ele>459.140625</ele>
        <time>2020-06-14T07:12:56Z</time>
      </trkpt>
      <trkpt lat="43.23836" lon="5.64783">
        <ele>461.1953125</ele>
        <time>2020-06-14T07:13:10Z</time>
      </trkpt>
      <trkpt lat="43.23854" lon="5.64751">
        <ele>464.73046875</ele>
        <time>2020-06-14T07:13:25Z</time>
      </trkpt>
      <trkpt lat="43.2386" lon="5.6474">
        <ele>465.91015625</ele>
        <time>2020-06-14T07:13:30Z</time>
      </trkpt>
      <trkpt lat="43.2388" lon="5.64715">
        <ele>469.625</ele>
        <time>2020-06-14T07:13:45Z</time>
      </trkpt>
      <trkpt lat="43.23897" lon="5.64696">
        <ele>472.125</ele>
        <time>2020-06-14T07:13:59Z</time>
      </trkpt>
      <trkpt lat="43.23919" lon="5.64671">
        <ele>474.609375</ele>
        <time>2020-06-14T07:14:15Z</time>
      </trkpt>
      <trkpt lat="43.2393" lon="5.64655">
        <ele>476.08984375</ele>
        <time>2020-06-14T07:14:24Z</time>
      </trkpt>
      <trkpt lat="43.23931" lon="5.64653">
        <ele>476.31640625</ele>
        <time>2020-06-14T07:14:25Z</time>
      </trkpt>
      <trkpt lat="43.23933" lon="5.64651">
        <ele>476.515625</ele>
        <time>2020-06-14T07:14:26Z</time>
      </trkpt>
      <trkpt lat="43.23934" lon="5.6465">
        <ele>476.71484375</ele>
        <time>2020-06-14T07:14:27Z</time>
      </trkpt>
      <trkpt lat="43.23935" lon="5.64648">
        <ele>476.93359375</ele>
        <time>2020-06-14T07:14:28Z</time>
      </trkpt>
      <trkpt lat="43.23937" lon="5.64647">
        <ele>477.12109375</ele>
        <time>2020-06-14T07:14:29Z</time>
      </trkpt>
      <trkpt lat="43.23938" lon="5.64645">
        <ele>477.35546875</ele>
        <time>2020-06-14T07:14:30Z</time>
      </trkpt>
      <trkpt lat="43.23956" lon="5.64625">
        <ele>480.05078125</ele>
        <time>2020-06-14T07:14:43Z</time>
      </trkpt>
      <trkpt lat="43.23957" lon="5.64623">
        <ele>480.07421875</ele>
        <time>2020-06-14T07:14:44Z</time>
      </trkpt>
      <trkpt lat="43.23959" lon="5.64622">
        <ele>480.2265625</ele>
        <time>2020-06-14T07:14:45Z</time>
      </trkpt>
      <trkpt lat="43.23972" lon="5.64604">
        <ele>481.3046875</ele>
        <time>2020-06-14T07:14:56Z</time>
      </trkpt>
      <trkpt lat="43.23992" lon="5.64582">
        <ele>485.24609375</ele>
        <time>2020-06-14T07:15:10Z</time>
      </trkpt>
      <trkpt lat="43.24009" lon="5.64555">
        <ele>487.9609375</ele>
        <time>2020-06-14T07:15:24Z</time>
      </trkpt>
      <trkpt lat="43.24016" lon="5.64523">
        <ele>488.95703125</ele>
        <time>2020-06-14T07:15:38Z</time>
      </trkpt>
      <trkpt lat="43.24002" lon="5.64499">
        <ele>485.4921875</ele>
        <time>2020-06-14T07:15:49Z</time>
      </trkpt>
      <trkpt lat="43.23985" lon="5.64465">
        <ele>483.80859375</ele>
        <time>2020-06-14T07:16:04Z</time>
      </trkpt>
      <trkpt lat="43.2398" lon="5.64442">
        <ele>484.890625</ele>
        <time>2020-06-14T07:16:13Z</time>
      </trkpt>
      <trkpt lat="43.2398" lon="5.64425">
        <ele>486.32421875</ele>
        <time>2020-06-14T07:16:19Z</time>
      </trkpt>
      <trkpt lat="43.23979" lon="5.64423">
        <ele>486.52734375</ele>
        <time>2020-06-14T07:16:20Z</time>
      </trkpt>
      <trkpt lat="43.2398" lon="5.64421">
        <ele>486.79296875</ele>
        <time>2020-06-14T07:16:21Z</time>
      </trkpt>
      <trkpt lat="43.23979" lon="5.64418">
        <ele>487.05859375</ele>
        <time>2020-06-14T07:16:22Z</time>
      </trkpt>
      <trkpt lat="43.23979" lon="5.64415">
        <ele>487.35546875</ele>
        <time>2020-06-14T07:16:23Z</time>
      </trkpt>
      <trkpt lat="43.2398" lon="5.64412">
        <ele>487.69921875</ele>
        <time>2020-06-14T07:16:24Z</time>
      </trkpt>
      <trkpt lat="43.2398" lon="5.64409">
        <ele>488.03515625</ele>
        <time>2020-06-14T07:16:25Z</time>
      </trkpt>
      <trkpt lat="43.23983" lon="5.644">
        <ele>488.4375</ele>
        <time>2020-06-14T07:16:29Z</time>
      </trkpt>
      <trkpt lat="43.23984" lon="5.64399">
        <ele>488.56640625</ele>
        <time>2020-06-14T07:16:30Z</time>
      </trkpt>
      <trkpt lat="43.23986" lon="5.64401">
        <ele>488.87109375</ele>
        <time>2020-06-14T07:16:43Z</time>
      </trkpt>
      <trkpt lat="43.23988" lon="5.64401">
        <ele>489.12109375</ele>
        <time>2020-06-14T07:17:02Z</time>
      </trkpt>
      <trkpt lat="43.23998" lon="5.64403">
        <ele>490.1875</ele>
        <time>2020-06-14T07:17:20Z</time>
      </trkpt>
      <trkpt lat="43.24017" lon="5.64408">
        <ele>492.2890625</ele>
        <time>2020-06-14T07:17:31Z</time>
      </trkpt>
      <trkpt lat="43.24039" lon="5.64414">
        <ele>495.03125</ele>
        <time>2020-06-14T07:17:43Z</time>
      </trkpt>
      <trkpt lat="43.24063" lon="5.64419">
        <ele>498.4765625</ele>
        <time>2020-06-14T07:17:57Z</time>
      </trkpt>
      <trkpt lat="43.24069" lon="5.64418">
        <ele>499.234375</ele>
        <time>2020-06-14T07:18:05Z</time>
      </trkpt>
      <trkpt lat="43.24069" lon="5.64418">
        <ele>499.30859375</ele>
        <time>2020-06-14T07:18:07Z</time>
      </trkpt>
      <trkpt lat="43.24066" lon="5.64418">
        <ele>498.8515625</ele>
        <time>2020-06-14T07:18:24Z</time>
      </trkpt>
      <trkpt lat="43.2405" lon="5.64417">
        <ele>496.5390625</ele>
        <time>2020-06-14T07:18:30Z</time>
      </trkpt>
      <trkpt lat="43.24041" lon="5.64414">
        <ele>495.23828125</ele>
        <time>2020-06-14T07:18:32Z</time>
      </trkpt>
      <trkpt lat="43.24035" lon="5.64412">
        <ele>494.484375</ele>
        <time>2020-06-14T07:18:33Z</time>
      </trkpt>
      <trkpt lat="43.24018" lon="5.64406">
        <ele>492.48828125</ele>
        <time>2020-06-14T07:18:36Z</time>
      </trkpt>
      <trkpt lat="43.24013" lon="5.64404">
        <ele>491.80078125</ele>
        <time>2020-06-14T07:18:37Z</time>
      </trkpt>
      <trkpt lat="43.24007" lon="5.64402">
        <ele>491.140625</ele>
        <time>2020-06-14T07:18:38Z</time>
      </trkpt>
      <trkpt lat="43.24001" lon="5.64401">
        <ele>490.48828125</ele>
        <time>2020-06-14T07:18:39Z</time>
      </trkpt>
      <trkpt lat="43.23995" lon="5.64401">
        <ele>489.83203125</ele>
        <time>2020-06-14T07:18:40Z</time>
      </trkpt>
      <trkpt lat="43.2399" lon="5.644">
        <ele>489.22265625</ele>
        <time>2020-06-14T07:18:41Z</time>
      </trkpt>
      <trkpt lat="43.23986" lon="5.64399">
        <ele>488.7421875</ele>
        <time>2020-06-14T07:18:42Z</time>
      </trkpt>
      <trkpt lat="43.23983" lon="5.64397">
        <ele>488.34765625</ele>
        <time>2020-06-14T07:18:43Z</time>
      </trkpt>
      <trkpt lat="43.2398" lon="5.64394">
        <ele>487.98046875</ele>
        <time>2020-06-14T07:18:44Z</time>
      </trkpt>
      <trkpt lat="43.23979" lon="5.6439">
        <ele>487.6875</ele>
        <time>2020-06-14T07:18:45Z</time>
      </trkpt>
      <trkpt lat="43.23978" lon="5.64387">
        <ele>487.47265625</ele>
        <time>2020-06-14T07:18:46Z</time>
      </trkpt>
      <trkpt lat="43.23978" lon="5.64383">
        <ele>487.26953125</ele>
        <time>2020-06-14T07:18:47Z</time>
      </trkpt>
      <trkpt lat="43.23977" lon="5.64379">
        <ele>487.05859375</ele>
        <time>2020-06-14T07:18:48Z</time>
      </trkpt>
      <trkpt lat="43.23977" lon="5.64375">
        <ele>487.03515625</ele>
        <time>2020-06-14T07:18:49Z</time>
      </trkpt>
      <trkpt lat="43.23976" lon="5.64313">
        <ele>483.89453125</ele>
        <time>2020-06-14T07:19:01Z</time>
      </trkpt>
      <trkpt lat="43.23975" lon="5.64291">
        <ele>481.859375</ele>
        <time>2020-06-14T07:19:04Z</time>
      </trkpt>
      <trkpt lat="43.23974" lon="5.64286">
        <ele>481.5234375</ele>
        <time>2020-06-14T07:19:05Z</time>
      </trkpt>
      <trkpt lat="43.23963" lon="5.64243">
        <ele>479.23828125</ele>
        <time>2020-06-14T07:19:14Z</time>
      </trkpt>
      <trkpt lat="43.23969" lon="5.64237">
        <ele>477.84375</ele>
        <time>2020-06-14T07:19:18Z</time>
      </trkpt>
      <trkpt lat="43.23971" lon="5.64237">
        <ele>477.62109375</ele>
        <time>2020-06-14T07:19:19Z</time>
      </trkpt>
      <trkpt lat="43.23976" lon="5.64235">
        <ele>476.71484375</ele>
        <time>2020-06-14T07:19:33Z</time>
      </trkpt>
      <trkpt lat="43.23986" lon="5.64222">
        <ele>473.578125</ele>
        <time>2020-06-14T07:19:37Z</time>
      </trkpt>
      <trkpt lat="43.23988" lon="5.64218">
        <ele>472.671875</ele>
        <time>2020-06-14T07:19:38Z</time>
      </trkpt>
      <trkpt lat="43.23991" lon="5.64215">
        <ele>471.6015625</ele>
        <time>2020-06-14T07:19:39Z</time>
      </trkpt>
      <trkpt lat="43.23994" lon="5.6421">
        <ele>470.59765625</ele>
        <time>2020-06-14T07:19:40Z</time>
      </trkpt>
      <trkpt lat="43.23996" lon="5.64205">
        <ele>469.94921875</ele>
        <time>2020-06-14T07:19:41Z</time>
      </trkpt>
      <trkpt lat="43.24004" lon="5.64192">
        <ele>468.09765625</ele>
        <time>2020-06-14T07:19:45Z</time>
      </trkpt>
      <trkpt lat="43.24009" lon="5.64186">
        <ele>466.76171875</ele>
        <time>2020-06-14T07:19:48Z</time>
      </trkpt>
      <trkpt lat="43.24011" lon="5.64182">
        <ele>466.27734375</ele>
        <time>2020-06-14T07:19:49Z</time>
      </trkpt>
      <trkpt lat="43.24013" lon="5.64179">
        <ele>465.80859375</ele>
        <time>2020-06-14T07:19:50Z</time>
      </trkpt>
      <trkpt lat="43.24016" lon="5.64179">
        <ele>465.29296875</ele>
        <time>2020-06-14T07:19:51Z</time>
      </trkpt>
      <trkpt lat="43.24018" lon="5.6418">
        <ele>464.74609375</ele>
        <time>2020-06-14T07:19:52Z</time>
      </trkpt>
      <trkpt lat="43.24021" lon="5.64181">
        <ele>464</ele>
        <time>2020-06-14T07:19:53Z</time>
      </trkpt>
      <trkpt lat="43.24024" lon="5.64183">
        <ele>463.18359375</ele>
        <time>2020-06-14T07:19:54Z</time>
      </trkpt>
      <trkpt lat="43.24026" lon="5.64185">
        <ele>462.61328125</ele>
        <time>2020-06-14T07:19:55Z</time>
      </trkpt>
      <trkpt lat="43.24027" lon="5.64188">
        <ele>462.44140625</ele>
        <time>2020-06-14T07:19:56Z</time>
      </trkpt>
      <trkpt lat="43.24027" lon="5.64191">
        <ele>462.40234375</ele>
        <time>2020-06-14T07:19:57Z</time>
      </trkpt>
      <trkpt lat="43.24028" lon="5.64195">
        <ele>462.33203125</ele>
        <time>2020-06-14T07:19:58Z</time>
      </trkpt>
      <trkpt lat="43.24029" lon="5.64198">
        <ele>462.2421875</ele>
        <time>2020-06-14T07:19:59Z</time>
      </trkpt>
      <trkpt lat="43.2403" lon="5.64202">
        <ele>462.0390625</ele>
        <time>2020-06-14T07:20:00Z</time>
      </trkpt>
      <trkpt lat="43.24033" lon="5.64206">
        <ele>461.7109375</ele>
        <time>2020-06-14T07:20:01Z</time>
      </trkpt>
      <trkpt lat="43.24035" lon="5.64208">
        <ele>461.2890625</ele>
        <time>2020-06-14T07:20:02Z</time>
      </trkpt>
      <trkpt lat="43.24039" lon="5.64209">
        <ele>460.6953125</ele>
        <time>2020-06-14T07:20:03Z</time>
      </trkpt>
      <trkpt lat="43.24044" lon="5.64211">
        <ele>459.9140625</ele>
        <time>2020-06-14T07:20:04Z</time>
      </trkpt>
      <trkpt lat="43.24049" lon="5.64215">
        <ele>459.609375</ele>
        <time>2020-06-14T07:20:05Z</time>
      </trkpt>
      <trkpt lat="43.24053" lon="5.64218">
        <ele>459.44140625</ele>
        <time>2020-06-14T07:20:06Z</time>
      </trkpt>
      <trkpt lat="43.24058" lon="5.64219">
        <ele>458.8984375</ele>
        <time>2020-06-14T07:20:07Z</time>
      </trkpt>
      <trkpt lat="43.24062" lon="5.64218">
        <ele>458.37890625</ele>
        <time>2020-06-14T07:20:08Z</time>
      </trkpt>
      <trkpt lat="43.24066" lon="5.64217">
        <ele>458.02734375</ele>
        <time>2020-06-14T07:20:09Z</time>
      </trkpt>
      <trkpt lat="43.24079" lon="5.64215">
        <ele>457.1796875</ele>
        <time>2020-06-14T07:20:12Z</time>
      </trkpt>
      <trkpt lat="43.24085" lon="5.64214">
        <ele>456.56640625</ele>
        <time>2020-06-14T07:20:14Z</time>
      </trkpt>
      <trkpt lat="43.241" lon="5.642">
        <ele>453.5234375</ele>
        <time>2020-06-14T07:20:19Z</time>
      </trkpt>
      <trkpt lat="43.24104" lon="5.64199">
        <ele>452.99609375</ele>
        <time>2020-06-14T07:20:20Z</time>
      </trkpt>
      <trkpt lat="43.24108" lon="5.64198">
        <ele>452.66015625</ele>
        <time>2020-06-14T07:20:21Z</time>
      </trkpt>
      <trkpt lat="43.24126" lon="5.64197">
        <ele>451.4296875</ele>
        <time>2020-06-14T07:20:25Z</time>
      </trkpt>
      <trkpt lat="43.24131" lon="5.64198">
        <ele>451.4765625</ele>
        <time>2020-06-14T07:20:26Z</time>
      </trkpt>
      <trkpt lat="43.24135" lon="5.64198">
        <ele>451.3203125</ele>
        <time>2020-06-14T07:20:27Z</time>
      </trkpt>
      <trkpt lat="43.24139" lon="5.64197">
        <ele>450.8515625</ele>
        <time>2020-06-14T07:20:28Z</time>
      </trkpt>
      <trkpt lat="43.24142" lon="5.64195">
        <ele>450</ele>
        <time>2020-06-14T07:20:29Z</time>
      </trkpt>
      <trkpt lat="43.24146" lon="5.64192">
        <ele>448.609375</ele>
        <time>2020-06-14T07:20:30Z</time>
      </trkpt>
      <trkpt lat="43.2415" lon="5.64187">
        <ele>446.9765625</ele>
        <time>2020-06-14T07:20:31Z</time>
      </trkpt>
      <trkpt lat="43.24154" lon="5.64184">
        <ele>445.54296875</ele>
        <time>2020-06-14T07:20:32Z</time>
      </trkpt>
      <trkpt lat="43.24158" lon="5.64181">
        <ele>444.5859375</ele>
        <time>2020-06-14T07:20:33Z</time>
      </trkpt>
      <trkpt lat="43.24166" lon="5.64175">
        <ele>442.67578125</ele>
        <time>2020-06-14T07:20:35Z</time>
      </trkpt>
      <trkpt lat="43.24185" lon="5.64157">
        <ele>436.8046875</ele>
        <time>2020-06-14T07:20:40Z</time>
      </trkpt>
      <trkpt lat="43.2419" lon="5.64156">
        <ele>436.234375</ele>
        <time>2020-06-14T07:20:42Z</time>
      </trkpt>
      <trkpt lat="43.24194" lon="5.64156">
        <ele>436.10546875</ele>
        <time>2020-06-14T07:20:43Z</time>
      </trkpt>
      <trkpt lat="43.24198" lon="5.64157">
        <ele>436.19921875</ele>
        <time>2020-06-14T07:20:44Z</time>
      </trkpt>
      <trkpt lat="43.24203" lon="5.64158">
        <ele>435.9765625</ele>
        <time>2020-06-14T07:20:45Z</time>
      </trkpt>
      <trkpt lat="43.24207" lon="5.64158">
        <ele>435.55078125</ele>
        <time>2020-06-14T07:20:46Z</time>
      </trkpt>
      <trkpt lat="43.24211" lon="5.64157">
        <ele>434.8515625</ele>
        <time>2020-06-14T07:20:47Z</time>
      </trkpt>
      <trkpt lat="43.24215" lon="5.64156">
        <ele>434.16796875</ele>
        <time>2020-06-14T07:20:48Z</time>
      </trkpt>
      <trkpt lat="43.24219" lon="5.64155">
        <ele>433.6015625</ele>
        <time>2020-06-14T07:20:49Z</time>
      </trkpt>
      <trkpt lat="43.24224" lon="5.64155">
        <ele>433.1015625</ele>
        <time>2020-06-14T07:20:50Z</time>
      </trkpt>
      <trkpt lat="43.24229" lon="5.64155">
        <ele>432.46875</ele>
        <time>2020-06-14T07:20:51Z</time>
      </trkpt>
      <trkpt lat="43.24234" lon="5.64156">
        <ele>431.85546875</ele>
        <time>2020-06-14T07:20:52Z</time>
      </trkpt>
      <trkpt lat="43.2424" lon="5.64157">
        <ele>431.23828125</ele>
        <time>2020-06-14T07:20:53Z</time>
      </trkpt>
      <trkpt lat="43.24249" lon="5.64158">
        <ele>430.05078125</ele>
        <time>2020-06-14T07:20:55Z</time>
      </trkpt>
      <trkpt lat="43.24254" lon="5.64159">
        <ele>429.375</ele>
        <time>2020-06-14T07:20:56Z</time>
      </trkpt>
      <trkpt lat="43.24259" lon="5.64159">
        <ele>428.5625</ele>
        <time>2020-06-14T07:20:57Z</time>
      </trkpt>
      <trkpt lat="43.24263" lon="5.64159">
        <ele>427.73828125</ele>
        <time>2020-06-14T07:20:58Z</time>
      </trkpt>
      <trkpt lat="43.24268" lon="5.64159">
        <ele>426.953125</ele>
        <time>2020-06-14T07:20:59Z</time>
      </trkpt>
      <trkpt lat="43.24273" lon="5.64158">
        <ele>425.953125</ele>
        <time>2020-06-14T07:21:00Z</time>
      </trkpt>
      <trkpt lat="43.24283" lon="5.64158">
        <ele>424.21875</ele>
        <time>2020-06-14T07:21:02Z</time>
      </trkpt>
      <trkpt lat="43.24288" lon="5.64159">
        <ele>424.11328125</ele>
        <time>2020-06-14T07:21:03Z</time>
      </trkpt>
      <trkpt lat="43.24293" lon="5.64158">
        <ele>423.80859375</ele>
        <time>2020-06-14T07:21:04Z</time>
      </trkpt>
      <trkpt lat="43.24308" lon="5.64152">
        <ele>422.71484375</ele>
        <time>2020-06-14T07:21:07Z</time>
      </trkpt>
      <trkpt lat="43.24311" lon="5.6415">
        <ele>422.5703125</ele>
        <time>2020-06-14T07:21:08Z</time>
      </trkpt>
      <trkpt lat="43.24326" lon="5.6414">
        <ele>422.03515625</ele>
        <time>2020-06-14T07:21:09Z</time>
      </trkpt>
      <trkpt lat="43.24335" lon="5.64135">
        <ele>421.640625</ele>
        <time>2020-06-14T07:21:10Z</time>
      </trkpt>
      <trkpt lat="43.24342" lon="5.64131">
        <ele>421.8046875</ele>
        <time>2020-06-14T07:21:11Z</time>
      </trkpt>
      <trkpt lat="43.24347" lon="5.64128">
        <ele>422.015625</ele>
        <time>2020-06-14T07:21:12Z</time>
      </trkpt>
      <trkpt lat="43.24354" lon="5.64125">
        <ele>422.546875</ele>
        <time>2020-06-14T07:21:13Z</time>
      </trkpt>
      <trkpt lat="43.24367" lon="5.64119">
        <ele>423.0546875</ele>
        <time>2020-06-14T07:21:15Z</time>
      </trkpt>
      <trkpt lat="43.2439" lon="5.641">
        <ele>421.7421875</ele>
        <time>2020-06-14T07:21:19Z</time>
      </trkpt>
      <trkpt lat="43.24402" lon="5.64089">
        <ele>420.6875</ele>
        <time>2020-06-14T07:21:21Z</time>
      </trkpt>
      <trkpt lat="43.24409" lon="5.64085">
        <ele>420.21484375</ele>
        <time>2020-06-14T07:21:22Z</time>
      </trkpt>
      <trkpt lat="43.24416" lon="5.64081">
        <ele>419.703125</ele>
        <time>2020-06-14T07:21:23Z</time>
      </trkpt>
      <trkpt lat="43.24422" lon="5.64078">
        <ele>419.23828125</ele>
        <time>2020-06-14T07:21:24Z</time>
      </trkpt>
      <trkpt lat="43.24427" lon="5.64075">
        <ele>418.87109375</ele>
        <time>2020-06-14T07:21:25Z</time>
      </trkpt>
      <trkpt lat="43.24431" lon="5.64072">
        <ele>418.66015625</ele>
        <time>2020-06-14T07:21:26Z</time>
      </trkpt>
      <trkpt lat="43.24435" lon="5.6407">
        <ele>418.6484375</ele>
        <time>2020-06-14T07:21:27Z</time>
      </trkpt>
      <trkpt lat="43.24438" lon="5.64067">
        <ele>418.59765625</ele>
        <time>2020-06-14T07:21:28Z</time>
      </trkpt>
      <trkpt lat="43.24442" lon="5.64066">
        <ele>418.62890625</ele>
        <time>2020-06-14T07:21:29Z</time>
      </trkpt>
      <trkpt lat="43.24445" lon="5.64066">
        <ele>418.7734375</ele>
        <time>2020-06-14T07:21:30Z</time>
      </trkpt>
      <trkpt lat="43.24457" lon="5.64063">
        <ele>419.39453125</ele>
        <time>2020-06-14T07:21:33Z</time>
      </trkpt>
      <trkpt lat="43.24466" lon="5.6406">
        <ele>419.71484375</ele>
        <time>2020-06-14T07:21:35Z</time>
      </trkpt>
      <trkpt lat="43.24471" lon="5.64058">
        <ele>419.6484375</ele>
        <time>2020-06-14T07:21:36Z</time>
      </trkpt>
      <trkpt lat="43.24476" lon="5.64056">
        <ele>419.703125</ele>
        <time>2020-06-14T07:21:37Z</time>
      </trkpt>
      <trkpt lat="43.24486" lon="5.64054">
        <ele>419.59765625</ele>
        <time>2020-06-14T07:21:39Z</time>
      </trkpt>
      <trkpt lat="43.24529" lon="5.64056">
        <ele>421.39453125</ele>
        <time>2020-06-14T07:21:49Z</time>
      </trkpt>
      <trkpt lat="43.24567" lon="5.6406">
        <ele>422.46484375</ele>
        <time>2020-06-14T07:22:02Z</time>
      </trkpt>
      <trkpt lat="43.24584" lon="5.64066">
        <ele>424.28125</ele>
        <time>2020-06-14T07:22:11Z</time>
      </trkpt>
      <trkpt lat="43.24586" lon="5.64068">
        <ele>424.640625</ele>
        <time>2020-06-14T07:22:12Z</time>
      </trkpt>
      <trkpt lat="43.24588" lon="5.64069">
        <ele>425.0390625</ele>
        <time>2020-06-14T07:22:13Z</time>
      </trkpt>
      <trkpt lat="43.2459" lon="5.64071">
        <ele>425.484375</ele>
        <time>2020-06-14T07:22:14Z</time>
      </trkpt>
      <trkpt lat="43.24592" lon="5.64072">
        <ele>425.84765625</ele>
        <time>2020-06-14T07:22:15Z</time>
      </trkpt>
      <trkpt lat="43.24607" lon="5.64079">
        <ele>428.4765625</ele>
        <time>2020-06-14T07:22:24Z</time>
      </trkpt>
      <trkpt lat="43.24609" lon="5.64078">
        <ele>428.18359375</ele>
        <time>2020-06-14T07:22:25Z</time>
      </trkpt>
      <trkpt lat="43.24611" lon="5.64077">
        <ele>427.86328125</ele>
        <time>2020-06-14T07:22:26Z</time>
      </trkpt>
      <trkpt lat="43.24614" lon="5.64075">
        <ele>427.4375</ele>
        <time>2020-06-14T07:22:27Z</time>
      </trkpt>
      <trkpt lat="43.24617" lon="5.64073">
        <ele>426.76171875</ele>
        <time>2020-06-14T07:22:28Z</time>
      </trkpt>
      <trkpt lat="43.24624" lon="5.64064">
        <ele>424.0546875</ele>
        <time>2020-06-14T07:22:39Z</time>
      </trkpt>
      <trkpt lat="43.24626" lon="5.64063">
        <ele>423.7109375</ele>
        <time>2020-06-14T07:23:12Z</time>
      </trkpt>
      <trkpt lat="43.24629" lon="5.64063">
        <ele>423.49609375</ele>
        <time>2020-06-14T07:23:35Z</time>
      </trkpt>
      <trkpt lat="43.2463" lon="5.64062">
        <ele>423.19921875</ele>
        <time>2020-06-14T07:23:36Z</time>
      </trkpt>
      <trkpt lat="43.24631" lon="5.64061">
        <ele>422.7578125</ele>
        <time>2020-06-14T07:23:37Z</time>
      </trkpt>
      <trkpt lat="43.24633" lon="5.64059">
        <ele>422.171875</ele>
        <time>2020-06-14T07:23:38Z</time>
      </trkpt>
      <trkpt lat="43.24635" lon="5.64057">
        <ele>421.5546875</ele>
        <time>2020-06-14T07:23:39Z</time>
      </trkpt>
      <trkpt lat="43.24667" lon="5.64057">
        <ele>419.203125</ele>
        <time>2020-06-14T07:23:50Z</time>
      </trkpt>
      <trkpt lat="43.24699" lon="5.64089">
        <ele>424.87890625</ele>
        <time>2020-06-14T07:24:02Z</time>
      </trkpt>
      <trkpt lat="43.24734" lon="5.64122">
        <ele>428.64453125</ele>
        <time>2020-06-14T07:24:17Z</time>
      </trkpt>
      <trkpt lat="43.24757" lon="5.64142">
        <ele>431.18359375</ele>
        <time>2020-06-14T07:24:28Z</time>
      </trkpt>
      <trkpt lat="43.24771" lon="5.64129">
        <ele>430.953125</ele>
        <time>2020-06-14T07:24:36Z</time>
      </trkpt>
      <trkpt lat="43.24773" lon="5.64128">
        <ele>431.0859375</ele>
        <time>2020-06-14T07:24:58Z</time>
      </trkpt>
      <trkpt lat="43.24773" lon="5.64128">
        <ele>430.97265625</ele>
        <time>2020-06-14T07:25:13Z</time>
      </trkpt>
      <trkpt lat="43.24774" lon="5.64126">
        <ele>430.91796875</ele>
        <time>2020-06-14T07:25:14Z</time>
      </trkpt>
      <trkpt lat="43.24776" lon="5.64125">
        <ele>430.890625</ele>
        <time>2020-06-14T07:25:15Z</time>
      </trkpt>
      <trkpt lat="43.24778" lon="5.64123">
        <ele>430.8984375</ele>
        <time>2020-06-14T07:25:16Z</time>
      </trkpt>
      <trkpt lat="43.2478" lon="5.64121">
        <ele>430.8125</ele>
        <time>2020-06-14T07:25:17Z</time>
      </trkpt>
      <trkpt lat="43.24781" lon="5.6412">
        <ele>430.68359375</ele>
        <time>2020-06-14T07:25:18Z</time>
      </trkpt>
      <trkpt lat="43.24786" lon="5.64109">
        <ele>429.96484375</ele>
        <time>2020-06-14T07:25:22Z</time>
      </trkpt>
      <trkpt lat="43.24792" lon="5.64103">
        <ele>429.9296875</ele>
        <time>2020-06-14T07:25:26Z</time>
      </trkpt>
      <trkpt lat="43.24797" lon="5.64099">
        <ele>429.81640625</ele>
        <time>2020-06-14T07:25:28Z</time>
      </trkpt>
      <trkpt lat="43.24801" lon="5.64089">
        <ele>427.76953125</ele>
        <time>2020-06-14T07:25:31Z</time>
      </trkpt>
      <trkpt lat="43.24801" lon="5.64086">
        <ele>426.97265625</ele>
        <time>2020-06-14T07:25:32Z</time>
      </trkpt>
      <trkpt lat="43.24799" lon="5.64084">
        <ele>426.0859375</ele>
        <time>2020-06-14T07:25:33Z</time>
      </trkpt>
      <trkpt lat="43.24797" lon="5.64082">
        <ele>425.3203125</ele>
        <time>2020-06-14T07:25:34Z</time>
      </trkpt>
      <trkpt lat="43.24787" lon="5.64075">
        <ele>422.94140625</ele>
        <time>2020-06-14T07:25:38Z</time>
      </trkpt>
      <trkpt lat="43.24785" lon="5.64069">
        <ele>420.76953125</ele>
        <time>2020-06-14T07:25:50Z</time>
      </trkpt>
      <trkpt lat="43.24782" lon="5.64062">
        <ele>417.9453125</ele>
        <time>2020-06-14T07:26:04Z</time>
      </trkpt>
      <trkpt lat="43.24783" lon="5.64058">
        <ele>416.640625</ele>
        <time>2020-06-14T07:26:16Z</time>
      </trkpt>
      <trkpt lat="43.24781" lon="5.64058">
        <ele>416.484375</ele>
        <time>2020-06-14T07:26:34Z</time>
      </trkpt>
      <trkpt lat="43.24783" lon="5.64056">
        <ele>415.84375</ele>
        <time>2020-06-14T07:26:46Z</time>
      </trkpt>
      <trkpt lat="43.24787" lon="5.64055">
        <ele>415.59765625</ele>
        <time>2020-06-14T07:26:48Z</time>
      </trkpt>
      <trkpt lat="43.24801" lon="5.6405">
        <ele>413.921875</ele>
        <time>2020-06-14T07:26:53Z</time>
      </trkpt>
      <trkpt lat="43.24805" lon="5.64049">
        <ele>413.50390625</ele>
        <time>2020-06-14T07:26:54Z</time>
      </trkpt>
      <trkpt lat="43.24808" lon="5.64048">
        <ele>413.33203125</ele>
        <time>2020-06-14T07:26:55Z</time>
      </trkpt>
      <trkpt lat="43.2481" lon="5.64048">
        <ele>413.2734375</ele>
        <time>2020-06-14T07:26:56Z</time>
      </trkpt>
      <trkpt lat="43.24813" lon="5.64048">
        <ele>413.16015625</ele>
        <time>2020-06-14T07:26:57Z</time>
      </trkpt>
      <trkpt lat="43.24815" lon="5.64048">
        <ele>413.26953125</ele>
        <time>2020-06-14T07:26:58Z</time>
      </trkpt>
      <trkpt lat="43.24817" lon="5.64048">
        <ele>413.3203125</ele>
        <time>2020-06-14T07:26:59Z</time>
      </trkpt>
      <trkpt lat="43.24819" lon="5.64048">
        <ele>413.33203125</ele>
        <time>2020-06-14T07:27:00Z</time>
      </trkpt>
      <trkpt lat="43.24839" lon="5.64048">
        <ele>413.46484375</ele>
        <time>2020-06-14T07:27:04Z</time>
      </trkpt>
      <trkpt lat="43.24881" lon="5.64021">
        <ele>408.95703125</ele>
        <time>2020-06-14T07:27:13Z</time>
      </trkpt>
      <trkpt lat="43.24924" lon="5.64">
        <ele>404.4453125</ele>
        <time>2020-06-14T07:27:21Z</time>
      </trkpt>
      <trkpt lat="43.24937" lon="5.63997">
        <ele>403.3359375</ele>
        <time>2020-06-14T07:27:23Z</time>
      </trkpt>
      <trkpt lat="43.2499" lon="5.63991">
        <ele>400.47265625</ele>
        <time>2020-06-14T07:27:30Z</time>
      </trkpt>
      <trkpt lat="43.24997" lon="5.6399">
        <ele>400.19921875</ele>
        <time>2020-06-14T07:27:31Z</time>
      </trkpt>
      <trkpt lat="43.25004" lon="5.6399">
        <ele>400.1796875</ele>
        <time>2020-06-14T07:27:32Z</time>
      </trkpt>
      <trkpt lat="43.25041" lon="5.63986">
        <ele>398.05859375</ele>
        <time>2020-06-14T07:27:38Z</time>
      </trkpt>
      <trkpt lat="43.25046" lon="5.63985">
        <ele>397.6953125</ele>
        <time>2020-06-14T07:27:39Z</time>
      </trkpt>
      <trkpt lat="43.25052" lon="5.63985">
        <ele>397.5234375</ele>
        <time>2020-06-14T07:27:40Z</time>
      </trkpt>
      <trkpt lat="43.25063" lon="5.63984">
        <ele>397.125</ele>
        <time>2020-06-14T07:27:42Z</time>
      </trkpt>
      <trkpt lat="43.25082" lon="5.63981">
        <ele>395.9296875</ele>
        <time>2020-06-14T07:27:45Z</time>
      </trkpt>
      <trkpt lat="43.25121" lon="5.63979">
        <ele>395.05859375</ele>
        <time>2020-06-14T07:27:51Z</time>
      </trkpt>
      <trkpt lat="43.25133" lon="5.63981">
        <ele>395.16015625</ele>
        <time>2020-06-14T07:27:53Z</time>
      </trkpt>
      <trkpt lat="43.25139" lon="5.63984">
        <ele>395.69140625</ele>
        <time>2020-06-14T07:27:54Z</time>
      </trkpt>
      <trkpt lat="43.25145" lon="5.63987">
        <ele>396.2109375</ele>
        <time>2020-06-14T07:27:55Z</time>
      </trkpt>
      <trkpt lat="43.2515" lon="5.63989">
        <ele>396.32421875</ele>
        <time>2020-06-14T07:27:56Z</time>
      </trkpt>
      <trkpt lat="43.25154" lon="5.6399">
        <ele>396.30078125</ele>
        <time>2020-06-14T07:27:57Z</time>
      </trkpt>
      <trkpt lat="43.25159" lon="5.63991">
        <ele>396.23046875</ele>
        <time>2020-06-14T07:27:58Z</time>
      </trkpt>
      <trkpt lat="43.25163" lon="5.63993">
        <ele>396.5</ele>
        <time>2020-06-14T07:27:59Z</time>
      </trkpt>
      <trkpt lat="43.25166" lon="5.63994">
        <ele>396.63671875</ele>
        <time>2020-06-14T07:28:00Z</time>
      </trkpt>
      <trkpt lat="43.25169" lon="5.63995">
        <ele>396.67578125</ele>
        <time>2020-06-14T07:28:01Z</time>
      </trkpt>
      <trkpt lat="43.25173" lon="5.63996">
        <ele>396.5</ele>
        <time>2020-06-14T07:28:02Z</time>
      </trkpt>
      <trkpt lat="43.25189" lon="5.63996">
        <ele>394.69921875</ele>
        <time>2020-06-14T07:28:05Z</time>
      </trkpt>
      <trkpt lat="43.25194" lon="5.63994">
        <ele>393.50390625</ele>
        <time>2020-06-14T07:28:06Z</time>
      </trkpt>
      <trkpt lat="43.252" lon="5.63993">
        <ele>392.6796875</ele>
        <time>2020-06-14T07:28:07Z</time>
      </trkpt>
      <trkpt lat="43.25205" lon="5.63994">
        <ele>392.21875</ele>
        <time>2020-06-14T07:28:08Z</time>
      </trkpt>
      <trkpt lat="43.25211" lon="5.63994">
        <ele>391.49609375</ele>
        <time>2020-06-14T07:28:09Z</time>
      </trkpt>
      <trkpt lat="43.25217" lon="5.63994">
        <ele>390.61328125</ele>
        <time>2020-06-14T07:28:10Z</time>
      </trkpt>
      <trkpt lat="43.25223" lon="5.63994">
        <ele>389.70703125</ele>
        <time>2020-06-14T07:28:11Z</time>
      </trkpt>
      <trkpt lat="43.25242" lon="5.63992">
        <ele>385.8125</ele>
        <time>2020-06-14T07:28:14Z</time>
      </trkpt>
      <trkpt lat="43.25247" lon="5.63994">
        <ele>385.4296875</ele>
        <time>2020-06-14T07:28:15Z</time>
      </trkpt>
      <trkpt lat="43.25252" lon="5.63997">
        <ele>385.234375</ele>
        <time>2020-06-14T07:28:16Z</time>
      </trkpt>
      <trkpt lat="43.25257" lon="5.64001">
        <ele>385.12890625</ele>
        <time>2020-06-14T07:28:17Z</time>
      </trkpt>
      <trkpt lat="43.25263" lon="5.64002">
        <ele>384.390625</ele>
        <time>2020-06-14T07:28:18Z</time>
      </trkpt>
      <trkpt lat="43.25268" lon="5.64002">
        <ele>383.66796875</ele>
        <time>2020-06-14T07:28:19Z</time>
      </trkpt>
      <trkpt lat="43.25274" lon="5.64006">
        <ele>383.3359375</ele>
        <time>2020-06-14T07:28:21Z</time>
      </trkpt>
      <trkpt lat="43.25276" lon="5.64007">
        <ele>383.46484375</ele>
        <time>2020-06-14T07:28:22Z</time>
      </trkpt>
      <trkpt lat="43.25298" lon="5.64021">
        <ele>382.0625</ele>
        <time>2020-06-14T07:28:30Z</time>
      </trkpt>
      <trkpt lat="43.25303" lon="5.64023">
        <ele>381.16796875</ele>
        <time>2020-06-14T07:28:31Z</time>
      </trkpt>
      <trkpt lat="43.2532" lon="5.64028">
        <ele>378.296875</ele>
        <time>2020-06-14T07:28:34Z</time>
      </trkpt>
      <trkpt lat="43.25336" lon="5.64035">
        <ele>375.95703125</ele>
        <time>2020-06-14T07:28:37Z</time>
      </trkpt>
      <trkpt lat="43.25341" lon="5.64038">
        <ele>375.30078125</ele>
        <time>2020-06-14T07:28:38Z</time>
      </trkpt>
      <trkpt lat="43.25345" lon="5.64041">
        <ele>374.828125</ele>
        <time>2020-06-14T07:28:39Z</time>
      </trkpt>
      <trkpt lat="43.25349" lon="5.64046">
        <ele>374.45703125</ele>
        <time>2020-06-14T07:28:40Z</time>
      </trkpt>
      <trkpt lat="43.25352" lon="5.6405">
        <ele>374.2265625</ele>
        <time>2020-06-14T07:28:41Z</time>
      </trkpt>
      <trkpt lat="43.25356" lon="5.64054">
        <ele>373.875</ele>
        <time>2020-06-14T07:28:42Z</time>
      </trkpt>
      <trkpt lat="43.25359" lon="5.64058">
        <ele>373.578125</ele>
        <time>2020-06-14T07:28:43Z</time>
      </trkpt>
      <trkpt lat="43.25362" lon="5.64062">
        <ele>373.44921875</ele>
        <time>2020-06-14T07:28:44Z</time>
      </trkpt>
      <trkpt lat="43.25364" lon="5.64067">
        <ele>373.3984375</ele>
        <time>2020-06-14T07:28:45Z</time>
      </trkpt>
      <trkpt lat="43.25367" lon="5.64071">
        <ele>373.21484375</ele>
        <time>2020-06-14T07:28:46Z</time>
      </trkpt>
      <trkpt lat="43.25371" lon="5.64076">
        <ele>372.87109375</ele>
        <time>2020-06-14T07:28:47Z</time>
      </trkpt>
      <trkpt lat="43.25374" lon="5.6408">
        <ele>372.44140625</ele>
        <time>2020-06-14T07:28:48Z</time>
      </trkpt>
      <trkpt lat="43.25377" lon="5.64085">
        <ele>371.94140625</ele>
        <time>2020-06-14T07:28:49Z</time>
      </trkpt>
      <trkpt lat="43.2538" lon="5.64089">
        <ele>371.3828125</ele>
        <time>2020-06-14T07:28:50Z</time>
      </trkpt>
      <trkpt lat="43.25401" lon="5.64112">
        <ele>368.1953125</ele>
        <time>2020-06-14T07:28:59Z</time>
      </trkpt>
      <trkpt lat="43.25407" lon="5.64118">
        <ele>367.28515625</ele>
        <time>2020-06-14T07:29:03Z</time>
      </trkpt>
      <trkpt lat="43.25409" lon="5.64119">
        <ele>367.03515625</ele>
        <time>2020-06-14T07:29:04Z</time>
      </trkpt>
      <trkpt lat="43.25411" lon="5.64122">
        <ele>366.75390625</ele>
        <time>2020-06-14T07:29:05Z</time>
      </trkpt>
      <trkpt lat="43.25412" lon="5.64125">
        <ele>366.5234375</ele>
        <time>2020-06-14T07:29:06Z</time>
      </trkpt>
      <trkpt lat="43.25414" lon="5.64128">
        <ele>366.23828125</ele>
        <time>2020-06-14T07:29:07Z</time>
      </trkpt>
      <trkpt lat="43.25421" lon="5.64143">
        <ele>365.4375</ele>
        <time>2020-06-14T07:29:11Z</time>
      </trkpt>
      <trkpt lat="43.25424" lon="5.64145">
        <ele>365.10546875</ele>
        <time>2020-06-14T07:29:12Z</time>
      </trkpt>
      <trkpt lat="43.25427" lon="5.64146">
        <ele>364.66015625</ele>
        <time>2020-06-14T07:29:13Z</time>
      </trkpt>
      <trkpt lat="43.25431" lon="5.64148">
        <ele>364.28125</ele>
        <time>2020-06-14T07:29:14Z</time>
      </trkpt>
      <trkpt lat="43.25433" lon="5.6415">
        <ele>364.00390625</ele>
        <time>2020-06-14T07:29:15Z</time>
      </trkpt>
      <trkpt lat="43.25436" lon="5.64152">
        <ele>363.60546875</ele>
        <time>2020-06-14T07:29:16Z</time>
      </trkpt>
      <trkpt lat="43.25439" lon="5.64153">
        <ele>363.171875</ele>
        <time>2020-06-14T07:29:17Z</time>
      </trkpt>
      <trkpt lat="43.25447" lon="5.64159">
        <ele>362.10546875</ele>
        <time>2020-06-14T07:29:22Z</time>
      </trkpt>
      <trkpt lat="43.25449" lon="5.6416">
        <ele>361.91015625</ele>
        <time>2020-06-14T07:29:23Z</time>
      </trkpt>
      <trkpt lat="43.25455" lon="5.64168">
        <ele>361.13671875</ele>
        <time>2020-06-14T07:29:28Z</time>
      </trkpt>
      <trkpt lat="43.25456" lon="5.64172">
        <ele>361.015625</ele>
        <time>2020-06-14T07:29:29Z</time>
      </trkpt>
      <trkpt lat="43.2546" lon="5.64193">
        <ele>359.92578125</ele>
        <time>2020-06-14T07:29:34Z</time>
      </trkpt>
      <trkpt lat="43.25462" lon="5.64196">
        <ele>359.5390625</ele>
        <time>2020-06-14T07:29:35Z</time>
      </trkpt>
      <trkpt lat="43.25466" lon="5.642">
        <ele>358.8359375</ele>
        <time>2020-06-14T07:29:45Z</time>
      </trkpt>
      <trkpt lat="43.25472" lon="5.64209">
        <ele>357.671875</ele>
        <time>2020-06-14T07:29:52Z</time>
      </trkpt>
      <trkpt lat="43.25475" lon="5.64215">
        <ele>356.921875</ele>
        <time>2020-06-14T07:30:04Z</time>
      </trkpt>
      <trkpt lat="43.25475" lon="5.64221">
        <ele>356.484375</ele>
        <time>2020-06-14T07:30:29Z</time>
      </trkpt>
      <trkpt lat="43.25474" lon="5.64234">
        <ele>355.6640625</ele>
        <time>2020-06-14T07:30:35Z</time>
      </trkpt>
      <trkpt lat="43.25474" lon="5.64236">
        <ele>355.48828125</ele>
        <time>2020-06-14T07:30:36Z</time>
      </trkpt>
      <trkpt lat="43.25474" lon="5.64238">
        <ele>355.3671875</ele>
        <time>2020-06-14T07:30:37Z</time>
      </trkpt>
      <trkpt lat="43.25474" lon="5.6424">
        <ele>355.25390625</ele>
        <time>2020-06-14T07:30:38Z</time>
      </trkpt>
      <trkpt lat="43.25474" lon="5.6425">
        <ele>354.4296875</ele>
        <time>2020-06-14T07:30:53Z</time>
      </trkpt>
      <trkpt lat="43.25474" lon="5.64256">
        <ele>354.140625</ele>
        <time>2020-06-14T07:30:56Z</time>
      </trkpt>
      <trkpt lat="43.25474" lon="5.64271">
        <ele>353.07421875</ele>
        <time>2020-06-14T07:31:02Z</time>
      </trkpt>
      <trkpt lat="43.25475" lon="5.64275">
        <ele>352.671875</ele>
        <time>2020-06-14T07:31:03Z</time>
      </trkpt>
      <trkpt lat="43.25475" lon="5.64279">
        <ele>352.296875</ele>
        <time>2020-06-14T07:31:04Z</time>
      </trkpt>
      <trkpt lat="43.25476" lon="5.64284">
        <ele>351.828125</ele>
        <time>2020-06-14T07:31:05Z</time>
      </trkpt>
      <trkpt lat="43.25476" lon="5.64289">
        <ele>351.41015625</ele>
        <time>2020-06-14T07:31:06Z</time>
      </trkpt>
      <trkpt lat="43.25478" lon="5.643">
        <ele>350.43359375</ele>
        <time>2020-06-14T07:31:14Z</time>
      </trkpt>
      <trkpt lat="43.25479" lon="5.643">
        <ele>350.265625</ele>
        <time>2020-06-14T07:31:15Z</time>
      </trkpt>
      <trkpt lat="43.25481" lon="5.64301">
        <ele>349.98046875</ele>
        <time>2020-06-14T07:31:16Z</time>
      </trkpt>
      <trkpt lat="43.25483" lon="5.64301">
        <ele>349.625</ele>
        <time>2020-06-14T07:31:17Z</time>
      </trkpt>
      <trkpt lat="43.25486" lon="5.64301">
        <ele>349.234375</ele>
        <time>2020-06-14T07:31:18Z</time>
      </trkpt>
      <trkpt lat="43.2549" lon="5.64301">
        <ele>348.578125</ele>
        <time>2020-06-14T07:31:19Z</time>
      </trkpt>
      <trkpt lat="43.25495" lon="5.64301">
        <ele>347.75390625</ele>
        <time>2020-06-14T07:31:20Z</time>
      </trkpt>
      <trkpt lat="43.255" lon="5.643">
        <ele>346.921875</ele>
        <time>2020-06-14T07:31:21Z</time>
      </trkpt>
      <trkpt lat="43.25515" lon="5.64303">
        <ele>346.44921875</ele>
        <time>2020-06-14T07:31:24Z</time>
      </trkpt>
      <trkpt lat="43.25521" lon="5.64305">
        <ele>346.28125</ele>
        <time>2020-06-14T07:31:26Z</time>
      </trkpt>
      <trkpt lat="43.25523" lon="5.64305">
        <ele>346.3359375</ele>
        <time>2020-06-14T07:31:28Z</time>
      </trkpt>
      <trkpt lat="43.25524" lon="5.64309">
        <ele>345.8671875</ele>
        <time>2020-06-14T07:31:41Z</time>
      </trkpt>
      <trkpt lat="43.25524" lon="5.64311">
        <ele>345.5859375</ele>
        <time>2020-06-14T07:31:42Z</time>
      </trkpt>
      <trkpt lat="43.25528" lon="5.64325">
        <ele>343.75</ele>
        <time>2020-06-14T07:31:45Z</time>
      </trkpt>
      <trkpt lat="43.25528" lon="5.64332">
        <ele>343.0390625</ele>
        <time>2020-06-14T07:31:46Z</time>
      </trkpt>
      <trkpt lat="43.25526" lon="5.64337">
        <ele>342.4765625</ele>
        <time>2020-06-14T07:31:47Z</time>
      </trkpt>
      <trkpt lat="43.25525" lon="5.6434">
        <ele>342.13671875</ele>
        <time>2020-06-14T07:31:48Z</time>
      </trkpt>
      <trkpt lat="43.25523" lon="5.64343">
        <ele>341.8359375</ele>
        <time>2020-06-14T07:31:49Z</time>
      </trkpt>
      <trkpt lat="43.25522" lon="5.64348">
        <ele>341.3203125</ele>
        <time>2020-06-14T07:31:50Z</time>
      </trkpt>
      <trkpt lat="43.25521" lon="5.64355">
        <ele>340.53515625</ele>
        <time>2020-06-14T07:31:51Z</time>
      </trkpt>
      <trkpt lat="43.25522" lon="5.64362">
        <ele>339.7890625</ele>
        <time>2020-06-14T07:31:52Z</time>
      </trkpt>
      <trkpt lat="43.25524" lon="5.64367">
        <ele>339.23828125</ele>
        <time>2020-06-14T07:31:53Z</time>
      </trkpt>
      <trkpt lat="43.25525" lon="5.6437">
        <ele>338.87890625</ele>
        <time>2020-06-14T07:31:54Z</time>
      </trkpt>
      <trkpt lat="43.25526" lon="5.64373">
        <ele>338.578125</ele>
        <time>2020-06-14T07:31:55Z</time>
      </trkpt>
      <trkpt lat="43.25526" lon="5.64376">
        <ele>338.21484375</ele>
        <time>2020-06-14T07:31:56Z</time>
      </trkpt>
      <trkpt lat="43.25526" lon="5.6438">
        <ele>337.84765625</ele>
        <time>2020-06-14T07:31:57Z</time>
      </trkpt>
      <trkpt lat="43.25525" lon="5.6439">
        <ele>337.0859375</ele>
        <time>2020-06-14T07:31:59Z</time>
      </trkpt>
      <trkpt lat="43.25525" lon="5.64396">
        <ele>336.55859375</ele>
        <time>2020-06-14T07:32:00Z</time>
      </trkpt>
      <trkpt lat="43.25524" lon="5.64403">
        <ele>335.9765625</ele>
        <time>2020-06-14T07:32:01Z</time>
      </trkpt>
      <trkpt lat="43.25524" lon="5.6441">
        <ele>335.4296875</ele>
        <time>2020-06-14T07:32:02Z</time>
      </trkpt>
      <trkpt lat="43.25522" lon="5.64417">
        <ele>334.8828125</ele>
        <time>2020-06-14T07:32:03Z</time>
      </trkpt>
      <trkpt lat="43.2552" lon="5.64424">
        <ele>334.28515625</ele>
        <time>2020-06-14T07:32:04Z</time>
      </trkpt>
      <trkpt lat="43.25517" lon="5.64431">
        <ele>333.69921875</ele>
        <time>2020-06-14T07:32:05Z</time>
      </trkpt>
      <trkpt lat="43.25515" lon="5.64436">
        <ele>333.234375</ele>
        <time>2020-06-14T07:32:06Z</time>
      </trkpt>
      <trkpt lat="43.25513" lon="5.64439">
        <ele>332.92578125</ele>
        <time>2020-06-14T07:32:07Z</time>
      </trkpt>
      <trkpt lat="43.2551" lon="5.64446">
        <ele>332.23828125</ele>
        <time>2020-06-14T07:32:09Z</time>
      </trkpt>
      <trkpt lat="43.25511" lon="5.64468">
        <ele>330.7265625</ele>
        <time>2020-06-14T07:32:14Z</time>
      </trkpt>
      <trkpt lat="43.25513" lon="5.6447">
        <ele>330.61328125</ele>
        <time>2020-06-14T07:32:15Z</time>
      </trkpt>
      <trkpt lat="43.25519" lon="5.64475">
        <ele>330.23828125</ele>
        <time>2020-06-14T07:32:18Z</time>
      </trkpt>
      <trkpt lat="43.2552" lon="5.64478">
        <ele>330.0703125</ele>
        <time>2020-06-14T07:32:19Z</time>
      </trkpt>
      <trkpt lat="43.25522" lon="5.6448">
        <ele>329.87890625</ele>
        <time>2020-06-14T07:32:20Z</time>
      </trkpt>
      <trkpt lat="43.25525" lon="5.64482">
        <ele>329.69921875</ele>
        <time>2020-06-14T07:32:21Z</time>
      </trkpt>
      <trkpt lat="43.25527" lon="5.64484">
        <ele>329.51171875</ele>
        <time>2020-06-14T07:32:22Z</time>
      </trkpt>
      <trkpt lat="43.2553" lon="5.64486">
        <ele>329.3046875</ele>
        <time>2020-06-14T07:32:23Z</time>
      </trkpt>
      <trkpt lat="43.25542" lon="5.645">
        <ele>328.71484375</ele>
        <time>2020-06-14T07:32:28Z</time>
      </trkpt>
      <trkpt lat="43.25549" lon="5.64526">
        <ele>325.3359375</ele>
        <time>2020-06-14T07:32:33Z</time>
      </trkpt>
      <trkpt lat="43.25549" lon="5.64532">
        <ele>324.40234375</ele>
        <time>2020-06-14T07:32:34Z</time>
      </trkpt>
      <trkpt lat="43.2555" lon="5.64538">
        <ele>323.359375</ele>
        <time>2020-06-14T07:32:35Z</time>
      </trkpt>
      <trkpt lat="43.25552" lon="5.64545">
        <ele>322.23046875</ele>
        <time>2020-06-14T07:32:36Z</time>
      </trkpt>
      <trkpt lat="43.25552" lon="5.64552">
        <ele>321.3515625</ele>
        <time>2020-06-14T07:32:37Z</time>
      </trkpt>
      <trkpt lat="43.25552" lon="5.64558">
        <ele>320.46875</ele>
        <time>2020-06-14T07:32:38Z</time>
      </trkpt>
      <trkpt lat="43.25552" lon="5.64565">
        <ele>319.59765625</ele>
        <time>2020-06-14T07:32:39Z</time>
      </trkpt>
      <trkpt lat="43.25552" lon="5.64571">
        <ele>318.79296875</ele>
        <time>2020-06-14T07:32:40Z</time>
      </trkpt>
      <trkpt lat="43.25544" lon="5.64594">
        <ele>317.1171875</ele>
        <time>2020-06-14T07:32:44Z</time>
      </trkpt>
      <trkpt lat="43.25543" lon="5.64608">
        <ele>316.2734375</ele>
        <time>2020-06-14T07:32:46Z</time>
      </trkpt>
      <trkpt lat="43.25551" lon="5.64627">
        <ele>314.26953125</ele>
        <time>2020-06-14T07:32:52Z</time>
      </trkpt>
      <trkpt lat="43.25552" lon="5.64631">
        <ele>313.875</ele>
        <time>2020-06-14T07:33:13Z</time>
      </trkpt>
      <trkpt lat="43.25544" lon="5.64652">
        <ele>313.86328125</ele>
        <time>2020-06-14T07:33:17Z</time>
      </trkpt>
      <trkpt lat="43.25545" lon="5.64673">
        <ele>313.2265625</ele>
        <time>2020-06-14T07:33:20Z</time>
      </trkpt>
      <trkpt lat="43.25551" lon="5.64697">
        <ele>311.60546875</ele>
        <time>2020-06-14T07:33:24Z</time>
      </trkpt>
      <trkpt lat="43.25555" lon="5.64712">
        <ele>310.2734375</ele>
        <time>2020-06-14T07:33:26Z</time>
      </trkpt>
      <trkpt lat="43.25558" lon="5.6475">
        <ele>308.63671875</ele>
        <time>2020-06-14T07:33:31Z</time>
      </trkpt>
      <trkpt lat="43.2556" lon="5.64755">
        <ele>308.4375</ele>
        <time>2020-06-14T07:33:32Z</time>
      </trkpt>
      <trkpt lat="43.25563" lon="5.64761">
        <ele>308.2578125</ele>
        <time>2020-06-14T07:33:33Z</time>
      </trkpt>
      <trkpt lat="43.25582" lon="5.64788">
        <ele>306.0390625</ele>
        <time>2020-06-14T07:33:38Z</time>
      </trkpt>
      <trkpt lat="43.25588" lon="5.64797">
        <ele>304.921875</ele>
        <time>2020-06-14T07:33:40Z</time>
      </trkpt>
      <trkpt lat="43.25599" lon="5.6481">
        <ele>303.99609375</ele>
        <time>2020-06-14T07:33:44Z</time>
      </trkpt>
      <trkpt lat="43.256" lon="5.64812">
        <ele>303.81640625</ele>
        <time>2020-06-14T07:33:45Z</time>
      </trkpt>
      <trkpt lat="43.25601" lon="5.64813">
        <ele>303.65234375</ele>
        <time>2020-06-14T07:33:50Z</time>
      </trkpt>
      <trkpt lat="43.25601" lon="5.64816">
        <ele>303.44921875</ele>
        <time>2020-06-14T07:33:51Z</time>
      </trkpt>
      <trkpt lat="43.25602" lon="5.64819">
        <ele>303.19140625</ele>
        <time>2020-06-14T07:33:52Z</time>
      </trkpt>
      <trkpt lat="43.25602" lon="5.64823">
        <ele>302.859375</ele>
        <time>2020-06-14T07:33:53Z</time>
      </trkpt>
      <trkpt lat="43.25604" lon="5.64829">
        <ele>302.53515625</ele>
        <time>2020-06-14T07:33:54Z</time>
      </trkpt>
      <trkpt lat="43.25607" lon="5.64835">
        <ele>302.11328125</ele>
        <time>2020-06-14T07:33:55Z</time>
      </trkpt>
      <trkpt lat="43.2561" lon="5.64841">
        <ele>301.68359375</ele>
        <time>2020-06-14T07:33:56Z</time>
      </trkpt>
      <trkpt lat="43.25613" lon="5.64845">
        <ele>301.28515625</ele>
        <time>2020-06-14T07:33:57Z</time>
      </trkpt>
      <trkpt lat="43.25616" lon="5.64848">
        <ele>301.15625</ele>
        <time>2020-06-14T07:33:58Z</time>
      </trkpt>
      <trkpt lat="43.25618" lon="5.64849">
        <ele>301.1796875</ele>
        <time>2020-06-14T07:33:59Z</time>
      </trkpt>
      <trkpt lat="43.2562" lon="5.64849">
        <ele>301.2421875</ele>
        <time>2020-06-14T07:34:00Z</time>
      </trkpt>
      <trkpt lat="43.2562" lon="5.64848">
        <ele>301.30859375</ele>
        <time>2020-06-14T07:34:10Z</time>
      </trkpt>
      <trkpt lat="43.25621" lon="5.64848">
        <ele>301.3203125</ele>
        <time>2020-06-14T07:34:25Z</time>
      </trkpt>
      <trkpt lat="43.25626" lon="5.64844">
        <ele>301.77734375</ele>
        <time>2020-06-14T07:34:29Z</time>
      </trkpt>
      <trkpt lat="43.25628" lon="5.64841">
        <ele>301.98828125</ele>
        <time>2020-06-14T07:34:30Z</time>
      </trkpt>
      <trkpt lat="43.25629" lon="5.64839">
        <ele>302.17578125</ele>
        <time>2020-06-14T07:34:31Z</time>
      </trkpt>
      <trkpt lat="43.25631" lon="5.64838">
        <ele>302.3046875</ele>
        <time>2020-06-14T07:34:32Z</time>
      </trkpt>
      <trkpt lat="43.25633" lon="5.64839">
        <ele>302.359375</ele>
        <time>2020-06-14T07:34:33Z</time>
      </trkpt>
      <trkpt lat="43.25634" lon="5.6484">
        <ele>302.34375</ele>
        <time>2020-06-14T07:34:34Z</time>
      </trkpt>
      <trkpt lat="43.25636" lon="5.64843">
        <ele>302.25</ele>
        <time>2020-06-14T07:34:35Z</time>
      </trkpt>
      <trkpt lat="43.25637" lon="5.64846">
        <ele>302.13671875</ele>
        <time>2020-06-14T07:34:36Z</time>
      </trkpt>
      <trkpt lat="43.25641" lon="5.64859">
        <ele>301.390625</ele>
        <time>2020-06-14T07:34:39Z</time>
      </trkpt>
      <trkpt lat="43.25642" lon="5.64862">
        <ele>301.1484375</ele>
        <time>2020-06-14T07:34:40Z</time>
      </trkpt>
      <trkpt lat="43.25644" lon="5.64864">
        <ele>300.9765625</ele>
        <time>2020-06-14T07:34:41Z</time>
      </trkpt>
      <trkpt lat="43.25649" lon="5.64862">
        <ele>300.91796875</ele>
        <time>2020-06-14T07:34:47Z</time>
      </trkpt>
      <trkpt lat="43.25651" lon="5.64861">
        <ele>300.93359375</ele>
        <time>2020-06-14T07:34:48Z</time>
      </trkpt>
      <trkpt lat="43.25653" lon="5.6486">
        <ele>300.9140625</ele>
        <time>2020-06-14T07:34:49Z</time>
      </trkpt>
      <trkpt lat="43.25655" lon="5.6486">
        <ele>300.84765625</ele>
        <time>2020-06-14T07:34:50Z</time>
      </trkpt>
      <trkpt lat="43.25658" lon="5.64859">
        <ele>300.76953125</ele>
        <time>2020-06-14T07:34:51Z</time>
      </trkpt>
      <trkpt lat="43.2569" lon="5.64855">
        <ele>300.546875</ele>
        <time>2020-06-14T07:35:03Z</time>
      </trkpt>
      <trkpt lat="43.25717" lon="5.64851">
        <ele>298.87109375</ele>
        <time>2020-06-14T07:35:14Z</time>
      </trkpt>
      <trkpt lat="43.25757" lon="5.64833">
        <ele>297.6015625</ele>
        <time>2020-06-14T07:35:25Z</time>
      </trkpt>
      <trkpt lat="43.25783" lon="5.64821">
        <ele>297.11328125</ele>
        <time>2020-06-14T07:35:35Z</time>
      </trkpt>
      <trkpt lat="43.25783" lon="5.6482">
        <ele>297.2734375</ele>
        <time>2020-06-14T07:35:56Z</time>
      </trkpt>
      <trkpt lat="43.25782" lon="5.6482">
        <ele>297.28515625</ele>
        <time>2020-06-14T07:36:25Z</time>
      </trkpt>
      <trkpt lat="43.25784" lon="5.64821">
        <ele>296.98046875</ele>
        <time>2020-06-14T07:36:50Z</time>
      </trkpt>
      <trkpt lat="43.25792" lon="5.64818">
        <ele>296.76953125</ele>
        <time>2020-06-14T07:37:00Z</time>
      </trkpt>
      <trkpt lat="43.25809" lon="5.6481">
        <ele>296.3046875</ele>
        <time>2020-06-14T07:37:13Z</time>
      </trkpt>
      <trkpt lat="43.25851" lon="5.64782">
        <ele>295.81640625</ele>
        <time>2020-06-14T07:37:26Z</time>
      </trkpt>
      <trkpt lat="43.25882" lon="5.64771">
        <ele>295.73828125</ele>
        <time>2020-06-14T07:37:33Z</time>
      </trkpt>
      <trkpt lat="43.25886" lon="5.6477">
        <ele>295.8515625</ele>
        <time>2020-06-14T07:37:34Z</time>
      </trkpt>
      <trkpt lat="43.2589" lon="5.64767">
        <ele>296.0625</ele>
        <time>2020-06-14T07:37:35Z</time>
      </trkpt>
      <trkpt lat="43.25894" lon="5.64763">
        <ele>296.3359375</ele>
        <time>2020-06-14T07:37:36Z</time>
      </trkpt>
      <trkpt lat="43.25897" lon="5.64759">
        <ele>296.76953125</ele>
        <time>2020-06-14T07:37:37Z</time>
      </trkpt>
      <trkpt lat="43.25899" lon="5.64753">
        <ele>297.34765625</ele>
        <time>2020-06-14T07:37:38Z</time>
      </trkpt>
      <trkpt lat="43.25902" lon="5.64748">
        <ele>297.99609375</ele>
        <time>2020-06-14T07:37:39Z</time>
      </trkpt>
      <trkpt lat="43.25926" lon="5.64721">
        <ele>300.83203125</ele>
        <time>2020-06-14T07:37:49Z</time>
      </trkpt>
      <trkpt lat="43.25946" lon="5.64736">
        <ele>299.25</ele>
        <time>2020-06-14T07:37:59Z</time>
      </trkpt>
      <trkpt lat="43.25948" lon="5.64734">
        <ele>299.35546875</ele>
        <time>2020-06-14T07:38:00Z</time>
      </trkpt>
      <trkpt lat="43.25949" lon="5.64731">
        <ele>299.45703125</ele>
        <time>2020-06-14T07:38:01Z</time>
      </trkpt>
      <trkpt lat="43.2596" lon="5.647">
        <ele>301.60546875</ele>
        <time>2020-06-14T07:38:12Z</time>
      </trkpt>
      <trkpt lat="43.25959" lon="5.64652">
        <ele>304.38671875</ele>
        <time>2020-06-14T07:38:27Z</time>
      </trkpt>
      <trkpt lat="43.25957" lon="5.64649">
        <ele>304.67578125</ele>
        <time>2020-06-14T07:38:28Z</time>
      </trkpt>
      <trkpt lat="43.25948" lon="5.64614">
        <ele>307.9765625</ele>
        <time>2020-06-14T07:38:40Z</time>
      </trkpt>
      <trkpt lat="43.25941" lon="5.6458">
        <ele>311.08203125</ele>
        <time>2020-06-14T07:38:52Z</time>
      </trkpt>
      <trkpt lat="43.2594" lon="5.6454">
        <ele>314.2109375</ele>
        <time>2020-06-14T07:39:04Z</time>
      </trkpt>
      <trkpt lat="43.25935" lon="5.64507">
        <ele>316.6796875</ele>
        <time>2020-06-14T07:39:15Z</time>
      </trkpt>
      <trkpt lat="43.25935" lon="5.64504">
        <ele>316.84765625</ele>
        <time>2020-06-14T07:39:16Z</time>
      </trkpt>
      <trkpt lat="43.25929" lon="5.64469">
        <ele>318.80078125</ele>
        <time>2020-06-14T07:39:30Z</time>
      </trkpt>
      <trkpt lat="43.25928" lon="5.64463">
        <ele>319.07421875</ele>
        <time>2020-06-14T07:39:42Z</time>
      </trkpt>
      <trkpt lat="43.25927" lon="5.64463">
        <ele>319.14453125</ele>
        <time>2020-06-14T07:40:04Z</time>
      </trkpt>
      <trkpt lat="43.25917" lon="5.64446">
        <ele>320.17578125</ele>
        <time>2020-06-14T07:40:17Z</time>
      </trkpt>
      <trkpt lat="43.25891" lon="5.64403">
        <ele>322.265625</ele>
        <time>2020-06-14T07:40:31Z</time>
      </trkpt>
      <trkpt lat="43.2589" lon="5.64399">
        <ele>322.4765625</ele>
        <time>2020-06-14T07:40:32Z</time>
      </trkpt>
      <trkpt lat="43.25899" lon="5.64361">
        <ele>322.3984375</ele>
        <time>2020-06-14T07:40:44Z</time>
      </trkpt>
      <trkpt lat="43.25914" lon="5.64328">
        <ele>323.2578125</ele>
        <time>2020-06-14T07:40:56Z</time>
      </trkpt>
      <trkpt lat="43.25923" lon="5.64304">
        <ele>324.796875</ele>
        <time>2020-06-14T07:41:05Z</time>
      </trkpt>
      <trkpt lat="43.25928" lon="5.64281">
        <ele>326.0859375</ele>
        <time>2020-06-14T07:41:14Z</time>
      </trkpt>
      <trkpt lat="43.25929" lon="5.64248">
        <ele>328.17578125</ele>
        <time>2020-06-14T07:41:29Z</time>
      </trkpt>
      <trkpt lat="43.25929" lon="5.64238">
        <ele>328.69921875</ele>
        <time>2020-06-14T07:41:35Z</time>
      </trkpt>
      <trkpt lat="43.25924" lon="5.64209">
        <ele>330.39453125</ele>
        <time>2020-06-14T07:41:50Z</time>
      </trkpt>
      <trkpt lat="43.25923" lon="5.64205">
        <ele>330.61328125</ele>
        <time>2020-06-14T07:41:53Z</time>
      </trkpt>
      <trkpt lat="43.25914" lon="5.6419">
        <ele>331.671875</ele>
        <time>2020-06-14T07:42:05Z</time>
      </trkpt>
      <trkpt lat="43.25915" lon="5.64187">
        <ele>331.5390625</ele>
        <time>2020-06-14T07:42:32Z</time>
      </trkpt>
      <trkpt lat="43.25914" lon="5.64188">
        <ele>331.59765625</ele>
        <time>2020-06-14T07:42:42Z</time>
      </trkpt>
      <trkpt lat="43.25902" lon="5.64157">
        <ele>332.90625</ele>
        <time>2020-06-14T07:42:55Z</time>
      </trkpt>
      <trkpt lat="43.25876" lon="5.64123">
        <ele>335.05078125</ele>
        <time>2020-06-14T07:43:09Z</time>
      </trkpt>
      <trkpt lat="43.25861" lon="5.64111">
        <ele>335.515625</ele>
        <time>2020-06-14T07:43:15Z</time>
      </trkpt>
      <trkpt lat="43.25859" lon="5.64099">
        <ele>335.09375</ele>
        <time>2020-06-14T07:43:17Z</time>
      </trkpt>
      <trkpt lat="43.2586" lon="5.64082">
        <ele>334.39453125</ele>
        <time>2020-06-14T07:43:19Z</time>
      </trkpt>
      <trkpt lat="43.25863" lon="5.64063">
        <ele>333.32421875</ele>
        <time>2020-06-14T07:43:21Z</time>
      </trkpt>
      <trkpt lat="43.25864" lon="5.64055">
        <ele>332.7109375</ele>
        <time>2020-06-14T07:43:22Z</time>
      </trkpt>
      <trkpt lat="43.25865" lon="5.64039">
        <ele>331.53515625</ele>
        <time>2020-06-14T07:43:24Z</time>
      </trkpt>
      <trkpt lat="43.25862" lon="5.64016">
        <ele>330.02734375</ele>
        <time>2020-06-14T07:43:28Z</time>
      </trkpt>
      <trkpt lat="43.25863" lon="5.64013">
        <ele>329.89453125</ele>
        <time>2020-06-14T07:43:29Z</time>
      </trkpt>
      <trkpt lat="43.25864" lon="5.64011">
        <ele>329.7734375</ele>
        <time>2020-06-14T07:43:30Z</time>
      </trkpt>
      <trkpt lat="43.25873" lon="5.6397">
        <ele>328.4609375</ele>
        <time>2020-06-14T07:43:42Z</time>
      </trkpt>
      <trkpt lat="43.25884" lon="5.63926">
        <ele>328.453125</ele>
        <time>2020-06-14T07:43:56Z</time>
      </trkpt>
      <trkpt lat="43.25896" lon="5.63857">
        <ele>330.2421875</ele>
        <time>2020-06-14T07:44:16Z</time>
      </trkpt>
      <trkpt lat="43.25898" lon="5.63788">
        <ele>329.33203125</ele>
        <time>2020-06-14T07:44:33Z</time>
      </trkpt>
      <trkpt lat="43.25896" lon="5.6373">
        <ele>328.79296875</ele>
        <time>2020-06-14T07:44:45Z</time>
      </trkpt>
      <trkpt lat="43.25902" lon="5.63658">
        <ele>329.93359375</ele>
        <time>2020-06-14T07:45:00Z</time>
      </trkpt>
      <trkpt lat="43.25914" lon="5.63635">
        <ele>330.79296875</ele>
        <time>2020-06-14T07:45:10Z</time>
      </trkpt>
      <trkpt lat="43.25916" lon="5.63634">
        <ele>330.796875</ele>
        <time>2020-06-14T07:45:11Z</time>
      </trkpt>
      <trkpt lat="43.25945" lon="5.63627">
        <ele>331.0625</ele>
        <time>2020-06-14T07:45:25Z</time>
      </trkpt>
      <trkpt lat="43.25979" lon="5.63609">
        <ele>330.078125</ele>
        <time>2020-06-14T07:45:41Z</time>
      </trkpt>
      <trkpt lat="43.25986" lon="5.63564">
        <ele>329</ele>
        <time>2020-06-14T07:45:55Z</time>
      </trkpt>
      <trkpt lat="43.25988" lon="5.63514">
        <ele>328.90234375</ele>
        <time>2020-06-14T07:46:06Z</time>
      </trkpt>
      <trkpt lat="43.25985" lon="5.63468">
        <ele>330.47265625</ele>
        <time>2020-06-14T07:46:18Z</time>
      </trkpt>
      <trkpt lat="43.25989" lon="5.63442">
        <ele>330.1640625</ele>
        <time>2020-06-14T07:46:29Z</time>
      </trkpt>
      <trkpt lat="43.25988" lon="5.6344">
        <ele>330.51953125</ele>
        <time>2020-06-14T07:46:30Z</time>
      </trkpt>
      <trkpt lat="43.25987" lon="5.63438">
        <ele>330.953125</ele>
        <time>2020-06-14T07:46:31Z</time>
      </trkpt>
      <trkpt lat="43.2598" lon="5.6341">
        <ele>334.3984375</ele>
        <time>2020-06-14T07:46:45Z</time>
      </trkpt>
      <trkpt lat="43.2598" lon="5.63404">
        <ele>334.73046875</ele>
        <time>2020-06-14T07:46:55Z</time>
      </trkpt>
      <trkpt lat="43.2598" lon="5.634">
        <ele>334.90625</ele>
        <time>2020-06-14T07:46:57Z</time>
      </trkpt>
      <trkpt lat="43.2598" lon="5.63399">
        <ele>334.984375</ele>
        <time>2020-06-14T07:46:58Z</time>
      </trkpt>
      <trkpt lat="43.2598" lon="5.63397">
        <ele>335.1484375</ele>
        <time>2020-06-14T07:46:59Z</time>
      </trkpt>
      <trkpt lat="43.25983" lon="5.63363">
        <ele>334.71484375</ele>
        <time>2020-06-14T07:47:13Z</time>
      </trkpt>
      <trkpt lat="43.25985" lon="5.63361">
        <ele>334.0625</ele>
        <time>2020-06-14T07:47:14Z</time>
      </trkpt>
      <trkpt lat="43.25988" lon="5.63361">
        <ele>333.19140625</ele>
        <time>2020-06-14T07:47:15Z</time>
      </trkpt>
      <trkpt lat="43.25991" lon="5.63362">
        <ele>332.23828125</ele>
        <time>2020-06-14T07:47:16Z</time>
      </trkpt>
      <trkpt lat="43.25994" lon="5.63362">
        <ele>331.1171875</ele>
        <time>2020-06-14T07:47:17Z</time>
      </trkpt>
      <trkpt lat="43.25998" lon="5.63363">
        <ele>329.90625</ele>
        <time>2020-06-14T07:47:18Z</time>
      </trkpt>
      <trkpt lat="43.26002" lon="5.63361">
        <ele>328.8359375</ele>
        <time>2020-06-14T07:47:19Z</time>
      </trkpt>
      <trkpt lat="43.26004" lon="5.63358">
        <ele>327.86328125</ele>
        <time>2020-06-14T07:47:20Z</time>
      </trkpt>
      <trkpt lat="43.26006" lon="5.63353">
        <ele>326.98046875</ele>
        <time>2020-06-14T07:47:21Z</time>
      </trkpt>
      <trkpt lat="43.26007" lon="5.63348">
        <ele>326.42578125</ele>
        <time>2020-06-14T07:47:22Z</time>
      </trkpt>
      <trkpt lat="43.26008" lon="5.63343">
        <ele>325.99609375</ele>
        <time>2020-06-14T07:47:23Z</time>
      </trkpt>
      <trkpt lat="43.2601" lon="5.63327">
        <ele>324.76953125</ele>
        <time>2020-06-14T07:47:26Z</time>
      </trkpt>
      <trkpt lat="43.26013" lon="5.63312">
        <ele>322.921875</ele>
        <time>2020-06-14T07:47:29Z</time>
      </trkpt>
      <trkpt lat="43.26014" lon="5.63306">
        <ele>322.12109375</ele>
        <time>2020-06-14T07:47:30Z</time>
      </trkpt>
      <trkpt lat="43.26017" lon="5.63293">
        <ele>320.4453125</ele>
        <time>2020-06-14T07:47:32Z</time>
      </trkpt>
      <trkpt lat="43.26017" lon="5.63287">
        <ele>319.94921875</ele>
        <time>2020-06-14T07:47:33Z</time>
      </trkpt>
      <trkpt lat="43.26016" lon="5.63267">
        <ele>319.38671875</ele>
        <time>2020-06-14T07:47:37Z</time>
      </trkpt>
      <trkpt lat="43.26015" lon="5.63265">
        <ele>319.5859375</ele>
        <time>2020-06-14T07:47:38Z</time>
      </trkpt>
      <trkpt lat="43.26014" lon="5.63261">
        <ele>319.7421875</ele>
        <time>2020-06-14T07:47:46Z</time>
      </trkpt>
      <trkpt lat="43.26015" lon="5.63258">
        <ele>319.109375</ele>
        <time>2020-06-14T07:47:56Z</time>
      </trkpt>
      <trkpt lat="43.26016" lon="5.63255">
        <ele>318.765625</ele>
        <time>2020-06-14T07:47:57Z</time>
      </trkpt>
      <trkpt lat="43.26018" lon="5.63216">
        <ele>316.25</ele>
        <time>2020-06-14T07:48:03Z</time>
      </trkpt>
      <trkpt lat="43.26018" lon="5.63209">
        <ele>315.734375</ele>
        <time>2020-06-14T07:48:04Z</time>
      </trkpt>
      <trkpt lat="43.26019" lon="5.63188">
        <ele>314.51953125</ele>
        <time>2020-06-14T07:48:07Z</time>
      </trkpt>
      <trkpt lat="43.26019" lon="5.63182">
        <ele>314.2421875</ele>
        <time>2020-06-14T07:48:08Z</time>
      </trkpt>
      <trkpt lat="43.26019" lon="5.63169">
        <ele>313.5625</ele>
        <time>2020-06-14T07:48:10Z</time>
      </trkpt>
      <trkpt lat="43.26019" lon="5.63162">
        <ele>313.203125</ele>
        <time>2020-06-14T07:48:11Z</time>
      </trkpt>
      <trkpt lat="43.2602" lon="5.63155">
        <ele>312.73046875</ele>
        <time>2020-06-14T07:48:12Z</time>
      </trkpt>
      <trkpt lat="43.2602" lon="5.63148">
        <ele>312.14453125</ele>
        <time>2020-06-14T07:48:13Z</time>
      </trkpt>
      <trkpt lat="43.2602" lon="5.63141">
        <ele>311.90234375</ele>
        <time>2020-06-14T07:48:14Z</time>
      </trkpt>
      <trkpt lat="43.26019" lon="5.63135">
        <ele>311.99609375</ele>
        <time>2020-06-14T07:48:15Z</time>
      </trkpt>
      <trkpt lat="43.26018" lon="5.63127">
        <ele>311.99609375</ele>
        <time>2020-06-14T07:48:16Z</time>
      </trkpt>
      <trkpt lat="43.26017" lon="5.6312">
        <ele>311.49609375</ele>
        <time>2020-06-14T07:48:17Z</time>
      </trkpt>
      <trkpt lat="43.26016" lon="5.63112">
        <ele>311.15625</ele>
        <time>2020-06-14T07:48:18Z</time>
      </trkpt>
      <trkpt lat="43.26014" lon="5.63104">
        <ele>311.296875</ele>
        <time>2020-06-14T07:48:19Z</time>
      </trkpt>
      <trkpt lat="43.26012" lon="5.63097">
        <ele>311.39453125</ele>
        <time>2020-06-14T07:48:20Z</time>
      </trkpt>
      <trkpt lat="43.2601" lon="5.6309">
        <ele>311.171875</ele>
        <time>2020-06-14T07:48:21Z</time>
      </trkpt>
      <trkpt lat="43.26009" lon="5.63084">
        <ele>310.7734375</ele>
        <time>2020-06-14T07:48:22Z</time>
      </trkpt>
      <trkpt lat="43.26008" lon="5.63077">
        <ele>310.43359375</ele>
        <time>2020-06-14T07:48:23Z</time>
      </trkpt>
      <trkpt lat="43.26006" lon="5.63071">
        <ele>310.15234375</ele>
        <time>2020-06-14T07:48:24Z</time>
      </trkpt>
      <trkpt lat="43.26005" lon="5.63064">
        <ele>309.6171875</ele>
        <time>2020-06-14T07:48:25Z</time>
      </trkpt>
      <trkpt lat="43.26004" lon="5.63056">
        <ele>309.01171875</ele>
        <time>2020-06-14T07:48:26Z</time>
      </trkpt>
      <trkpt lat="43.26001" lon="5.6304">
        <ele>308.19140625</ele>
        <time>2020-06-14T07:48:28Z</time>
      </trkpt>
      <trkpt lat="43.25993" lon="5.62991">
        <ele>306.4296875</ele>
        <time>2020-06-14T07:48:34Z</time>
      </trkpt>
      <trkpt lat="43.25991" lon="5.62984">
        <ele>306.43359375</ele>
        <time>2020-06-14T07:48:35Z</time>
      </trkpt>
      <trkpt lat="43.25989" lon="5.62977">
        <ele>306.3359375</ele>
        <time>2020-06-14T07:48:36Z</time>
      </trkpt>
      <trkpt lat="43.25988" lon="5.6297">
        <ele>305.8984375</ele>
        <time>2020-06-14T07:48:37Z</time>
      </trkpt>
      <trkpt lat="43.25987" lon="5.62962">
        <ele>305.41015625</ele>
        <time>2020-06-14T07:48:38Z</time>
      </trkpt>
      <trkpt lat="43.25986" lon="5.62954">
        <ele>305.05859375</ele>
        <time>2020-06-14T07:48:39Z</time>
      </trkpt>
      <trkpt lat="43.25984" lon="5.62946">
        <ele>304.5859375</ele>
        <time>2020-06-14T07:48:40Z</time>
      </trkpt>
      <trkpt lat="43.25983" lon="5.62937">
        <ele>304.046875</ele>
        <time>2020-06-14T07:48:41Z</time>
      </trkpt>
      <trkpt lat="43.25982" lon="5.62919">
        <ele>302.79296875</ele>
        <time>2020-06-14T07:48:43Z</time>
      </trkpt>
      <trkpt lat="43.25982" lon="5.62911">
        <ele>302.0390625</ele>
        <time>2020-06-14T07:48:44Z</time>
      </trkpt>
      <trkpt lat="43.25981" lon="5.62896">
        <ele>300.625</ele>
        <time>2020-06-14T07:48:46Z</time>
      </trkpt>
      <trkpt lat="43.2598" lon="5.62888">
        <ele>300.16796875</ele>
        <time>2020-06-14T07:48:47Z</time>
      </trkpt>
      <trkpt lat="43.25978" lon="5.62863">
        <ele>298.19921875</ele>
        <time>2020-06-14T07:48:50Z</time>
      </trkpt>
      <trkpt lat="43.25977" lon="5.62854">
        <ele>297.89453125</ele>
        <time>2020-06-14T07:48:51Z</time>
      </trkpt>
      <trkpt lat="43.25975" lon="5.62846">
        <ele>297.73046875</ele>
        <time>2020-06-14T07:48:52Z</time>
      </trkpt>
      <trkpt lat="43.25973" lon="5.6284">
        <ele>297.53515625</ele>
        <time>2020-06-14T07:48:53Z</time>
      </trkpt>
      <trkpt lat="43.25972" lon="5.62834">
        <ele>297.1328125</ele>
        <time>2020-06-14T07:48:54Z</time>
      </trkpt>
      <trkpt lat="43.25972" lon="5.62826">
        <ele>296.44140625</ele>
        <time>2020-06-14T07:48:55Z</time>
      </trkpt>
      <trkpt lat="43.25973" lon="5.62818">
        <ele>295.35546875</ele>
        <time>2020-06-14T07:48:56Z</time>
      </trkpt>
      <trkpt lat="43.25976" lon="5.62786">
        <ele>291.9375</ele>
        <time>2020-06-14T07:49:00Z</time>
      </trkpt>
      <trkpt lat="43.25975" lon="5.62752">
        <ele>289.91015625</ele>
        <time>2020-06-14T07:49:04Z</time>
      </trkpt>
      <trkpt lat="43.25975" lon="5.62744">
        <ele>289.4453125</ele>
        <time>2020-06-14T07:49:05Z</time>
      </trkpt>
      <trkpt lat="43.25974" lon="5.62737">
        <ele>289.28125</ele>
        <time>2020-06-14T07:49:06Z</time>
      </trkpt>
      <trkpt lat="43.25969" lon="5.62654">
        <ele>286.92578125</ele>
        <time>2020-06-14T07:49:16Z</time>
      </trkpt>
      <trkpt lat="43.2597" lon="5.62638">
        <ele>285.89453125</ele>
        <time>2020-06-14T07:49:18Z</time>
      </trkpt>
      <trkpt lat="43.25971" lon="5.62631">
        <ele>285.26171875</ele>
        <time>2020-06-14T07:49:19Z</time>
      </trkpt>
      <trkpt lat="43.25972" lon="5.6262">
        <ele>284.4453125</ele>
        <time>2020-06-14T07:49:22Z</time>
      </trkpt>
      <trkpt lat="43.25977" lon="5.62598">
        <ele>281.578125</ele>
        <time>2020-06-14T07:49:53Z</time>
      </trkpt>
      <trkpt lat="43.2598" lon="5.62591">
        <ele>280.98828125</ele>
        <time>2020-06-14T07:50:02Z</time>
      </trkpt>
      <trkpt lat="43.25984" lon="5.62573">
        <ele>280.1328125</ele>
        <time>2020-06-14T07:50:06Z</time>
      </trkpt>
      <trkpt lat="43.25985" lon="5.62567">
        <ele>279.86328125</ele>
        <time>2020-06-14T07:50:07Z</time>
      </trkpt>
      <trkpt lat="43.25987" lon="5.6256">
        <ele>279.51953125</ele>
        <time>2020-06-14T07:50:08Z</time>
      </trkpt>
      <trkpt lat="43.25988" lon="5.62553">
        <ele>279.21875</ele>
        <time>2020-06-14T07:50:09Z</time>
      </trkpt>
      <trkpt lat="43.25989" lon="5.62546">
        <ele>279.01953125</ele>
        <time>2020-06-14T07:50:10Z</time>
      </trkpt>
      <trkpt lat="43.2599" lon="5.62538">
        <ele>278.8515625</ele>
        <time>2020-06-14T07:50:11Z</time>
      </trkpt>
      <trkpt lat="43.25992" lon="5.62467">
        <ele>277.45703125</ele>
        <time>2020-06-14T07:50:22Z</time>
      </trkpt>
      <trkpt lat="43.25995" lon="5.62417">
        <ele>275.59375</ele>
        <time>2020-06-14T07:50:29Z</time>
      </trkpt>
      <trkpt lat="43.25995" lon="5.6241">
        <ele>275.40234375</ele>
        <time>2020-06-14T07:50:30Z</time>
      </trkpt>
      <trkpt lat="43.25996" lon="5.62403">
        <ele>275.1875</ele>
        <time>2020-06-14T07:50:31Z</time>
      </trkpt>
      <trkpt lat="43.25996" lon="5.62371">
        <ele>274.234375</ele>
        <time>2020-06-14T07:50:35Z</time>
      </trkpt>
      <trkpt lat="43.25995" lon="5.62349">
        <ele>273.8828125</ele>
        <time>2020-06-14T07:50:38Z</time>
      </trkpt>
      <trkpt lat="43.25996" lon="5.62336">
        <ele>273.3125</ele>
        <time>2020-06-14T07:50:40Z</time>
      </trkpt>
      <trkpt lat="43.25996" lon="5.62328">
        <ele>272.9609375</ele>
        <time>2020-06-14T07:50:41Z</time>
      </trkpt>
      <trkpt lat="43.25996" lon="5.62321">
        <ele>272.8203125</ele>
        <time>2020-06-14T07:50:42Z</time>
      </trkpt>
      <trkpt lat="43.25995" lon="5.62313">
        <ele>272.94140625</ele>
        <time>2020-06-14T07:50:43Z</time>
      </trkpt>
      <trkpt lat="43.25995" lon="5.62306">
        <ele>273.15625</ele>
        <time>2020-06-14T07:50:44Z</time>
      </trkpt>
      <trkpt lat="43.25993" lon="5.62291">
        <ele>273.3828125</ele>
        <time>2020-06-14T07:50:46Z</time>
      </trkpt>
      <trkpt lat="43.2599" lon="5.62263">
        <ele>273.1953125</ele>
        <time>2020-06-14T07:50:50Z</time>
      </trkpt>
      <trkpt lat="43.25986" lon="5.6223">
        <ele>273.53515625</ele>
        <time>2020-06-14T07:50:54Z</time>
      </trkpt>
      <trkpt lat="43.2598" lon="5.62169">
        <ele>273.00390625</ele>
        <time>2020-06-14T07:51:03Z</time>
      </trkpt>
      <trkpt lat="43.25979" lon="5.62161">
        <ele>273.2421875</ele>
        <time>2020-06-14T07:51:04Z</time>
      </trkpt>
      <trkpt lat="43.25965" lon="5.62096">
        <ele>274.58984375</ele>
        <time>2020-06-14T07:51:16Z</time>
      </trkpt>
      <trkpt lat="43.25951" lon="5.62046">
        <ele>275.234375</ele>
        <time>2020-06-14T07:51:26Z</time>
      </trkpt>
      <trkpt lat="43.25935" lon="5.61995">
        <ele>274.8671875</ele>
        <time>2020-06-14T07:51:36Z</time>
      </trkpt>
      <trkpt lat="43.25913" lon="5.61937">
        <ele>276.9375</ele>
        <time>2020-06-14T07:51:48Z</time>
      </trkpt>
      <trkpt lat="43.25904" lon="5.61911">
        <ele>276.64453125</ele>
        <time>2020-06-14T07:51:54Z</time>
      </trkpt>
      <trkpt lat="43.25889" lon="5.61873">
        <ele>277.53515625</ele>
        <time>2020-06-14T07:52:05Z</time>
      </trkpt>
      <trkpt lat="43.25879" lon="5.61853">
        <ele>279.1796875</ele>
        <time>2020-06-14T07:52:11Z</time>
      </trkpt>
      <trkpt lat="43.25867" lon="5.61849">
        <ele>282.85546875</ele>
        <time>2020-06-14T07:52:22Z</time>
      </trkpt>
      <trkpt lat="43.25866" lon="5.61845">
        <ele>282.828125</ele>
        <time>2020-06-14T07:52:27Z</time>
      </trkpt>
      <trkpt lat="43.25865" lon="5.61843">
        <ele>282.859375</ele>
        <time>2020-06-14T07:52:28Z</time>
      </trkpt>
      <trkpt lat="43.25863" lon="5.6184">
        <ele>282.98046875</ele>
        <time>2020-06-14T07:52:29Z</time>
      </trkpt>
      <trkpt lat="43.25862" lon="5.61836">
        <ele>283.01171875</ele>
        <time>2020-06-14T07:52:30Z</time>
      </trkpt>
      <trkpt lat="43.25861" lon="5.61831">
        <ele>282.9453125</ele>
        <time>2020-06-14T07:52:31Z</time>
      </trkpt>
      <trkpt lat="43.25849" lon="5.61787">
        <ele>281.4609375</ele>
        <time>2020-06-14T07:52:42Z</time>
      </trkpt>
      <trkpt lat="43.25834" lon="5.61734">
        <ele>279.07421875</ele>
        <time>2020-06-14T07:52:53Z</time>
      </trkpt>
      <trkpt lat="43.25833" lon="5.61728">
        <ele>278.703125</ele>
        <time>2020-06-14T07:52:54Z</time>
      </trkpt>
      <trkpt lat="43.25831" lon="5.61723">
        <ele>278.66796875</ele>
        <time>2020-06-14T07:52:55Z</time>
      </trkpt>
      <trkpt lat="43.25818" lon="5.61694">
        <ele>278.8828125</ele>
        <time>2020-06-14T07:53:03Z</time>
      </trkpt>
      <trkpt lat="43.25815" lon="5.61686">
        <ele>278.33203125</ele>
        <time>2020-06-14T07:53:07Z</time>
      </trkpt>
      <trkpt lat="43.25815" lon="5.61682">
        <ele>278.1640625</ele>
        <time>2020-06-14T07:53:08Z</time>
      </trkpt>
      <trkpt lat="43.25814" lon="5.6168">
        <ele>278.09765625</ele>
        <time>2020-06-14T07:53:09Z</time>
      </trkpt>
      <trkpt lat="43.25813" lon="5.61676">
        <ele>278.09375</ele>
        <time>2020-06-14T07:53:10Z</time>
      </trkpt>
      <trkpt lat="43.25811" lon="5.61673">
        <ele>278.18359375</ele>
        <time>2020-06-14T07:53:11Z</time>
      </trkpt>
      <trkpt lat="43.25791" lon="5.61609">
        <ele>276.51953125</ele>
        <time>2020-06-14T07:53:23Z</time>
      </trkpt>
      <trkpt lat="43.2579" lon="5.61602">
        <ele>276.15234375</ele>
        <time>2020-06-14T07:53:24Z</time>
      </trkpt>
      <trkpt lat="43.25788" lon="5.61595">
        <ele>275.76171875</ele>
        <time>2020-06-14T07:53:25Z</time>
      </trkpt>
      <trkpt lat="43.25774" lon="5.6155">
        <ele>274.8515625</ele>
        <time>2020-06-14T07:53:33Z</time>
      </trkpt>
      <trkpt lat="43.25753" lon="5.61489">
        <ele>273.765625</ele>
        <time>2020-06-14T07:53:44Z</time>
      </trkpt>
      <trkpt lat="43.25744" lon="5.61459">
        <ele>272.45703125</ele>
        <time>2020-06-14T07:53:49Z</time>
      </trkpt>
      <trkpt lat="43.25743" lon="5.61453">
        <ele>271.99609375</ele>
        <time>2020-06-14T07:53:50Z</time>
      </trkpt>
      <trkpt lat="43.25741" lon="5.61441">
        <ele>271.18359375</ele>
        <time>2020-06-14T07:53:52Z</time>
      </trkpt>
      <trkpt lat="43.25738" lon="5.61429">
        <ele>270.67578125</ele>
        <time>2020-06-14T07:53:54Z</time>
      </trkpt>
      <trkpt lat="43.25736" lon="5.61422">
        <ele>270.43359375</ele>
        <time>2020-06-14T07:53:55Z</time>
      </trkpt>
      <trkpt lat="43.25735" lon="5.61416">
        <ele>270.140625</ele>
        <time>2020-06-14T07:53:56Z</time>
      </trkpt>
      <trkpt lat="43.25733" lon="5.61409">
        <ele>269.703125</ele>
        <time>2020-06-14T07:53:57Z</time>
      </trkpt>
      <trkpt lat="43.25732" lon="5.61402">
        <ele>269.4609375</ele>
        <time>2020-06-14T07:53:58Z</time>
      </trkpt>
      <trkpt lat="43.25727" lon="5.61378">
        <ele>268.609375</ele>
        <time>2020-06-14T07:54:05Z</time>
      </trkpt>
      <trkpt lat="43.25726" lon="5.61371">
        <ele>268.2421875</ele>
        <time>2020-06-14T07:54:08Z</time>
      </trkpt>
      <trkpt lat="43.25725" lon="5.61368">
        <ele>268.13671875</ele>
        <time>2020-06-14T07:54:09Z</time>
      </trkpt>
      <trkpt lat="43.25724" lon="5.61365">
        <ele>268.18359375</ele>
        <time>2020-06-14T07:54:10Z</time>
      </trkpt>
      <trkpt lat="43.25709" lon="5.61322">
        <ele>268.390625</ele>
        <time>2020-06-14T07:54:22Z</time>
      </trkpt>
      <trkpt lat="43.25699" lon="5.61301">
        <ele>268.97265625</ele>
        <time>2020-06-14T07:54:31Z</time>
      </trkpt>
      <trkpt lat="43.25698" lon="5.61299">
        <ele>269.0859375</ele>
        <time>2020-06-14T07:54:32Z</time>
      </trkpt>
      <trkpt lat="43.25694" lon="5.61285">
        <ele>269.515625</ele>
        <time>2020-06-14T07:54:44Z</time>
      </trkpt>
      <trkpt lat="43.25695" lon="5.61276">
        <ele>269.03125</ele>
        <time>2020-06-14T07:55:03Z</time>
      </trkpt>
      <trkpt lat="43.25695" lon="5.61268">
        <ele>268.55859375</ele>
        <time>2020-06-14T07:55:15Z</time>
      </trkpt>
      <trkpt lat="43.25696" lon="5.61267">
        <ele>268.34375</ele>
        <time>2020-06-14T07:55:16Z</time>
      </trkpt>
      <trkpt lat="43.25696" lon="5.61265">
        <ele>268.203125</ele>
        <time>2020-06-14T07:55:17Z</time>
      </trkpt>
      <trkpt lat="43.2569" lon="5.61227">
        <ele>267.5390625</ele>
        <time>2020-06-14T07:55:26Z</time>
      </trkpt>
      <trkpt lat="43.25677" lon="5.61184">
        <ele>268.1953125</ele>
        <time>2020-06-14T07:55:37Z</time>
      </trkpt>
      <trkpt lat="43.25677" lon="5.61179">
        <ele>267.6640625</ele>
        <time>2020-06-14T07:55:38Z</time>
      </trkpt>
      <trkpt lat="43.2568" lon="5.61164">
        <ele>266.1328125</ele>
        <time>2020-06-14T07:55:40Z</time>
      </trkpt>
      <trkpt lat="43.25686" lon="5.61133">
        <ele>263.66015625</ele>
        <time>2020-06-14T07:55:44Z</time>
      </trkpt>
      <trkpt lat="43.25686" lon="5.61126">
        <ele>263.37890625</ele>
        <time>2020-06-14T07:55:45Z</time>
      </trkpt>
      <trkpt lat="43.25685" lon="5.61121">
        <ele>263.19140625</ele>
        <time>2020-06-14T07:55:46Z</time>
      </trkpt>
      <trkpt lat="43.25685" lon="5.61113">
        <ele>262.83203125</ele>
        <time>2020-06-14T07:55:47Z</time>
      </trkpt>
      <trkpt lat="43.25685" lon="5.61097">
        <ele>261.953125</ele>
        <time>2020-06-14T07:55:49Z</time>
      </trkpt>
      <trkpt lat="43.25684" lon="5.61088">
        <ele>261.64453125</ele>
        <time>2020-06-14T07:55:50Z</time>
      </trkpt>
      <trkpt lat="43.25683" lon="5.61079">
        <ele>261.38671875</ele>
        <time>2020-06-14T07:55:51Z</time>
      </trkpt>
      <trkpt lat="43.25681" lon="5.61071">
        <ele>261.09765625</ele>
        <time>2020-06-14T07:55:52Z</time>
      </trkpt>
      <trkpt lat="43.2568" lon="5.61063">
        <ele>260.75390625</ele>
        <time>2020-06-14T07:55:53Z</time>
      </trkpt>
      <trkpt lat="43.25678" lon="5.61056">
        <ele>260.44921875</ele>
        <time>2020-06-14T07:55:54Z</time>
      </trkpt>
      <trkpt lat="43.25677" lon="5.61049">
        <ele>260.10546875</ele>
        <time>2020-06-14T07:55:55Z</time>
      </trkpt>
      <trkpt lat="43.25676" lon="5.61041">
        <ele>260.00390625</ele>
        <time>2020-06-14T07:55:56Z</time>
      </trkpt>
      <trkpt lat="43.25674" lon="5.61034">
        <ele>259.98046875</ele>
        <time>2020-06-14T07:55:57Z</time>
      </trkpt>
      <trkpt lat="43.25673" lon="5.61027">
        <ele>259.90625</ele>
        <time>2020-06-14T07:55:58Z</time>
      </trkpt>
      <trkpt lat="43.25671" lon="5.6101">
        <ele>259.5703125</ele>
        <time>2020-06-14T07:56:00Z</time>
      </trkpt>
      <trkpt lat="43.25669" lon="5.61002">
        <ele>259.63671875</ele>
        <time>2020-06-14T07:56:01Z</time>
      </trkpt>
      <trkpt lat="43.25664" lon="5.60981">
        <ele>260.22265625</ele>
        <time>2020-06-14T07:56:04Z</time>
      </trkpt>
      <trkpt lat="43.25662" lon="5.60965">
        <ele>259.984375</ele>
        <time>2020-06-14T07:56:06Z</time>
      </trkpt>
      <trkpt lat="43.25656" lon="5.60907">
        <ele>259.5078125</ele>
        <time>2020-06-14T07:56:15Z</time>
      </trkpt>
      <trkpt lat="43.25668" lon="5.60881">
        <ele>256.48828125</ele>
        <time>2020-06-14T07:56:36Z</time>
      </trkpt>
      <trkpt lat="43.25669" lon="5.60873">
        <ele>255.86328125</ele>
        <time>2020-06-14T07:57:04Z</time>
      </trkpt>
      <trkpt lat="43.25663" lon="5.60855">
        <ele>256.85546875</ele>
        <time>2020-06-14T07:57:15Z</time>
      </trkpt>
      <trkpt lat="43.25662" lon="5.60838">
        <ele>256.85546875</ele>
        <time>2020-06-14T07:57:23Z</time>
      </trkpt>
      <trkpt lat="43.25662" lon="5.60835">
        <ele>256.78125</ele>
        <time>2020-06-14T07:57:24Z</time>
      </trkpt>
      <trkpt lat="43.25662" lon="5.60833">
        <ele>256.76953125</ele>
        <time>2020-06-14T07:57:25Z</time>
      </trkpt>
      <trkpt lat="43.2566" lon="5.60794">
        <ele>256.6875</ele>
        <time>2020-06-14T07:57:36Z</time>
      </trkpt>
      <trkpt lat="43.25651" lon="5.60741">
        <ele>256.6640625</ele>
        <time>2020-06-14T07:57:45Z</time>
      </trkpt>
      <trkpt lat="43.25649" lon="5.60734">
        <ele>256.79296875</ele>
        <time>2020-06-14T07:57:46Z</time>
      </trkpt>
      <trkpt lat="43.25647" lon="5.60728">
        <ele>256.89453125</ele>
        <time>2020-06-14T07:57:47Z</time>
      </trkpt>
      <trkpt lat="43.25645" lon="5.60721">
        <ele>256.91796875</ele>
        <time>2020-06-14T07:57:48Z</time>
      </trkpt>
      <trkpt lat="43.25644" lon="5.60715">
        <ele>256.890625</ele>
        <time>2020-06-14T07:57:49Z</time>
      </trkpt>
      <trkpt lat="43.25624" lon="5.60653">
        <ele>256.55078125</ele>
        <time>2020-06-14T07:58:00Z</time>
      </trkpt>
      <trkpt lat="43.25612" lon="5.60628">
        <ele>255.50390625</ele>
        <time>2020-06-14T07:58:04Z</time>
      </trkpt>
      <trkpt lat="43.25611" lon="5.60623">
        <ele>255.5546875</ele>
        <time>2020-06-14T07:58:05Z</time>
      </trkpt>
      <trkpt lat="43.2561" lon="5.60615">
        <ele>255.37890625</ele>
        <time>2020-06-14T07:58:06Z</time>
      </trkpt>
      <trkpt lat="43.25609" lon="5.60607">
        <ele>255.1796875</ele>
        <time>2020-06-14T07:58:07Z</time>
      </trkpt>
      <trkpt lat="43.25608" lon="5.60599">
        <ele>255.05859375</ele>
        <time>2020-06-14T07:58:08Z</time>
      </trkpt>
      <trkpt lat="43.25604" lon="5.60576">
        <ele>254.58984375</ele>
        <time>2020-06-14T07:58:11Z</time>
      </trkpt>
      <trkpt lat="43.25604" lon="5.60569">
        <ele>254.5859375</ele>
        <time>2020-06-14T07:58:12Z</time>
      </trkpt>
      <trkpt lat="43.25607" lon="5.60553">
        <ele>254.453125</ele>
        <time>2020-06-14T07:58:14Z</time>
      </trkpt>
      <trkpt lat="43.25608" lon="5.60544">
        <ele>254.4609375</ele>
        <time>2020-06-14T07:58:15Z</time>
      </trkpt>
      <trkpt lat="43.25608" lon="5.60535">
        <ele>254.38671875</ele>
        <time>2020-06-14T07:58:16Z</time>
      </trkpt>
      <trkpt lat="43.25607" lon="5.60526">
        <ele>254.31640625</ele>
        <time>2020-06-14T07:58:17Z</time>
      </trkpt>
      <trkpt lat="43.25607" lon="5.60517">
        <ele>254.3203125</ele>
        <time>2020-06-14T07:58:18Z</time>
      </trkpt>
      <trkpt lat="43.25607" lon="5.60509">
        <ele>254.5546875</ele>
        <time>2020-06-14T07:58:19Z</time>
      </trkpt>
      <trkpt lat="43.25606" lon="5.60501">
        <ele>254.76953125</ele>
        <time>2020-06-14T07:58:20Z</time>
      </trkpt>
      <trkpt lat="43.25607" lon="5.60492">
        <ele>254.984375</ele>
        <time>2020-06-14T07:58:21Z</time>
      </trkpt>
      <trkpt lat="43.25606" lon="5.60484">
        <ele>254.91796875</ele>
        <time>2020-06-14T07:58:22Z</time>
      </trkpt>
      <trkpt lat="43.25605" lon="5.60476">
        <ele>254.8046875</ele>
        <time>2020-06-14T07:58:23Z</time>
      </trkpt>
      <trkpt lat="43.25603" lon="5.60468">
        <ele>254.66015625</ele>
        <time>2020-06-14T07:58:24Z</time>
      </trkpt>
      <trkpt lat="43.25601" lon="5.6046">
        <ele>254.5234375</ele>
        <time>2020-06-14T07:58:25Z</time>
      </trkpt>
      <trkpt lat="43.25599" lon="5.60453">
        <ele>254.43359375</ele>
        <time>2020-06-14T07:58:26Z</time>
      </trkpt>
      <trkpt lat="43.25596" lon="5.60446">
        <ele>254.328125</ele>
        <time>2020-06-14T07:58:27Z</time>
      </trkpt>
      <trkpt lat="43.25593" lon="5.6044">
        <ele>254.2265625</ele>
        <time>2020-06-14T07:58:28Z</time>
      </trkpt>
      <trkpt lat="43.25591" lon="5.60434">
        <ele>254.09765625</ele>
        <time>2020-06-14T07:58:29Z</time>
      </trkpt>
      <trkpt lat="43.25589" lon="5.60428">
        <ele>253.84765625</ele>
        <time>2020-06-14T07:58:30Z</time>
      </trkpt>
      <trkpt lat="43.25588" lon="5.60422">
        <ele>253.57421875</ele>
        <time>2020-06-14T07:58:31Z</time>
      </trkpt>
      <trkpt lat="43.25586" lon="5.60416">
        <ele>253.28125</ele>
        <time>2020-06-14T07:58:32Z</time>
      </trkpt>
      <trkpt lat="43.25584" lon="5.60411">
        <ele>253.08984375</ele>
        <time>2020-06-14T07:58:33Z</time>
      </trkpt>
      <trkpt lat="43.25582" lon="5.60406">
        <ele>252.96875</ele>
        <time>2020-06-14T07:58:34Z</time>
      </trkpt>
      <trkpt lat="43.25581" lon="5.60401">
        <ele>252.87890625</ele>
        <time>2020-06-14T07:58:35Z</time>
      </trkpt>
      <trkpt lat="43.25579" lon="5.60396">
        <ele>252.74609375</ele>
        <time>2020-06-14T07:58:36Z</time>
      </trkpt>
      <trkpt lat="43.25578" lon="5.60391">
        <ele>252.5859375</ele>
        <time>2020-06-14T07:58:37Z</time>
      </trkpt>
      <trkpt lat="43.25577" lon="5.60386">
        <ele>252.4140625</ele>
        <time>2020-06-14T07:58:38Z</time>
      </trkpt>
      <trkpt lat="43.25576" lon="5.60382">
        <ele>252.26953125</ele>
        <time>2020-06-14T07:58:39Z</time>
      </trkpt>
      <trkpt lat="43.25571" lon="5.60348">
        <ele>252.33984375</ele>
        <time>2020-06-14T07:58:45Z</time>
      </trkpt>
      <trkpt lat="43.25554" lon="5.60295">
        <ele>251.26953125</ele>
        <time>2020-06-14T07:58:52Z</time>
      </trkpt>
      <trkpt lat="43.2555" lon="5.60289">
        <ele>251.1953125</ele>
        <time>2020-06-14T07:58:53Z</time>
      </trkpt>
      <trkpt lat="43.25527" lon="5.60256">
        <ele>250.16015625</ele>
        <time>2020-06-14T07:58:59Z</time>
      </trkpt>
      <trkpt lat="43.25526" lon="5.60252">
        <ele>249.91796875</ele>
        <time>2020-06-14T07:59:00Z</time>
      </trkpt>
      <trkpt lat="43.25525" lon="5.60248">
        <ele>249.55078125</ele>
        <time>2020-06-14T07:59:01Z</time>
      </trkpt>
      <trkpt lat="43.25526" lon="5.60245">
        <ele>249.0859375</ele>
        <time>2020-06-14T07:59:02Z</time>
      </trkpt>
      <trkpt lat="43.25526" lon="5.60243">
        <ele>248.76953125</ele>
        <time>2020-06-14T07:59:03Z</time>
      </trkpt>
      <trkpt lat="43.25529" lon="5.60181">
        <ele>247.2109375</ele>
        <time>2020-06-14T07:59:13Z</time>
      </trkpt>
      <trkpt lat="43.25528" lon="5.60174">
        <ele>247.28125</ele>
        <time>2020-06-14T07:59:14Z</time>
      </trkpt>
      <trkpt lat="43.25526" lon="5.60159">
        <ele>247.390625</ele>
        <time>2020-06-14T07:59:17Z</time>
      </trkpt>
      <trkpt lat="43.25525" lon="5.60146">
        <ele>246.96875</ele>
        <time>2020-06-14T07:59:27Z</time>
      </trkpt>
      <trkpt lat="43.25524" lon="5.60143">
        <ele>246.96484375</ele>
        <time>2020-06-14T07:59:31Z</time>
      </trkpt>
      <trkpt lat="43.25523" lon="5.60141">
        <ele>246.93359375</ele>
        <time>2020-06-14T07:59:32Z</time>
      </trkpt>
      <trkpt lat="43.25521" lon="5.60127">
        <ele>246.671875</ele>
        <time>2020-06-14T07:59:38Z</time>
      </trkpt>
      <trkpt lat="43.25518" lon="5.60109">
        <ele>246.58203125</ele>
        <time>2020-06-14T07:59:48Z</time>
      </trkpt>
      <trkpt lat="43.25517" lon="5.60107">
        <ele>246.5859375</ele>
        <time>2020-06-14T07:59:49Z</time>
      </trkpt>
      <trkpt lat="43.25517" lon="5.60106">
        <ele>246.5625</ele>
        <time>2020-06-14T07:59:50Z</time>
      </trkpt>
      <trkpt lat="43.25516" lon="5.60101">
        <ele>246.5390625</ele>
        <time>2020-06-14T07:59:53Z</time>
      </trkpt>
      <trkpt lat="43.25515" lon="5.60097">
        <ele>246.5859375</ele>
        <time>2020-06-14T07:59:55Z</time>
      </trkpt>
      <trkpt lat="43.25514" lon="5.60095">
        <ele>246.609375</ele>
        <time>2020-06-14T07:59:56Z</time>
      </trkpt>
      <trkpt lat="43.25511" lon="5.6007">
        <ele>246.89453125</ele>
        <time>2020-06-14T08:00:08Z</time>
      </trkpt>
      <trkpt lat="43.25509" lon="5.6006">
        <ele>247.34765625</ele>
        <time>2020-06-14T08:00:14Z</time>
      </trkpt>
      <trkpt lat="43.25509" lon="5.60058">
        <ele>247.43359375</ele>
        <time>2020-06-14T08:00:15Z</time>
      </trkpt>
      <trkpt lat="43.25508" lon="5.60043">
        <ele>247.98046875</ele>
        <time>2020-06-14T08:00:23Z</time>
      </trkpt>
      <trkpt lat="43.25508" lon="5.60041">
        <ele>248.02734375</ele>
        <time>2020-06-14T08:00:24Z</time>
      </trkpt>
      <trkpt lat="43.25509" lon="5.60039">
        <ele>248.078125</ele>
        <time>2020-06-14T08:00:25Z</time>
      </trkpt>
      <trkpt lat="43.25506" lon="5.60029">
        <ele>248.5390625</ele>
        <time>2020-06-14T08:00:30Z</time>
      </trkpt>
      <trkpt lat="43.25501" lon="5.60014">
        <ele>250.12890625</ele>
        <time>2020-06-14T08:00:38Z</time>
      </trkpt>
      <trkpt lat="43.255" lon="5.60012">
        <ele>250.5703125</ele>
        <time>2020-06-14T08:00:39Z</time>
      </trkpt>
      <trkpt lat="43.25499" lon="5.60011">
        <ele>250.953125</ele>
        <time>2020-06-14T08:00:40Z</time>
      </trkpt>
      <trkpt lat="43.25498" lon="5.60009">
        <ele>251.31640625</ele>
        <time>2020-06-14T08:00:41Z</time>
      </trkpt>
      <trkpt lat="43.25498" lon="5.60007">
        <ele>251.60546875</ele>
        <time>2020-06-14T08:00:42Z</time>
      </trkpt>
      <trkpt lat="43.25488" lon="5.59985">
        <ele>255.33203125</ele>
        <time>2020-06-14T08:00:55Z</time>
      </trkpt>
      <trkpt lat="43.25483" lon="5.59978">
        <ele>257.09375</ele>
        <time>2020-06-14T08:01:09Z</time>
      </trkpt>
      <trkpt lat="43.25482" lon="5.59978">
        <ele>257.21875</ele>
        <time>2020-06-14T08:01:30Z</time>
      </trkpt>
      <trkpt lat="43.25483" lon="5.59974">
        <ele>257.00390625</ele>
        <time>2020-06-14T08:01:38Z</time>
      </trkpt>
      <trkpt lat="43.2548" lon="5.59973">
        <ele>257.76953125</ele>
        <time>2020-06-14T08:02:08Z</time>
      </trkpt>
      <trkpt lat="43.25481" lon="5.59973">
        <ele>257.48046875</ele>
        <time>2020-06-14T08:02:33Z</time>
      </trkpt>
      <trkpt lat="43.2548" lon="5.59973">
        <ele>258.0078125</ele>
        <time>2020-06-14T08:03:04Z</time>
      </trkpt>
      <trkpt lat="43.25476" lon="5.5997">
        <ele>259.01953125</ele>
        <time>2020-06-14T08:03:33Z</time>
      </trkpt>
      <trkpt lat="43.25479" lon="5.5997">
        <ele>257.9375</ele>
        <time>2020-06-14T08:04:03Z</time>
      </trkpt>
      <trkpt lat="43.25478" lon="5.59972">
        <ele>258.54296875</ele>
        <time>2020-06-14T08:04:15Z</time>
      </trkpt>
      <trkpt lat="43.25477" lon="5.59972">
        <ele>258.89453125</ele>
        <time>2020-06-14T08:04:16Z</time>
      </trkpt>
      <trkpt lat="43.25476" lon="5.59972">
        <ele>259.29296875</ele>
        <time>2020-06-14T08:04:17Z</time>
      </trkpt>
      <trkpt lat="43.25474" lon="5.59972">
        <ele>259.609375</ele>
        <time>2020-06-14T08:04:18Z</time>
      </trkpt>
      <trkpt lat="43.25473" lon="5.59971">
        <ele>259.875</ele>
        <time>2020-06-14T08:04:19Z</time>
      </trkpt>
      <trkpt lat="43.25471" lon="5.59971">
        <ele>260.15234375</ele>
        <time>2020-06-14T08:04:20Z</time>
      </trkpt>
      <trkpt lat="43.25469" lon="5.5997">
        <ele>260.4921875</ele>
        <time>2020-06-14T08:04:22Z</time>
      </trkpt>
      <trkpt lat="43.25468" lon="5.5997">
        <ele>260.7109375</ele>
        <time>2020-06-14T08:04:23Z</time>
      </trkpt>
      <trkpt lat="43.25467" lon="5.5997">
        <ele>261.00390625</ele>
        <time>2020-06-14T08:04:24Z</time>
      </trkpt>
      <trkpt lat="43.25465" lon="5.59971">
        <ele>261.3359375</ele>
        <time>2020-06-14T08:04:25Z</time>
      </trkpt>
      <trkpt lat="43.25464" lon="5.59971">
        <ele>261.69921875</ele>
        <time>2020-06-14T08:04:26Z</time>
      </trkpt>
      <trkpt lat="43.25462" lon="5.59973">
        <ele>262.34375</ele>
        <time>2020-06-14T08:04:28Z</time>
      </trkpt>
      <trkpt lat="43.25461" lon="5.59975">
        <ele>262.640625</ele>
        <time>2020-06-14T08:04:29Z</time>
      </trkpt>
      <trkpt lat="43.2546" lon="5.59981">
        <ele>263.54296875</ele>
        <time>2020-06-14T08:04:32Z</time>
      </trkpt>
      <trkpt lat="43.2546" lon="5.59984">
        <ele>263.8203125</ele>
        <time>2020-06-14T08:04:33Z</time>
      </trkpt>
      <trkpt lat="43.2546" lon="5.59986">
        <ele>263.90625</ele>
        <time>2020-06-14T08:04:34Z</time>
      </trkpt>
      <trkpt lat="43.25461" lon="5.59988">
        <ele>263.83203125</ele>
        <time>2020-06-14T08:04:35Z</time>
      </trkpt>
      <trkpt lat="43.25462" lon="5.5999">
        <ele>263.70703125</ele>
        <time>2020-06-14T08:04:36Z</time>
      </trkpt>
      <trkpt lat="43.25463" lon="5.59992">
        <ele>263.5703125</ele>
        <time>2020-06-14T08:04:37Z</time>
      </trkpt>
      <trkpt lat="43.25464" lon="5.59997">
        <ele>263.37890625</ele>
        <time>2020-06-14T08:04:40Z</time>
      </trkpt>
      <trkpt lat="43.25464" lon="5.59999">
        <ele>263.453125</ele>
        <time>2020-06-14T08:04:41Z</time>
      </trkpt>
      <trkpt lat="43.25464" lon="5.60001">
        <ele>263.6953125</ele>
        <time>2020-06-14T08:04:42Z</time>
      </trkpt>
      <trkpt lat="43.25463" lon="5.60003">
        <ele>263.94140625</ele>
        <time>2020-06-14T08:04:43Z</time>
      </trkpt>
      <trkpt lat="43.25458" lon="5.6002">
        <ele>266.4765625</ele>
        <time>2020-06-14T08:04:52Z</time>
      </trkpt>
      <trkpt lat="43.25454" lon="5.60035">
        <ele>267.79296875</ele>
        <time>2020-06-14T08:05:01Z</time>
      </trkpt>
      <trkpt lat="43.25451" lon="5.60056">
        <ele>268.80078125</ele>
        <time>2020-06-14T08:05:13Z</time>
      </trkpt>
      <trkpt lat="43.25442" lon="5.60085">
        <ele>272.8125</ele>
        <time>2020-06-14T08:05:28Z</time>
      </trkpt>
      <trkpt lat="43.25436" lon="5.60107">
        <ele>275.921875</ele>
        <time>2020-06-14T08:05:41Z</time>
      </trkpt>
      <trkpt lat="43.25436" lon="5.6012">
        <ele>275.796875</ele>
        <time>2020-06-14T08:05:55Z</time>
      </trkpt>
      <trkpt lat="43.2544" lon="5.60122">
        <ele>273.87109375</ele>
        <time>2020-06-14T08:06:24Z</time>
      </trkpt>
      <trkpt lat="43.25443" lon="5.60126">
        <ele>272.37109375</ele>
        <time>2020-06-14T08:06:54Z</time>
      </trkpt>
      <trkpt lat="43.25441" lon="5.60128">
        <ele>273.5546875</ele>
        <time>2020-06-14T08:07:19Z</time>
      </trkpt>
      <trkpt lat="43.25438" lon="5.60132">
        <ele>274.99609375</ele>
        <time>2020-06-14T08:07:22Z</time>
      </trkpt>
      <trkpt lat="43.25435" lon="5.60141">
        <ele>276.86328125</ele>
        <time>2020-06-14T08:07:27Z</time>
      </trkpt>
      <trkpt lat="43.25434" lon="5.60143">
        <ele>277.3359375</ele>
        <time>2020-06-14T08:07:28Z</time>
      </trkpt>
      <trkpt lat="43.25433" lon="5.60146">
        <ele>278</ele>
        <time>2020-06-14T08:07:29Z</time>
      </trkpt>
      <trkpt lat="43.25433" lon="5.60149">
        <ele>278.33203125</ele>
        <time>2020-06-14T08:07:30Z</time>
      </trkpt>
      <trkpt lat="43.25432" lon="5.60151">
        <ele>278.796875</ele>
        <time>2020-06-14T08:07:31Z</time>
      </trkpt>
      <trkpt lat="43.25431" lon="5.60153">
        <ele>279.1953125</ele>
        <time>2020-06-14T08:07:32Z</time>
      </trkpt>
      <trkpt lat="43.25431" lon="5.60156">
        <ele>279.48046875</ele>
        <time>2020-06-14T08:07:33Z</time>
      </trkpt>
      <trkpt lat="43.2543" lon="5.60158">
        <ele>279.9453125</ele>
        <time>2020-06-14T08:07:34Z</time>
      </trkpt>
      <trkpt lat="43.25421" lon="5.60185">
        <ele>285.30078125</ele>
        <time>2020-06-14T08:07:45Z</time>
      </trkpt>
      <trkpt lat="43.25421" lon="5.60197">
        <ele>286.5078125</ele>
        <time>2020-06-14T08:07:49Z</time>
      </trkpt>
      <trkpt lat="43.25414" lon="5.60226">
        <ele>290.73046875</ele>
        <time>2020-06-14T08:08:01Z</time>
      </trkpt>
      <trkpt lat="43.25412" lon="5.60236">
        <ele>292.09765625</ele>
        <time>2020-06-14T08:08:06Z</time>
      </trkpt>
      <trkpt lat="43.25411" lon="5.60238">
        <ele>292.3671875</ele>
        <time>2020-06-14T08:08:07Z</time>
      </trkpt>
      <trkpt lat="43.2541" lon="5.60239">
        <ele>292.65234375</ele>
        <time>2020-06-14T08:08:08Z</time>
      </trkpt>
      <trkpt lat="43.2541" lon="5.60241">
        <ele>292.92578125</ele>
        <time>2020-06-14T08:08:09Z</time>
      </trkpt>
      <trkpt lat="43.2541" lon="5.60244">
        <ele>293.16015625</ele>
        <time>2020-06-14T08:08:10Z</time>
      </trkpt>
      <trkpt lat="43.25409" lon="5.60246">
        <ele>293.47265625</ele>
        <time>2020-06-14T08:08:11Z</time>
      </trkpt>
      <trkpt lat="43.25409" lon="5.60248">
        <ele>293.80078125</ele>
        <time>2020-06-14T08:08:12Z</time>
      </trkpt>
      <trkpt lat="43.25408" lon="5.6025">
        <ele>294.12890625</ele>
        <time>2020-06-14T08:08:13Z</time>
      </trkpt>
      <trkpt lat="43.25408" lon="5.60252">
        <ele>294.453125</ele>
        <time>2020-06-14T08:08:14Z</time>
      </trkpt>
      <trkpt lat="43.25407" lon="5.60253">
        <ele>294.74609375</ele>
        <time>2020-06-14T08:08:15Z</time>
      </trkpt>
      <trkpt lat="43.25407" lon="5.60255">
        <ele>295.04296875</ele>
        <time>2020-06-14T08:08:16Z</time>
      </trkpt>
      <trkpt lat="43.25406" lon="5.60256">
        <ele>295.32421875</ele>
        <time>2020-06-14T08:08:17Z</time>
      </trkpt>
      <trkpt lat="43.25406" lon="5.60258">
        <ele>295.65625</ele>
        <time>2020-06-14T08:08:18Z</time>
      </trkpt>
      <trkpt lat="43.25405" lon="5.6026">
        <ele>295.90234375</ele>
        <time>2020-06-14T08:08:19Z</time>
      </trkpt>
      <trkpt lat="43.25402" lon="5.60272">
        <ele>297.9609375</ele>
        <time>2020-06-14T08:08:34Z</time>
      </trkpt>
      <trkpt lat="43.254" lon="5.60279">
        <ele>299.359375</ele>
        <time>2020-06-14T08:09:04Z</time>
      </trkpt>
      <trkpt lat="43.25398" lon="5.60285">
        <ele>300.4765625</ele>
        <time>2020-06-14T08:09:31Z</time>
      </trkpt>
      <trkpt lat="43.25398" lon="5.60287">
        <ele>300.5078125</ele>
        <time>2020-06-14T08:09:33Z</time>
      </trkpt>
      <trkpt lat="43.25398" lon="5.60289">
        <ele>300.6640625</ele>
        <time>2020-06-14T08:09:34Z</time>
      </trkpt>
      <trkpt lat="43.25399" lon="5.60311">
        <ele>302.12109375</ele>
        <time>2020-06-14T08:09:48Z</time>
      </trkpt>
      <trkpt lat="43.25399" lon="5.60334">
        <ele>303.93359375</ele>
        <time>2020-06-14T08:09:58Z</time>
      </trkpt>
      <trkpt lat="43.25404" lon="5.60361">
        <ele>304.97265625</ele>
        <time>2020-06-14T08:10:08Z</time>
      </trkpt>
      <trkpt lat="43.25405" lon="5.60368">
        <ele>305.2265625</ele>
        <time>2020-06-14T08:10:10Z</time>
      </trkpt>
      <trkpt lat="43.25406" lon="5.60371">
        <ele>305.30078125</ele>
        <time>2020-06-14T08:10:11Z</time>
      </trkpt>
      <trkpt lat="43.25407" lon="5.60373">
        <ele>305.36328125</ele>
        <time>2020-06-14T08:10:12Z</time>
      </trkpt>
      <trkpt lat="43.25408" lon="5.60376">
        <ele>305.42578125</ele>
        <time>2020-06-14T08:10:13Z</time>
      </trkpt>
      <trkpt lat="43.25408" lon="5.60379">
        <ele>305.55859375</ele>
        <time>2020-06-14T08:10:14Z</time>
      </trkpt>
      <trkpt lat="43.25409" lon="5.60381">
        <ele>305.640625</ele>
        <time>2020-06-14T08:10:15Z</time>
      </trkpt>
      <trkpt lat="43.25414" lon="5.6041">
        <ele>306.78515625</ele>
        <time>2020-06-14T08:10:27Z</time>
      </trkpt>
      <trkpt lat="43.25416" lon="5.60431">
        <ele>307.9296875</ele>
        <time>2020-06-14T08:10:37Z</time>
      </trkpt>
      <trkpt lat="43.25417" lon="5.60433">
        <ele>307.99609375</ele>
        <time>2020-06-14T08:10:38Z</time>
      </trkpt>
      <trkpt lat="43.25418" lon="5.60434">
        <ele>308.04296875</ele>
        <time>2020-06-14T08:10:39Z</time>
      </trkpt>
      <trkpt lat="43.25418" lon="5.60436">
        <ele>308.18359375</ele>
        <time>2020-06-14T08:10:40Z</time>
      </trkpt>
      <trkpt lat="43.25418" lon="5.60439">
        <ele>308.37109375</ele>
        <time>2020-06-14T08:10:41Z</time>
      </trkpt>
      <trkpt lat="43.25418" lon="5.60442">
        <ele>308.546875</ele>
        <time>2020-06-14T08:10:42Z</time>
      </trkpt>
      <trkpt lat="43.25418" lon="5.60444">
        <ele>308.6875</ele>
        <time>2020-06-14T08:10:43Z</time>
      </trkpt>
      <trkpt lat="43.25418" lon="5.6045">
        <ele>309.15234375</ele>
        <time>2020-06-14T08:10:46Z</time>
      </trkpt>
      <trkpt lat="43.25417" lon="5.60457">
        <ele>309.75390625</ele>
        <time>2020-06-14T08:10:49Z</time>
      </trkpt>
      <trkpt lat="43.25417" lon="5.6046">
        <ele>309.9296875</ele>
        <time>2020-06-14T08:10:50Z</time>
      </trkpt>
      <trkpt lat="43.25417" lon="5.60462">
        <ele>310.078125</ele>
        <time>2020-06-14T08:10:51Z</time>
      </trkpt>
      <trkpt lat="43.25417" lon="5.60465">
        <ele>310.2421875</ele>
        <time>2020-06-14T08:10:52Z</time>
      </trkpt>
      <trkpt lat="43.25417" lon="5.60467">
        <ele>310.4609375</ele>
        <time>2020-06-14T08:10:53Z</time>
      </trkpt>
      <trkpt lat="43.25417" lon="5.6047">
        <ele>310.65234375</ele>
        <time>2020-06-14T08:10:54Z</time>
      </trkpt>
      <trkpt lat="43.25417" lon="5.60473">
        <ele>310.859375</ele>
        <time>2020-06-14T08:10:55Z</time>
      </trkpt>
      <trkpt lat="43.25416" lon="5.60504">
        <ele>313.078125</ele>
        <time>2020-06-14T08:11:09Z</time>
      </trkpt>
      <trkpt lat="43.25412" lon="5.6054">
        <ele>315.0234375</ele>
        <time>2020-06-14T08:11:22Z</time>
      </trkpt>
      <trkpt lat="43.25404" lon="5.60576">
        <ele>317.03125</ele>
        <time>2020-06-14T08:11:34Z</time>
      </trkpt>
      <trkpt lat="43.25405" lon="5.60581">
        <ele>317.30078125</ele>
        <time>2020-06-14T08:11:36Z</time>
      </trkpt>
      <trkpt lat="43.25405" lon="5.60584">
        <ele>317.44921875</ele>
        <time>2020-06-14T08:11:37Z</time>
      </trkpt>
      <trkpt lat="43.25405" lon="5.60587">
        <ele>317.6171875</ele>
        <time>2020-06-14T08:11:38Z</time>
      </trkpt>
      <trkpt lat="43.25404" lon="5.6059">
        <ele>317.7890625</ele>
        <time>2020-06-14T08:11:39Z</time>
      </trkpt>
      <trkpt lat="43.25404" lon="5.60593">
        <ele>317.94140625</ele>
        <time>2020-06-14T08:11:40Z</time>
      </trkpt>
      <trkpt lat="43.25405" lon="5.60597">
        <ele>318.1171875</ele>
        <time>2020-06-14T08:11:41Z</time>
      </trkpt>
      <trkpt lat="43.25405" lon="5.606">
        <ele>318.30078125</ele>
        <time>2020-06-14T08:11:42Z</time>
      </trkpt>
      <trkpt lat="43.25405" lon="5.60603">
        <ele>318.4921875</ele>
        <time>2020-06-14T08:11:43Z</time>
      </trkpt>
      <trkpt lat="43.25405" lon="5.60607">
        <ele>318.6796875</ele>
        <time>2020-06-14T08:11:44Z</time>
      </trkpt>
      <trkpt lat="43.25406" lon="5.6061">
        <ele>318.8828125</ele>
        <time>2020-06-14T08:11:45Z</time>
      </trkpt>
      <trkpt lat="43.25407" lon="5.60613">
        <ele>319.06640625</ele>
        <time>2020-06-14T08:11:46Z</time>
      </trkpt>
      <trkpt lat="43.25408" lon="5.60619">
        <ele>319.44140625</ele>
        <time>2020-06-14T08:11:49Z</time>
      </trkpt>
      <trkpt lat="43.25409" lon="5.60628">
        <ele>320.00390625</ele>
        <time>2020-06-14T08:11:53Z</time>
      </trkpt>
      <trkpt lat="43.25409" lon="5.6063">
        <ele>320.140625</ele>
        <time>2020-06-14T08:11:54Z</time>
      </trkpt>
      <trkpt lat="43.25418" lon="5.60664">
        <ele>321.9921875</ele>
        <time>2020-06-14T08:12:08Z</time>
      </trkpt>
      <trkpt lat="43.25429" lon="5.60715">
        <ele>324.01171875</ele>
        <time>2020-06-14T08:12:27Z</time>
      </trkpt>
      <trkpt lat="43.2544" lon="5.60753">
        <ele>324.86328125</ele>
        <time>2020-06-14T08:12:42Z</time>
      </trkpt>
      <trkpt lat="43.25441" lon="5.60757">
        <ele>325.07421875</ele>
        <time>2020-06-14T08:12:44Z</time>
      </trkpt>
      <trkpt lat="43.25443" lon="5.60759">
        <ele>325.20703125</ele>
        <time>2020-06-14T08:12:45Z</time>
      </trkpt>
      <trkpt lat="43.25443" lon="5.60762">
        <ele>325.33984375</ele>
        <time>2020-06-14T08:12:46Z</time>
      </trkpt>
      <trkpt lat="43.25444" lon="5.60764">
        <ele>325.45703125</ele>
        <time>2020-06-14T08:12:47Z</time>
      </trkpt>
      <trkpt lat="43.25445" lon="5.60767">
        <ele>325.5703125</ele>
        <time>2020-06-14T08:12:48Z</time>
      </trkpt>
      <trkpt lat="43.25445" lon="5.6077">
        <ele>325.6796875</ele>
        <time>2020-06-14T08:12:49Z</time>
      </trkpt>
      <trkpt lat="43.25445" lon="5.60773">
        <ele>325.7109375</ele>
        <time>2020-06-14T08:12:50Z</time>
      </trkpt>
      <trkpt lat="43.25446" lon="5.60776">
        <ele>325.7421875</ele>
        <time>2020-06-14T08:12:51Z</time>
      </trkpt>
      <trkpt lat="43.25451" lon="5.60811">
        <ele>326.37109375</ele>
        <time>2020-06-14T08:13:02Z</time>
      </trkpt>
      <trkpt lat="43.25462" lon="5.60861">
        <ele>325.5390625</ele>
        <time>2020-06-14T08:13:15Z</time>
      </trkpt>
      <trkpt lat="43.25472" lon="5.60907">
        <ele>323.63671875</ele>
        <time>2020-06-14T08:13:29Z</time>
      </trkpt>
      <trkpt lat="43.25482" lon="5.60935">
        <ele>322.0390625</ele>
        <time>2020-06-14T08:13:36Z</time>
      </trkpt>
      <trkpt lat="43.25486" lon="5.6094">
        <ele>321.69921875</ele>
        <time>2020-06-14T08:13:37Z</time>
      </trkpt>
      <trkpt lat="43.25489" lon="5.60944">
        <ele>321.390625</ele>
        <time>2020-06-14T08:13:38Z</time>
      </trkpt>
      <trkpt lat="43.25497" lon="5.60954">
        <ele>321.05078125</ele>
        <time>2020-06-14T08:13:40Z</time>
      </trkpt>
      <trkpt lat="43.255" lon="5.60959">
        <ele>320.9921875</ele>
        <time>2020-06-14T08:13:41Z</time>
      </trkpt>
      <trkpt lat="43.25503" lon="5.60963">
        <ele>321.03125</ele>
        <time>2020-06-14T08:13:42Z</time>
      </trkpt>
      <trkpt lat="43.25524" lon="5.60991">
        <ele>317.7265625</ele>
        <time>2020-06-14T08:13:52Z</time>
      </trkpt>
      <trkpt lat="43.25545" lon="5.61037">
        <ele>314.5390625</ele>
        <time>2020-06-14T08:14:04Z</time>
      </trkpt>
      <trkpt lat="43.25554" lon="5.61079">
        <ele>314.91015625</ele>
        <time>2020-06-14T08:14:16Z</time>
      </trkpt>
      <trkpt lat="43.25555" lon="5.61131">
        <ele>315.60546875</ele>
        <time>2020-06-14T08:14:28Z</time>
      </trkpt>
      <trkpt lat="43.25556" lon="5.61185">
        <ele>316.27734375</ele>
        <time>2020-06-14T08:14:39Z</time>
      </trkpt>
      <trkpt lat="43.2555" lon="5.61235">
        <ele>319.421875</ele>
        <time>2020-06-14T08:14:50Z</time>
      </trkpt>
      <trkpt lat="43.25548" lon="5.61285">
        <ele>320.359375</ele>
        <time>2020-06-14T08:15:02Z</time>
      </trkpt>
      <trkpt lat="43.25553" lon="5.61333">
        <ele>320.4375</ele>
        <time>2020-06-14T08:15:14Z</time>
      </trkpt>
      <trkpt lat="43.25574" lon="5.61367">
        <ele>317.84375</ele>
        <time>2020-06-14T08:15:21Z</time>
      </trkpt>
      <trkpt lat="43.25576" lon="5.61373">
        <ele>317.6328125</ele>
        <time>2020-06-14T08:15:22Z</time>
      </trkpt>
      <trkpt lat="43.25579" lon="5.61379">
        <ele>317.640625</ele>
        <time>2020-06-14T08:15:23Z</time>
      </trkpt>
      <trkpt lat="43.2558" lon="5.61385">
        <ele>317.6875</ele>
        <time>2020-06-14T08:15:24Z</time>
      </trkpt>
      <trkpt lat="43.25581" lon="5.61391">
        <ele>317.89453125</ele>
        <time>2020-06-14T08:15:25Z</time>
      </trkpt>
      <trkpt lat="43.25582" lon="5.61397">
        <ele>318.1484375</ele>
        <time>2020-06-14T08:15:26Z</time>
      </trkpt>
      <trkpt lat="43.25586" lon="5.61427">
        <ele>320.1953125</ele>
        <time>2020-06-14T08:15:33Z</time>
      </trkpt>
      <trkpt lat="43.25595" lon="5.6147">
        <ele>323.22265625</ele>
        <time>2020-06-14T08:15:46Z</time>
      </trkpt>
      <trkpt lat="43.25605" lon="5.61503">
        <ele>326.421875</ele>
        <time>2020-06-14T08:15:59Z</time>
      </trkpt>
      <trkpt lat="43.25613" lon="5.61533">
        <ele>330.46875</ele>
        <time>2020-06-14T08:16:13Z</time>
      </trkpt>
      <trkpt lat="43.25623" lon="5.61566">
        <ele>330.51171875</ele>
        <time>2020-06-14T08:16:27Z</time>
      </trkpt>
      <trkpt lat="43.25623" lon="5.61568">
        <ele>330.6015625</ele>
        <time>2020-06-14T08:16:28Z</time>
      </trkpt>
      <trkpt lat="43.25623" lon="5.6157">
        <ele>330.71875</ele>
        <time>2020-06-14T08:16:29Z</time>
      </trkpt>
      <trkpt lat="43.25624" lon="5.61572">
        <ele>330.7109375</ele>
        <time>2020-06-14T08:16:30Z</time>
      </trkpt>
      <trkpt lat="43.25624" lon="5.61574">
        <ele>330.7734375</ele>
        <time>2020-06-14T08:16:31Z</time>
      </trkpt>
      <trkpt lat="43.25625" lon="5.61576">
        <ele>330.83203125</ele>
        <time>2020-06-14T08:16:32Z</time>
      </trkpt>
      <trkpt lat="43.25625" lon="5.61578">
        <ele>330.86328125</ele>
        <time>2020-06-14T08:16:33Z</time>
      </trkpt>
      <trkpt lat="43.25625" lon="5.6158">
        <ele>331.015625</ele>
        <time>2020-06-14T08:16:34Z</time>
      </trkpt>
      <trkpt lat="43.25625" lon="5.61582">
        <ele>331.24609375</ele>
        <time>2020-06-14T08:16:35Z</time>
      </trkpt>
      <trkpt lat="43.25626" lon="5.61585">
        <ele>331.375</ele>
        <time>2020-06-14T08:16:36Z</time>
      </trkpt>
      <trkpt lat="43.25628" lon="5.61604">
        <ele>332.8125</ele>
        <time>2020-06-14T08:16:44Z</time>
      </trkpt>
      <trkpt lat="43.25628" lon="5.61606">
        <ele>332.921875</ele>
        <time>2020-06-14T08:16:45Z</time>
      </trkpt>
      <trkpt lat="43.25629" lon="5.61608">
        <ele>333.0546875</ele>
        <time>2020-06-14T08:16:46Z</time>
      </trkpt>
      <trkpt lat="43.25629" lon="5.61611">
        <ele>333.2421875</ele>
        <time>2020-06-14T08:16:47Z</time>
      </trkpt>
      <trkpt lat="43.25629" lon="5.61612">
        <ele>333.35546875</ele>
        <time>2020-06-14T08:16:48Z</time>
      </trkpt>
      <trkpt lat="43.25637" lon="5.61641">
        <ele>334.97265625</ele>
        <time>2020-06-14T08:17:02Z</time>
      </trkpt>
      <trkpt lat="43.2564" lon="5.61661">
        <ele>336.96484375</ele>
        <time>2020-06-14T08:17:17Z</time>
      </trkpt>
      <trkpt lat="43.25641" lon="5.61659">
        <ele>336.41796875</ele>
        <time>2020-06-14T08:17:38Z</time>
      </trkpt>
      <trkpt lat="43.25645" lon="5.61656">
        <ele>335.20703125</ele>
        <time>2020-06-14T08:18:05Z</time>
      </trkpt>
      <trkpt lat="43.25643" lon="5.61661">
        <ele>336.58984375</ele>
        <time>2020-06-14T08:18:18Z</time>
      </trkpt>
      <trkpt lat="43.25642" lon="5.61663">
        <ele>337.0859375</ele>
        <time>2020-06-14T08:18:19Z</time>
      </trkpt>
      <trkpt lat="43.25642" lon="5.61665">
        <ele>337.6796875</ele>
        <time>2020-06-14T08:18:20Z</time>
      </trkpt>
      <trkpt lat="43.25641" lon="5.61668">
        <ele>338.2578125</ele>
        <time>2020-06-14T08:18:21Z</time>
      </trkpt>
      <trkpt lat="43.25641" lon="5.6167">
        <ele>338.8984375</ele>
        <time>2020-06-14T08:18:22Z</time>
      </trkpt>
      <trkpt lat="43.25639" lon="5.61673">
        <ele>339.453125</ele>
        <time>2020-06-14T08:18:23Z</time>
      </trkpt>
      <trkpt lat="43.25638" lon="5.61675">
        <ele>340.125</ele>
        <time>2020-06-14T08:18:24Z</time>
      </trkpt>
      <trkpt lat="43.25637" lon="5.61678">
        <ele>340.671875</ele>
        <time>2020-06-14T08:18:25Z</time>
      </trkpt>
      <trkpt lat="43.25637" lon="5.6168">
        <ele>341.12890625</ele>
        <time>2020-06-14T08:18:26Z</time>
      </trkpt>
      <trkpt lat="43.25637" lon="5.61682">
        <ele>341.5625</ele>
        <time>2020-06-14T08:18:27Z</time>
      </trkpt>
      <trkpt lat="43.25637" lon="5.61684">
        <ele>341.98046875</ele>
        <time>2020-06-14T08:18:28Z</time>
      </trkpt>
      <trkpt lat="43.25637" lon="5.61687">
        <ele>342.41796875</ele>
        <time>2020-06-14T08:18:29Z</time>
      </trkpt>
      <trkpt lat="43.25637" lon="5.61689">
        <ele>342.7890625</ele>
        <time>2020-06-14T08:18:30Z</time>
      </trkpt>
      <trkpt lat="43.25637" lon="5.61692">
        <ele>343.25390625</ele>
        <time>2020-06-14T08:18:31Z</time>
      </trkpt>
      <trkpt lat="43.25636" lon="5.61694">
        <ele>343.6640625</ele>
        <time>2020-06-14T08:18:32Z</time>
      </trkpt>
      <trkpt lat="43.25636" lon="5.61697">
        <ele>344.046875</ele>
        <time>2020-06-14T08:18:33Z</time>
      </trkpt>
      <trkpt lat="43.25635" lon="5.61699">
        <ele>344.41015625</ele>
        <time>2020-06-14T08:18:34Z</time>
      </trkpt>
      <trkpt lat="43.2563" lon="5.61723">
        <ele>347.2578125</ele>
        <time>2020-06-14T08:18:44Z</time>
      </trkpt>
      <trkpt lat="43.25629" lon="5.61725">
        <ele>347.37890625</ele>
        <time>2020-06-14T08:18:45Z</time>
      </trkpt>
      <trkpt lat="43.2562" lon="5.61754">
        <ele>348.14453125</ele>
        <time>2020-06-14T08:18:57Z</time>
      </trkpt>
      <trkpt lat="43.25612" lon="5.61791">
        <ele>347.5234375</ele>
        <time>2020-06-14T08:19:09Z</time>
      </trkpt>
      <trkpt lat="43.25612" lon="5.61828">
        <ele>346.50390625</ele>
        <time>2020-06-14T08:19:20Z</time>
      </trkpt>
      <trkpt lat="43.25617" lon="5.61884">
        <ele>343.92578125</ele>
        <time>2020-06-14T08:19:31Z</time>
      </trkpt>
      <trkpt lat="43.25619" lon="5.6189">
        <ele>343.58984375</ele>
        <time>2020-06-14T08:19:32Z</time>
      </trkpt>
      <trkpt lat="43.25644" lon="5.61943">
        <ele>342.234375</ele>
        <time>2020-06-14T08:19:43Z</time>
      </trkpt>
      <trkpt lat="43.25658" lon="5.61952">
        <ele>343.7421875</ele>
        <time>2020-06-14T08:19:47Z</time>
      </trkpt>
      <trkpt lat="43.25662" lon="5.61954">
        <ele>344.15234375</ele>
        <time>2020-06-14T08:19:48Z</time>
      </trkpt>
      <trkpt lat="43.2567" lon="5.61959">
        <ele>344.9609375</ele>
        <time>2020-06-14T08:19:50Z</time>
      </trkpt>
      <trkpt lat="43.25673" lon="5.61963">
        <ele>345.3984375</ele>
        <time>2020-06-14T08:19:51Z</time>
      </trkpt>
      <trkpt lat="43.25675" lon="5.61969">
        <ele>345.9296875</ele>
        <time>2020-06-14T08:19:52Z</time>
      </trkpt>
      <trkpt lat="43.25676" lon="5.61976">
        <ele>346.32421875</ele>
        <time>2020-06-14T08:19:53Z</time>
      </trkpt>
      <trkpt lat="43.25675" lon="5.61982">
        <ele>346.375</ele>
        <time>2020-06-14T08:19:54Z</time>
      </trkpt>
      <trkpt lat="43.25672" lon="5.61988">
        <ele>346.12890625</ele>
        <time>2020-06-14T08:19:55Z</time>
      </trkpt>
      <trkpt lat="43.25667" lon="5.61993">
        <ele>345.9453125</ele>
        <time>2020-06-14T08:19:56Z</time>
      </trkpt>
      <trkpt lat="43.25662" lon="5.61997">
        <ele>345.87890625</ele>
        <time>2020-06-14T08:19:57Z</time>
      </trkpt>
      <trkpt lat="43.25654" lon="5.62004">
        <ele>345.6875</ele>
        <time>2020-06-14T08:19:59Z</time>
      </trkpt>
      <trkpt lat="43.2561" lon="5.62018">
        <ele>342.66796875</ele>
        <time>2020-06-14T08:20:10Z</time>
      </trkpt>
      <trkpt lat="43.25592" lon="5.62029">
        <ele>342.4765625</ele>
        <time>2020-06-14T08:20:21Z</time>
      </trkpt>
      <trkpt lat="43.25595" lon="5.62025">
        <ele>342.2578125</ele>
        <time>2020-06-14T08:20:31Z</time>
      </trkpt>
      <trkpt lat="43.25603" lon="5.6202">
        <ele>342.37109375</ele>
        <time>2020-06-14T08:20:38Z</time>
      </trkpt>
      <trkpt lat="43.25606" lon="5.6202">
        <ele>342.51953125</ele>
        <time>2020-06-14T08:20:40Z</time>
      </trkpt>
      <trkpt lat="43.25608" lon="5.62019">
        <ele>342.57421875</ele>
        <time>2020-06-14T08:20:41Z</time>
      </trkpt>
      <trkpt lat="43.2561" lon="5.62019">
        <ele>342.73046875</ele>
        <time>2020-06-14T08:20:42Z</time>
      </trkpt>
      <trkpt lat="43.25611" lon="5.62019">
        <ele>342.85546875</ele>
        <time>2020-06-14T08:20:43Z</time>
      </trkpt>
      <trkpt lat="43.25613" lon="5.62019">
        <ele>342.92578125</ele>
        <time>2020-06-14T08:20:44Z</time>
      </trkpt>
      <trkpt lat="43.25614" lon="5.62018">
        <ele>342.87109375</ele>
        <time>2020-06-14T08:20:45Z</time>
      </trkpt>
      <trkpt lat="43.25614" lon="5.62015">
        <ele>342.55859375</ele>
        <time>2020-06-14T08:20:47Z</time>
      </trkpt>
      <trkpt lat="43.25612" lon="5.62015">
        <ele>342.36328125</ele>
        <time>2020-06-14T08:20:49Z</time>
      </trkpt>
      <trkpt lat="43.2561" lon="5.62016">
        <ele>342.375</ele>
        <time>2020-06-14T08:20:50Z</time>
      </trkpt>
      <trkpt lat="43.25609" lon="5.62017">
        <ele>342.41015625</ele>
        <time>2020-06-14T08:20:51Z</time>
      </trkpt>
      <trkpt lat="43.25596" lon="5.62049">
        <ele>345.03515625</ele>
        <time>2020-06-14T08:21:02Z</time>
      </trkpt>
      <trkpt lat="43.25595" lon="5.62077">
        <ele>348.0859375</ele>
        <time>2020-06-14T08:21:11Z</time>
      </trkpt>
      <trkpt lat="43.25599" lon="5.62081">
        <ele>348.859375</ele>
        <time>2020-06-14T08:21:14Z</time>
      </trkpt>
      <trkpt lat="43.25601" lon="5.6208">
        <ele>348.98828125</ele>
        <time>2020-06-14T08:21:15Z</time>
      </trkpt>
      <trkpt lat="43.25632" lon="5.62069">
        <ele>351.1484375</ele>
        <time>2020-06-14T08:21:26Z</time>
      </trkpt>
      <trkpt lat="43.25663" lon="5.6206">
        <ele>353.63671875</ele>
        <time>2020-06-14T08:21:41Z</time>
      </trkpt>
      <trkpt lat="43.25687" lon="5.62055">
        <ele>355.71875</ele>
        <time>2020-06-14T08:21:55Z</time>
      </trkpt>
      <trkpt lat="43.2572" lon="5.62041">
        <ele>356.2421875</ele>
        <time>2020-06-14T08:22:14Z</time>
      </trkpt>
      <trkpt lat="43.25738" lon="5.62032">
        <ele>355.6640625</ele>
        <time>2020-06-14T08:22:26Z</time>
      </trkpt>
      <trkpt lat="43.25757" lon="5.62015">
        <ele>352.23828125</ele>
        <time>2020-06-14T08:22:39Z</time>
      </trkpt>
      <trkpt lat="43.25776" lon="5.62015">
        <ele>346.09765625</ele>
        <time>2020-06-14T08:22:51Z</time>
      </trkpt>
      <trkpt lat="43.25777" lon="5.62017">
        <ele>345.93359375</ele>
        <time>2020-06-14T08:22:52Z</time>
      </trkpt>
      <trkpt lat="43.25778" lon="5.62018">
        <ele>345.8125</ele>
        <time>2020-06-14T08:22:53Z</time>
      </trkpt>
      <trkpt lat="43.25779" lon="5.6202">
        <ele>345.80859375</ele>
        <time>2020-06-14T08:22:54Z</time>
      </trkpt>
      <trkpt lat="43.25779" lon="5.62022">
        <ele>345.97265625</ele>
        <time>2020-06-14T08:22:55Z</time>
      </trkpt>
      <trkpt lat="43.2578" lon="5.62024">
        <ele>346.0546875</ele>
        <time>2020-06-14T08:22:56Z</time>
      </trkpt>
      <trkpt lat="43.2578" lon="5.62026">
        <ele>346.11328125</ele>
        <time>2020-06-14T08:22:57Z</time>
      </trkpt>
      <trkpt lat="43.2578" lon="5.62028">
        <ele>346.1640625</ele>
        <time>2020-06-14T08:22:58Z</time>
      </trkpt>
      <trkpt lat="43.25781" lon="5.62029">
        <ele>346.0390625</ele>
        <time>2020-06-14T08:22:59Z</time>
      </trkpt>
      <trkpt lat="43.25782" lon="5.62031">
        <ele>346.0390625</ele>
        <time>2020-06-14T08:23:00Z</time>
      </trkpt>
      <trkpt lat="43.25791" lon="5.62057">
        <ele>345.28125</ele>
        <time>2020-06-14T08:23:17Z</time>
      </trkpt>
      <trkpt lat="43.25795" lon="5.62067">
        <ele>345.1875</ele>
        <time>2020-06-14T08:23:26Z</time>
      </trkpt>
      <trkpt lat="43.25795" lon="5.62069">
        <ele>345.16015625</ele>
        <time>2020-06-14T08:23:27Z</time>
      </trkpt>
      <trkpt lat="43.25798" lon="5.6208">
        <ele>345.42578125</ele>
        <time>2020-06-14T08:23:32Z</time>
      </trkpt>
      <trkpt lat="43.25798" lon="5.62082">
        <ele>345.625</ele>
        <time>2020-06-14T08:23:33Z</time>
      </trkpt>
      <trkpt lat="43.25803" lon="5.62107">
        <ele>346.58203125</ele>
        <time>2020-06-14T08:23:42Z</time>
      </trkpt>
      <trkpt lat="43.25804" lon="5.62109">
        <ele>346.58203125</ele>
        <time>2020-06-14T08:23:43Z</time>
      </trkpt>
      <trkpt lat="43.25805" lon="5.62111">
        <ele>346.66015625</ele>
        <time>2020-06-14T08:23:44Z</time>
      </trkpt>
      <trkpt lat="43.25805" lon="5.62114">
        <ele>346.8671875</ele>
        <time>2020-06-14T08:23:45Z</time>
      </trkpt>
      <trkpt lat="43.25806" lon="5.62117">
        <ele>347.09375</ele>
        <time>2020-06-14T08:23:46Z</time>
      </trkpt>
      <trkpt lat="43.25807" lon="5.62119">
        <ele>347.1953125</ele>
        <time>2020-06-14T08:23:47Z</time>
      </trkpt>
      <trkpt lat="43.25807" lon="5.62122">
        <ele>347.3046875</ele>
        <time>2020-06-14T08:23:48Z</time>
      </trkpt>
      <trkpt lat="43.25808" lon="5.62125">
        <ele>347.421875</ele>
        <time>2020-06-14T08:23:49Z</time>
      </trkpt>
      <trkpt lat="43.25809" lon="5.62128">
        <ele>347.7421875</ele>
        <time>2020-06-14T08:23:50Z</time>
      </trkpt>
      <trkpt lat="43.25809" lon="5.62131">
        <ele>347.98046875</ele>
        <time>2020-06-14T08:23:51Z</time>
      </trkpt>
      <trkpt lat="43.25809" lon="5.62134">
        <ele>347.98046875</ele>
        <time>2020-06-14T08:23:52Z</time>
      </trkpt>
      <trkpt lat="43.25814" lon="5.62146">
        <ele>346.3828125</ele>
        <time>2020-06-14T08:23:56Z</time>
      </trkpt>
      <trkpt lat="43.25815" lon="5.6215">
        <ele>346.37890625</ele>
        <time>2020-06-14T08:23:57Z</time>
      </trkpt>
      <trkpt lat="43.25815" lon="5.62153">
        <ele>346.328125</ele>
        <time>2020-06-14T08:23:58Z</time>
      </trkpt>
      <trkpt lat="43.25816" lon="5.62157">
        <ele>346.22265625</ele>
        <time>2020-06-14T08:23:59Z</time>
      </trkpt>
      <trkpt lat="43.25817" lon="5.62161">
        <ele>346.21875</ele>
        <time>2020-06-14T08:24:00Z</time>
      </trkpt>
      <trkpt lat="43.25827" lon="5.62218">
        <ele>345.9296875</ele>
        <time>2020-06-14T08:24:16Z</time>
      </trkpt>
      <trkpt lat="43.25823" lon="5.62276">
        <ele>344.8203125</ele>
        <time>2020-06-14T08:24:29Z</time>
      </trkpt>
      <trkpt lat="43.2582" lon="5.62298">
        <ele>344.66796875</ele>
        <time>2020-06-14T08:24:33Z</time>
      </trkpt>
      <trkpt lat="43.25819" lon="5.62304">
        <ele>344.6328125</ele>
        <time>2020-06-14T08:24:34Z</time>
      </trkpt>
      <trkpt lat="43.25818" lon="5.6231">
        <ele>344.625</ele>
        <time>2020-06-14T08:24:35Z</time>
      </trkpt>
      <trkpt lat="43.25817" lon="5.62316">
        <ele>344.6796875</ele>
        <time>2020-06-14T08:24:36Z</time>
      </trkpt>
      <trkpt lat="43.25816" lon="5.62321">
        <ele>344.765625</ele>
        <time>2020-06-14T08:24:37Z</time>
      </trkpt>
      <trkpt lat="43.25803" lon="5.62382">
        <ele>343.62890625</ele>
        <time>2020-06-14T08:24:46Z</time>
      </trkpt>
      <trkpt lat="43.25787" lon="5.62476">
        <ele>347.18359375</ele>
        <time>2020-06-14T08:24:58Z</time>
      </trkpt>
      <trkpt lat="43.25777" lon="5.62537">
        <ele>350.3828125</ele>
        <time>2020-06-14T08:25:11Z</time>
      </trkpt>
      <trkpt lat="43.2577" lon="5.626">
        <ele>352.1796875</ele>
        <time>2020-06-14T08:25:26Z</time>
      </trkpt>
      <trkpt lat="43.25771" lon="5.62627">
        <ele>352.09375</ele>
        <time>2020-06-14T08:25:34Z</time>
      </trkpt>
      <trkpt lat="43.25772" lon="5.6263">
        <ele>351.99609375</ele>
        <time>2020-06-14T08:25:35Z</time>
      </trkpt>
      <trkpt lat="43.25773" lon="5.62632">
        <ele>351.8828125</ele>
        <time>2020-06-14T08:25:36Z</time>
      </trkpt>
      <trkpt lat="43.25776" lon="5.62633">
        <ele>351.703125</ele>
        <time>2020-06-14T08:25:37Z</time>
      </trkpt>
      <trkpt lat="43.25778" lon="5.62635">
        <ele>351.49609375</ele>
        <time>2020-06-14T08:25:38Z</time>
      </trkpt>
      <trkpt lat="43.2578" lon="5.62637">
        <ele>351.37109375</ele>
        <time>2020-06-14T08:25:39Z</time>
      </trkpt>
      <trkpt lat="43.25782" lon="5.6264">
        <ele>351.28125</ele>
        <time>2020-06-14T08:25:40Z</time>
      </trkpt>
      <trkpt lat="43.25803" lon="5.62686">
        <ele>348.80859375</ele>
        <time>2020-06-14T08:25:52Z</time>
      </trkpt>
      <trkpt lat="43.25804" lon="5.62691">
        <ele>348.59375</ele>
        <time>2020-06-14T08:25:53Z</time>
      </trkpt>
      <trkpt lat="43.25823" lon="5.6273">
        <ele>346.05078125</ele>
        <time>2020-06-14T08:26:03Z</time>
      </trkpt>
      <trkpt lat="43.25827" lon="5.6274">
        <ele>345.61328125</ele>
        <time>2020-06-14T08:26:05Z</time>
      </trkpt>
      <trkpt lat="43.25839" lon="5.62772">
        <ele>344.29296875</ele>
        <time>2020-06-14T08:26:10Z</time>
      </trkpt>
      <trkpt lat="43.25842" lon="5.62778">
        <ele>343.7109375</ele>
        <time>2020-06-14T08:26:11Z</time>
      </trkpt>
      <trkpt lat="43.25843" lon="5.62785">
        <ele>343.55859375</ele>
        <time>2020-06-14T08:26:12Z</time>
      </trkpt>
      <trkpt lat="43.25844" lon="5.62791">
        <ele>343.6171875</ele>
        <time>2020-06-14T08:26:13Z</time>
      </trkpt>
      <trkpt lat="43.25848" lon="5.6281">
        <ele>343.37890625</ele>
        <time>2020-06-14T08:26:16Z</time>
      </trkpt>
      <trkpt lat="43.25853" lon="5.62821">
        <ele>342.8671875</ele>
        <time>2020-06-14T08:26:18Z</time>
      </trkpt>
      <trkpt lat="43.25861" lon="5.62841">
        <ele>342.140625</ele>
        <time>2020-06-14T08:26:26Z</time>
      </trkpt>
      <trkpt lat="43.25864" lon="5.62848">
        <ele>341.9765625</ele>
        <time>2020-06-14T08:26:42Z</time>
      </trkpt>
      <trkpt lat="43.25864" lon="5.6285">
        <ele>342.0390625</ele>
        <time>2020-06-14T08:26:43Z</time>
      </trkpt>
      <trkpt lat="43.25864" lon="5.62853">
        <ele>342.08203125</ele>
        <time>2020-06-14T08:26:44Z</time>
      </trkpt>
      <trkpt lat="43.25864" lon="5.62856">
        <ele>342.12890625</ele>
        <time>2020-06-14T08:26:45Z</time>
      </trkpt>
      <trkpt lat="43.25864" lon="5.62859">
        <ele>342.265625</ele>
        <time>2020-06-14T08:26:46Z</time>
      </trkpt>
      <trkpt lat="43.25863" lon="5.62862">
        <ele>342.4921875</ele>
        <time>2020-06-14T08:26:47Z</time>
      </trkpt>
      <trkpt lat="43.25859" lon="5.62862">
        <ele>343.0390625</ele>
        <time>2020-06-14T08:26:49Z</time>
      </trkpt>
      <trkpt lat="43.25855" lon="5.62857">
        <ele>343.51171875</ele>
        <time>2020-06-14T08:26:59Z</time>
      </trkpt>
      <trkpt lat="43.25855" lon="5.62851">
        <ele>343.375</ele>
        <time>2020-06-14T08:27:03Z</time>
      </trkpt>
      <trkpt lat="43.25858" lon="5.62846">
        <ele>342.734375</ele>
        <time>2020-06-14T08:27:07Z</time>
      </trkpt>
      <trkpt lat="43.25846" lon="5.62836">
        <ele>344.4140625</ele>
        <time>2020-06-14T08:27:17Z</time>
      </trkpt>
      <trkpt lat="43.25842" lon="5.62836">
        <ele>345.16796875</ele>
        <time>2020-06-14T08:27:19Z</time>
      </trkpt>
      <trkpt lat="43.25823" lon="5.62837">
        <ele>346.5</ele>
        <time>2020-06-14T08:27:24Z</time>
      </trkpt>
      <trkpt lat="43.25818" lon="5.62837">
        <ele>346.65234375</ele>
        <time>2020-06-14T08:27:25Z</time>
      </trkpt>
      <trkpt lat="43.25803" lon="5.62838">
        <ele>347.27734375</ele>
        <time>2020-06-14T08:27:32Z</time>
      </trkpt>
      <trkpt lat="43.25801" lon="5.62839">
        <ele>347.3828125</ele>
        <time>2020-06-14T08:27:33Z</time>
      </trkpt>
      <trkpt lat="43.25799" lon="5.6284">
        <ele>347.49609375</ele>
        <time>2020-06-14T08:27:34Z</time>
      </trkpt>
      <trkpt lat="43.2578" lon="5.62844">
        <ele>348.328125</ele>
        <time>2020-06-14T08:27:40Z</time>
      </trkpt>
      <trkpt lat="43.25779" lon="5.62846">
        <ele>348.43359375</ele>
        <time>2020-06-14T08:27:41Z</time>
      </trkpt>
      <trkpt lat="43.25777" lon="5.62849">
        <ele>348.48046875</ele>
        <time>2020-06-14T08:27:42Z</time>
      </trkpt>
      <trkpt lat="43.25764" lon="5.62885">
        <ele>349.1171875</ele>
        <time>2020-06-14T08:27:54Z</time>
      </trkpt>
      <trkpt lat="43.25741" lon="5.62918">
        <ele>350.46875</ele>
        <time>2020-06-14T08:28:07Z</time>
      </trkpt>
      <trkpt lat="43.25712" lon="5.62935">
        <ele>351.94921875</ele>
        <time>2020-06-14T08:28:21Z</time>
      </trkpt>
      <trkpt lat="43.25691" lon="5.62935">
        <ele>353.50390625</ele>
        <time>2020-06-14T08:28:34Z</time>
      </trkpt>
      <trkpt lat="43.25691" lon="5.62933">
        <ele>353.6171875</ele>
        <time>2020-06-14T08:28:35Z</time>
      </trkpt>
      <trkpt lat="43.25691" lon="5.62931">
        <ele>353.7109375</ele>
        <time>2020-06-14T08:28:36Z</time>
      </trkpt>
      <trkpt lat="43.25692" lon="5.62929">
        <ele>353.7734375</ele>
        <time>2020-06-14T08:28:37Z</time>
      </trkpt>
      <trkpt lat="43.25692" lon="5.62927">
        <ele>353.9140625</ele>
        <time>2020-06-14T08:28:38Z</time>
      </trkpt>
      <trkpt lat="43.25693" lon="5.62924">
        <ele>354.06640625</ele>
        <time>2020-06-14T08:28:39Z</time>
      </trkpt>
      <trkpt lat="43.25693" lon="5.62922">
        <ele>354.21875</ele>
        <time>2020-06-14T08:28:40Z</time>
      </trkpt>
      <trkpt lat="43.25693" lon="5.62919">
        <ele>354.375</ele>
        <time>2020-06-14T08:28:41Z</time>
      </trkpt>
      <trkpt lat="43.25692" lon="5.62917">
        <ele>354.5625</ele>
        <time>2020-06-14T08:28:42Z</time>
      </trkpt>
      <trkpt lat="43.25689" lon="5.62885">
        <ele>356.10546875</ele>
        <time>2020-06-14T08:28:54Z</time>
      </trkpt>
      <trkpt lat="43.25688" lon="5.62883">
        <ele>356.20703125</ele>
        <time>2020-06-14T08:28:55Z</time>
      </trkpt>
      <trkpt lat="43.25687" lon="5.62881">
        <ele>356.296875</ele>
        <time>2020-06-14T08:28:56Z</time>
      </trkpt>
      <trkpt lat="43.25687" lon="5.62879">
        <ele>356.37109375</ele>
        <time>2020-06-14T08:28:57Z</time>
      </trkpt>
      <trkpt lat="43.25687" lon="5.62877">
        <ele>356.421875</ele>
        <time>2020-06-14T08:28:58Z</time>
      </trkpt>
      <trkpt lat="43.25688" lon="5.62875">
        <ele>356.453125</ele>
        <time>2020-06-14T08:28:59Z</time>
      </trkpt>
      <trkpt lat="43.25688" lon="5.62874">
        <ele>356.484375</ele>
        <time>2020-06-14T08:29:00Z</time>
      </trkpt>
      <trkpt lat="43.25688" lon="5.62872">
        <ele>356.52734375</ele>
        <time>2020-06-14T08:29:01Z</time>
      </trkpt>
      <trkpt lat="43.25687" lon="5.62868">
        <ele>356.63671875</ele>
        <time>2020-06-14T08:29:03Z</time>
      </trkpt>
      <trkpt lat="43.25686" lon="5.62867">
        <ele>356.69140625</ele>
        <time>2020-06-14T08:29:04Z</time>
      </trkpt>
      <trkpt lat="43.25685" lon="5.62865">
        <ele>356.73828125</ele>
        <time>2020-06-14T08:29:05Z</time>
      </trkpt>
      <trkpt lat="43.25685" lon="5.62863">
        <ele>356.77734375</ele>
        <time>2020-06-14T08:29:06Z</time>
      </trkpt>
      <trkpt lat="43.25685" lon="5.62861">
        <ele>356.80859375</ele>
        <time>2020-06-14T08:29:07Z</time>
      </trkpt>
      <trkpt lat="43.25685" lon="5.62859">
        <ele>356.8515625</ele>
        <time>2020-06-14T08:29:08Z</time>
      </trkpt>
      <trkpt lat="43.25684" lon="5.62857">
        <ele>356.89453125</ele>
        <time>2020-06-14T08:29:09Z</time>
      </trkpt>
      <trkpt lat="43.25681" lon="5.62856">
        <ele>356.9375</ele>
        <time>2020-06-14T08:29:12Z</time>
      </trkpt>
      <trkpt lat="43.2568" lon="5.62855">
        <ele>356.953125</ele>
        <time>2020-06-14T08:29:13Z</time>
      </trkpt>
      <trkpt lat="43.25678" lon="5.62855">
        <ele>356.96875</ele>
        <time>2020-06-14T08:29:14Z</time>
      </trkpt>
      <trkpt lat="43.25676" lon="5.62854">
        <ele>356.984375</ele>
        <time>2020-06-14T08:29:15Z</time>
      </trkpt>
      <trkpt lat="43.25674" lon="5.62852">
        <ele>356.99609375</ele>
        <time>2020-06-14T08:29:16Z</time>
      </trkpt>
      <trkpt lat="43.25673" lon="5.6285">
        <ele>357.0546875</ele>
        <time>2020-06-14T08:29:17Z</time>
      </trkpt>
      <trkpt lat="43.25672" lon="5.62848">
        <ele>357.12890625</ele>
        <time>2020-06-14T08:29:18Z</time>
      </trkpt>
      <trkpt lat="43.25671" lon="5.62845">
        <ele>357.2109375</ele>
        <time>2020-06-14T08:29:19Z</time>
      </trkpt>
      <trkpt lat="43.25669" lon="5.62843">
        <ele>357.3046875</ele>
        <time>2020-06-14T08:29:20Z</time>
      </trkpt>
      <trkpt lat="43.25668" lon="5.62841">
        <ele>357.40234375</ele>
        <time>2020-06-14T08:29:21Z</time>
      </trkpt>
      <trkpt lat="43.25667" lon="5.6284">
        <ele>357.4921875</ele>
        <time>2020-06-14T08:29:22Z</time>
      </trkpt>
      <trkpt lat="43.25665" lon="5.62838">
        <ele>357.5859375</ele>
        <time>2020-06-14T08:29:23Z</time>
      </trkpt>
      <trkpt lat="43.25661" lon="5.62829">
        <ele>357.8671875</ele>
        <time>2020-06-14T08:29:28Z</time>
      </trkpt>
      <trkpt lat="43.25662" lon="5.62827">
        <ele>357.92578125</ele>
        <time>2020-06-14T08:29:29Z</time>
      </trkpt>
      <trkpt lat="43.25674" lon="5.62798">
        <ele>357.8671875</ele>
        <time>2020-06-14T08:29:38Z</time>
      </trkpt>
      <trkpt lat="43.25675" lon="5.62793">
        <ele>357.71875</ele>
        <time>2020-06-14T08:29:40Z</time>
      </trkpt>
      <trkpt lat="43.25675" lon="5.62791">
        <ele>357.6640625</ele>
        <time>2020-06-14T08:29:41Z</time>
      </trkpt>
      <trkpt lat="43.25673" lon="5.62789">
        <ele>357.64453125</ele>
        <time>2020-06-14T08:29:42Z</time>
      </trkpt>
      <trkpt lat="43.25651" lon="5.62769">
        <ele>357.00390625</ele>
        <time>2020-06-14T08:29:55Z</time>
      </trkpt>
      <trkpt lat="43.25643" lon="5.6276">
        <ele>356.72265625</ele>
        <time>2020-06-14T08:29:57Z</time>
      </trkpt>
      <trkpt lat="43.25638" lon="5.62758">
        <ele>356.4609375</ele>
        <time>2020-06-14T08:29:58Z</time>
      </trkpt>
      <trkpt lat="43.25631" lon="5.62755">
        <ele>356.1484375</ele>
        <time>2020-06-14T08:29:59Z</time>
      </trkpt>
      <trkpt lat="43.25624" lon="5.62752">
        <ele>355.7734375</ele>
        <time>2020-06-14T08:30:00Z</time>
      </trkpt>
      <trkpt lat="43.25618" lon="5.62748">
        <ele>355.3828125</ele>
        <time>2020-06-14T08:30:01Z</time>
      </trkpt>
      <trkpt lat="43.25612" lon="5.62745">
        <ele>354.90234375</ele>
        <time>2020-06-14T08:30:02Z</time>
      </trkpt>
      <trkpt lat="43.25606" lon="5.62743">
        <ele>354.20703125</ele>
        <time>2020-06-14T08:30:03Z</time>
      </trkpt>
      <trkpt lat="43.25601" lon="5.62742">
        <ele>353.55078125</ele>
        <time>2020-06-14T08:30:04Z</time>
      </trkpt>
      <trkpt lat="43.25595" lon="5.62742">
        <ele>352.94921875</ele>
        <time>2020-06-14T08:30:05Z</time>
      </trkpt>
      <trkpt lat="43.25589" lon="5.62743">
        <ele>352.41015625</ele>
        <time>2020-06-14T08:30:06Z</time>
      </trkpt>
      <trkpt lat="43.25583" lon="5.62744">
        <ele>351.79296875</ele>
        <time>2020-06-14T08:30:07Z</time>
      </trkpt>
      <trkpt lat="43.25577" lon="5.62743">
        <ele>351.05859375</ele>
        <time>2020-06-14T08:30:08Z</time>
      </trkpt>
      <trkpt lat="43.2557" lon="5.62742">
        <ele>350.265625</ele>
        <time>2020-06-14T08:30:09Z</time>
      </trkpt>
      <trkpt lat="43.25564" lon="5.6274">
        <ele>349.49609375</ele>
        <time>2020-06-14T08:30:10Z</time>
      </trkpt>
      <trkpt lat="43.25558" lon="5.62736">
        <ele>348.765625</ele>
        <time>2020-06-14T08:30:11Z</time>
      </trkpt>
      <trkpt lat="43.25552" lon="5.62731">
        <ele>348.0625</ele>
        <time>2020-06-14T08:30:12Z</time>
      </trkpt>
      <trkpt lat="43.25546" lon="5.62724">
        <ele>347.2421875</ele>
        <time>2020-06-14T08:30:13Z</time>
      </trkpt>
      <trkpt lat="43.25541" lon="5.62716">
        <ele>346.28125</ele>
        <time>2020-06-14T08:30:14Z</time>
      </trkpt>
      <trkpt lat="43.25535" lon="5.62708">
        <ele>345.328125</ele>
        <time>2020-06-14T08:30:15Z</time>
      </trkpt>
      <trkpt lat="43.25529" lon="5.627">
        <ele>344.41796875</ele>
        <time>2020-06-14T08:30:16Z</time>
      </trkpt>
      <trkpt lat="43.25524" lon="5.62693">
        <ele>343.73828125</ele>
        <time>2020-06-14T08:30:17Z</time>
      </trkpt>
      <trkpt lat="43.25514" lon="5.62676">
        <ele>342.875</ele>
        <time>2020-06-14T08:30:19Z</time>
      </trkpt>
      <trkpt lat="43.25508" lon="5.62669">
        <ele>342.46875</ele>
        <time>2020-06-14T08:30:20Z</time>
      </trkpt>
      <trkpt lat="43.25492" lon="5.62648">
        <ele>341.03125</ele>
        <time>2020-06-14T08:30:23Z</time>
      </trkpt>
      <trkpt lat="43.25482" lon="5.62634">
        <ele>339.7890625</ele>
        <time>2020-06-14T08:30:25Z</time>
      </trkpt>
      <trkpt lat="43.25478" lon="5.62627">
        <ele>339.19140625</ele>
        <time>2020-06-14T08:30:26Z</time>
      </trkpt>
      <trkpt lat="43.25459" lon="5.62562">
        <ele>334.38671875</ele>
        <time>2020-06-14T08:30:33Z</time>
      </trkpt>
      <trkpt lat="43.25456" lon="5.62551">
        <ele>333.75390625</ele>
        <time>2020-06-14T08:30:34Z</time>
      </trkpt>
      <trkpt lat="43.25443" lon="5.62512">
        <ele>330.41015625</ele>
        <time>2020-06-14T08:30:38Z</time>
      </trkpt>
      <trkpt lat="43.25436" lon="5.62496">
        <ele>329.34375</ele>
        <time>2020-06-14T08:30:40Z</time>
      </trkpt>
      <trkpt lat="43.25434" lon="5.62489">
        <ele>328.9296875</ele>
        <time>2020-06-14T08:30:41Z</time>
      </trkpt>
      <trkpt lat="43.25433" lon="5.62484">
        <ele>328.62109375</ele>
        <time>2020-06-14T08:30:42Z</time>
      </trkpt>
      <trkpt lat="43.25431" lon="5.62468">
        <ele>327.64453125</ele>
        <time>2020-06-14T08:30:52Z</time>
      </trkpt>
      <trkpt lat="43.25428" lon="5.62453">
        <ele>327.02734375</ele>
        <time>2020-06-14T08:30:55Z</time>
      </trkpt>
      <trkpt lat="43.25426" lon="5.62446">
        <ele>326.734375</ele>
        <time>2020-06-14T08:30:56Z</time>
      </trkpt>
      <trkpt lat="43.25408" lon="5.62375">
        <ele>323.05078125</ele>
        <time>2020-06-14T08:31:04Z</time>
      </trkpt>
      <trkpt lat="43.25388" lon="5.62368">
        <ele>321.76171875</ele>
        <time>2020-06-14T08:31:13Z</time>
      </trkpt>
      <trkpt lat="43.25387" lon="5.62371">
        <ele>321.76953125</ele>
        <time>2020-06-14T08:31:14Z</time>
      </trkpt>
      <trkpt lat="43.25386" lon="5.62382">
        <ele>321.83203125</ele>
        <time>2020-06-14T08:31:18Z</time>
      </trkpt>
      <trkpt lat="43.25385" lon="5.62383">
        <ele>321.8671875</ele>
        <time>2020-06-14T08:31:19Z</time>
      </trkpt>
      <trkpt lat="43.25384" lon="5.62385">
        <ele>321.890625</ele>
        <time>2020-06-14T08:31:20Z</time>
      </trkpt>
      <trkpt lat="43.25383" lon="5.62387">
        <ele>321.92578125</ele>
        <time>2020-06-14T08:31:21Z</time>
      </trkpt>
      <trkpt lat="43.25361" lon="5.62394">
        <ele>321.45703125</ele>
        <time>2020-06-14T08:31:31Z</time>
      </trkpt>
      <trkpt lat="43.25358" lon="5.62394">
        <ele>321.4296875</ele>
        <time>2020-06-14T08:31:32Z</time>
      </trkpt>
      <trkpt lat="43.25356" lon="5.62396">
        <ele>321.4453125</ele>
        <time>2020-06-14T08:31:33Z</time>
      </trkpt>
      <trkpt lat="43.25354" lon="5.62397">
        <ele>321.484375</ele>
        <time>2020-06-14T08:31:34Z</time>
      </trkpt>
      <trkpt lat="43.25353" lon="5.62398">
        <ele>321.52734375</ele>
        <time>2020-06-14T08:31:35Z</time>
      </trkpt>
      <trkpt lat="43.25352" lon="5.624">
        <ele>321.58984375</ele>
        <time>2020-06-14T08:31:36Z</time>
      </trkpt>
      <trkpt lat="43.2535" lon="5.62401">
        <ele>321.67578125</ele>
        <time>2020-06-14T08:31:37Z</time>
      </trkpt>
      <trkpt lat="43.25347" lon="5.62405">
        <ele>321.86328125</ele>
        <time>2020-06-14T08:31:39Z</time>
      </trkpt>
      <trkpt lat="43.25346" lon="5.62407">
        <ele>321.99609375</ele>
        <time>2020-06-14T08:31:40Z</time>
      </trkpt>
      <trkpt lat="43.25345" lon="5.6241">
        <ele>322.16796875</ele>
        <time>2020-06-14T08:31:41Z</time>
      </trkpt>
      <trkpt lat="43.25326" lon="5.62441">
        <ele>323.58203125</ele>
        <time>2020-06-14T08:31:51Z</time>
      </trkpt>
      <trkpt lat="43.25308" lon="5.62479">
        <ele>324.9375</ele>
        <time>2020-06-14T08:32:01Z</time>
      </trkpt>
      <trkpt lat="43.25292" lon="5.62506">
        <ele>324.6953125</ele>
        <time>2020-06-14T08:32:07Z</time>
      </trkpt>
      <trkpt lat="43.25265" lon="5.62546">
        <ele>323.23046875</ele>
        <time>2020-06-14T08:32:17Z</time>
      </trkpt>
      <trkpt lat="43.25264" lon="5.62552">
        <ele>323.48046875</ele>
        <time>2020-06-14T08:32:18Z</time>
      </trkpt>
      <trkpt lat="43.2526" lon="5.62593">
        <ele>324.6171875</ele>
        <time>2020-06-14T08:32:28Z</time>
      </trkpt>
      <trkpt lat="43.25253" lon="5.62641">
        <ele>324.40625</ele>
        <time>2020-06-14T08:32:38Z</time>
      </trkpt>
      <trkpt lat="43.25253" lon="5.62654">
        <ele>324.79296875</ele>
        <time>2020-06-14T08:32:40Z</time>
      </trkpt>
      <trkpt lat="43.25254" lon="5.62667">
        <ele>325</ele>
        <time>2020-06-14T08:32:42Z</time>
      </trkpt>
      <trkpt lat="43.25254" lon="5.62672">
        <ele>325.0078125</ele>
        <time>2020-06-14T08:32:43Z</time>
      </trkpt>
      <trkpt lat="43.25255" lon="5.62712">
        <ele>325.33203125</ele>
        <time>2020-06-14T08:32:51Z</time>
      </trkpt>
      <trkpt lat="43.25258" lon="5.62756">
        <ele>325.71875</ele>
        <time>2020-06-14T08:32:59Z</time>
      </trkpt>
      <trkpt lat="43.25259" lon="5.62762">
        <ele>325.91796875</ele>
        <time>2020-06-14T08:33:00Z</time>
      </trkpt>
      <trkpt lat="43.2526" lon="5.62768">
        <ele>326.109375</ele>
        <time>2020-06-14T08:33:01Z</time>
      </trkpt>
      <trkpt lat="43.25261" lon="5.62773">
        <ele>326.19140625</ele>
        <time>2020-06-14T08:33:02Z</time>
      </trkpt>
      <trkpt lat="43.25263" lon="5.62779">
        <ele>326.2578125</ele>
        <time>2020-06-14T08:33:03Z</time>
      </trkpt>
      <trkpt lat="43.25264" lon="5.62785">
        <ele>326.265625</ele>
        <time>2020-06-14T08:33:04Z</time>
      </trkpt>
      <trkpt lat="43.25265" lon="5.62791">
        <ele>326.25</ele>
        <time>2020-06-14T08:33:05Z</time>
      </trkpt>
      <trkpt lat="43.25266" lon="5.62798">
        <ele>326.1875</ele>
        <time>2020-06-14T08:33:06Z</time>
      </trkpt>
      <trkpt lat="43.25266" lon="5.62804">
        <ele>326.28125</ele>
        <time>2020-06-14T08:33:07Z</time>
      </trkpt>
      <trkpt lat="43.25267" lon="5.6281">
        <ele>326.34765625</ele>
        <time>2020-06-14T08:33:08Z</time>
      </trkpt>
      <trkpt lat="43.25267" lon="5.62816">
        <ele>326.453125</ele>
        <time>2020-06-14T08:33:09Z</time>
      </trkpt>
      <trkpt lat="43.25268" lon="5.6282">
        <ele>326.62109375</ele>
        <time>2020-06-14T08:33:10Z</time>
      </trkpt>
      <trkpt lat="43.25269" lon="5.62824">
        <ele>326.7890625</ele>
        <time>2020-06-14T08:33:11Z</time>
      </trkpt>
      <trkpt lat="43.25273" lon="5.62867">
        <ele>326.7890625</ele>
        <time>2020-06-14T08:33:19Z</time>
      </trkpt>
      <trkpt lat="43.25273" lon="5.62889">
        <ele>327.171875</ele>
        <time>2020-06-14T08:33:23Z</time>
      </trkpt>
      <trkpt lat="43.25274" lon="5.62895">
        <ele>327.55859375</ele>
        <time>2020-06-14T08:33:24Z</time>
      </trkpt>
      <trkpt lat="43.25282" lon="5.62955">
        <ele>329.17578125</ele>
        <time>2020-06-14T08:33:36Z</time>
      </trkpt>
      <trkpt lat="43.25279" lon="5.62975">
        <ele>328.31640625</ele>
        <time>2020-06-14T08:33:41Z</time>
      </trkpt>
      <trkpt lat="43.25279" lon="5.62979">
        <ele>328.21484375</ele>
        <time>2020-06-14T08:33:42Z</time>
      </trkpt>
      <trkpt lat="43.2528" lon="5.62984">
        <ele>328.15234375</ele>
        <time>2020-06-14T08:33:43Z</time>
      </trkpt>
      <trkpt lat="43.25281" lon="5.62988">
        <ele>328.1171875</ele>
        <time>2020-06-14T08:33:44Z</time>
      </trkpt>
      <trkpt lat="43.25283" lon="5.62991">
        <ele>328.2578125</ele>
        <time>2020-06-14T08:33:45Z</time>
      </trkpt>
      <trkpt lat="43.25286" lon="5.63008">
        <ele>328.7890625</ele>
        <time>2020-06-14T08:33:51Z</time>
      </trkpt>
      <trkpt lat="43.25287" lon="5.63011">
        <ele>328.8828125</ele>
        <time>2020-06-14T08:33:52Z</time>
      </trkpt>
      <trkpt lat="43.25287" lon="5.63014">
        <ele>328.91796875</ele>
        <time>2020-06-14T08:33:53Z</time>
      </trkpt>
      <trkpt lat="43.25288" lon="5.63015">
        <ele>329.04296875</ele>
        <time>2020-06-14T08:34:04Z</time>
      </trkpt>
      <trkpt lat="43.25287" lon="5.63011">
        <ele>328.8828125</ele>
        <time>2020-06-14T08:34:16Z</time>
      </trkpt>
      <trkpt lat="43.25286" lon="5.63006">
        <ele>328.67578125</ele>
        <time>2020-06-14T08:34:27Z</time>
      </trkpt>
      <trkpt lat="43.25287" lon="5.63009">
        <ele>328.953125</ele>
        <time>2020-06-14T08:34:41Z</time>
      </trkpt>
      <trkpt lat="43.25282" lon="5.63009">
        <ele>328.03515625</ele>
        <time>2020-06-14T08:35:09Z</time>
      </trkpt>
      <trkpt lat="43.25285" lon="5.63008">
        <ele>328.61328125</ele>
        <time>2020-06-14T08:35:29Z</time>
      </trkpt>
      <trkpt lat="43.25286" lon="5.63015">
        <ele>328.73828125</ele>
        <time>2020-06-14T08:35:32Z</time>
      </trkpt>
      <trkpt lat="43.253" lon="5.63081">
        <ele>330.71484375</ele>
        <time>2020-06-14T08:35:46Z</time>
      </trkpt>
      <trkpt lat="43.25315" lon="5.6316">
        <ele>333.9296875</ele>
        <time>2020-06-14T08:36:02Z</time>
      </trkpt>
      <trkpt lat="43.25325" lon="5.63206">
        <ele>335.82421875</ele>
        <time>2020-06-14T08:36:18Z</time>
      </trkpt>
      <trkpt lat="43.25335" lon="5.63245">
        <ele>337.71875</ele>
        <time>2020-06-14T08:36:33Z</time>
      </trkpt>
      <trkpt lat="43.25343" lon="5.6329">
        <ele>339.09765625</ele>
        <time>2020-06-14T08:36:50Z</time>
      </trkpt>
      <trkpt lat="43.25351" lon="5.63333">
        <ele>340.35546875</ele>
        <time>2020-06-14T08:37:09Z</time>
      </trkpt>
      <trkpt lat="43.25359" lon="5.63371">
        <ele>341.125</ele>
        <time>2020-06-14T08:37:28Z</time>
      </trkpt>
      <trkpt lat="43.25366" lon="5.63407">
        <ele>342.15625</ele>
        <time>2020-06-14T08:37:46Z</time>
      </trkpt>
      <trkpt lat="43.25359" lon="5.63434">
        <ele>342.56640625</ele>
        <time>2020-06-14T08:38:01Z</time>
      </trkpt>
      <trkpt lat="43.25343" lon="5.63444">
        <ele>341.9140625</ele>
        <time>2020-06-14T08:38:10Z</time>
      </trkpt>
      <trkpt lat="43.25349" lon="5.63452">
        <ele>342.83203125</ele>
        <time>2020-06-14T08:38:16Z</time>
      </trkpt>
      <trkpt lat="43.2537" lon="5.63445">
        <ele>344.46875</ele>
        <time>2020-06-14T08:38:29Z</time>
      </trkpt>
      <trkpt lat="43.25374" lon="5.63444">
        <ele>344.9296875</ele>
        <time>2020-06-14T08:38:32Z</time>
      </trkpt>
      <trkpt lat="43.25377" lon="5.63444">
        <ele>345.33984375</ele>
        <time>2020-06-14T08:38:34Z</time>
      </trkpt>
      <trkpt lat="43.25384" lon="5.63441">
        <ele>346.08203125</ele>
        <time>2020-06-14T08:38:38Z</time>
      </trkpt>
      <trkpt lat="43.25385" lon="5.63441">
        <ele>346.21875</ele>
        <time>2020-06-14T08:38:39Z</time>
      </trkpt>
      <trkpt lat="43.25386" lon="5.63441">
        <ele>346.35546875</ele>
        <time>2020-06-14T08:38:40Z</time>
      </trkpt>
      <trkpt lat="43.25387" lon="5.63443">
        <ele>346.51171875</ele>
        <time>2020-06-14T08:38:41Z</time>
      </trkpt>
      <trkpt lat="43.25387" lon="5.63444">
        <ele>346.640625</ele>
        <time>2020-06-14T08:38:42Z</time>
      </trkpt>
      <trkpt lat="43.25386" lon="5.63458">
        <ele>347.078125</ele>
        <time>2020-06-14T08:38:58Z</time>
      </trkpt>
      <trkpt lat="43.25394" lon="5.63502">
        <ele>350.62890625</ele>
        <time>2020-06-14T08:39:13Z</time>
      </trkpt>
      <trkpt lat="43.25405" lon="5.63546">
        <ele>353.3125</ele>
        <time>2020-06-14T08:39:28Z</time>
      </trkpt>
      <trkpt lat="43.25409" lon="5.63567">
        <ele>354.33203125</ele>
        <time>2020-06-14T08:39:41Z</time>
      </trkpt>
      <trkpt lat="43.25409" lon="5.63568">
        <ele>354.28515625</ele>
        <time>2020-06-14T08:39:44Z</time>
      </trkpt>
      <trkpt lat="43.25413" lon="5.63567">
        <ele>354.86328125</ele>
        <time>2020-06-14T08:39:52Z</time>
      </trkpt>
      <trkpt lat="43.25419" lon="5.63563">
        <ele>355.8828125</ele>
        <time>2020-06-14T08:40:03Z</time>
      </trkpt>
      <trkpt lat="43.25411" lon="5.63567">
        <ele>354.57421875</ele>
        <time>2020-06-14T08:40:17Z</time>
      </trkpt>
      <trkpt lat="43.25406" lon="5.63565">
        <ele>353.81640625</ele>
        <time>2020-06-14T08:40:36Z</time>
      </trkpt>
      <trkpt lat="43.25403" lon="5.63548">
        <ele>352.9296875</ele>
        <time>2020-06-14T08:40:42Z</time>
      </trkpt>
      <trkpt lat="43.25401" lon="5.63544">
        <ele>352.58984375</ele>
        <time>2020-06-14T08:40:43Z</time>
      </trkpt>
      <trkpt lat="43.25399" lon="5.63539">
        <ele>352.14453125</ele>
        <time>2020-06-14T08:40:44Z</time>
      </trkpt>
      <trkpt lat="43.25395" lon="5.63526">
        <ele>351.3828125</ele>
        <time>2020-06-14T08:40:46Z</time>
      </trkpt>
      <trkpt lat="43.25394" lon="5.63518">
        <ele>351.171875</ele>
        <time>2020-06-14T08:40:47Z</time>
      </trkpt>
      <trkpt lat="43.25392" lon="5.63509">
        <ele>350.67578125</ele>
        <time>2020-06-14T08:40:48Z</time>
      </trkpt>
      <trkpt lat="43.2539" lon="5.635">
        <ele>350.0390625</ele>
        <time>2020-06-14T08:40:49Z</time>
      </trkpt>
      <trkpt lat="43.25388" lon="5.6349">
        <ele>349.39453125</ele>
        <time>2020-06-14T08:40:50Z</time>
      </trkpt>
      <trkpt lat="43.25386" lon="5.63481">
        <ele>348.53125</ele>
        <time>2020-06-14T08:40:51Z</time>
      </trkpt>
      <trkpt lat="43.25385" lon="5.63471">
        <ele>347.73046875</ele>
        <time>2020-06-14T08:40:52Z</time>
      </trkpt>
      <trkpt lat="43.25385" lon="5.6346">
        <ele>347.1171875</ele>
        <time>2020-06-14T08:40:53Z</time>
      </trkpt>
      <trkpt lat="43.25385" lon="5.63451">
        <ele>346.72265625</ele>
        <time>2020-06-14T08:40:54Z</time>
      </trkpt>
      <trkpt lat="43.25387" lon="5.63432">
        <ele>346.203125</ele>
        <time>2020-06-14T08:40:57Z</time>
      </trkpt>
      <trkpt lat="43.25389" lon="5.63425">
        <ele>346.2109375</ele>
        <time>2020-06-14T08:40:58Z</time>
      </trkpt>
      <trkpt lat="43.2539" lon="5.63419">
        <ele>346.1640625</ele>
        <time>2020-06-14T08:40:59Z</time>
      </trkpt>
      <trkpt lat="43.25391" lon="5.63414">
        <ele>346.01171875</ele>
        <time>2020-06-14T08:41:00Z</time>
      </trkpt>
      <trkpt lat="43.25391" lon="5.63408">
        <ele>345.80078125</ele>
        <time>2020-06-14T08:41:01Z</time>
      </trkpt>
      <trkpt lat="43.2539" lon="5.63404">
        <ele>345.7265625</ele>
        <time>2020-06-14T08:41:02Z</time>
      </trkpt>
      <trkpt lat="43.25391" lon="5.63399">
        <ele>345.81640625</ele>
        <time>2020-06-14T08:41:03Z</time>
      </trkpt>
      <trkpt lat="43.25392" lon="5.63395">
        <ele>345.921875</ele>
        <time>2020-06-14T08:41:04Z</time>
      </trkpt>
      <trkpt lat="43.25392" lon="5.6339">
        <ele>345.93359375</ele>
        <time>2020-06-14T08:41:05Z</time>
      </trkpt>
      <trkpt lat="43.25392" lon="5.63385">
        <ele>345.94140625</ele>
        <time>2020-06-14T08:41:06Z</time>
      </trkpt>
      <trkpt lat="43.25392" lon="5.6338">
        <ele>345.94921875</ele>
        <time>2020-06-14T08:41:07Z</time>
      </trkpt>
      <trkpt lat="43.25387" lon="5.63322">
        <ele>346.2265625</ele>
        <time>2020-06-14T08:41:19Z</time>
      </trkpt>
      <trkpt lat="43.25392" lon="5.63278">
        <ele>347.5859375</ele>
        <time>2020-06-14T08:41:29Z</time>
      </trkpt>
      <trkpt lat="43.25395" lon="5.63275">
        <ele>348.0625</ele>
        <time>2020-06-14T08:41:39Z</time>
      </trkpt>
      <trkpt lat="43.25397" lon="5.63277">
        <ele>348.27734375</ele>
        <time>2020-06-14T08:41:43Z</time>
      </trkpt>
      <trkpt lat="43.25395" lon="5.63275">
        <ele>348.16015625</ele>
        <time>2020-06-14T08:41:52Z</time>
      </trkpt>
      <trkpt lat="43.25395" lon="5.63273">
        <ele>348.12109375</ele>
        <time>2020-06-14T08:41:53Z</time>
      </trkpt>
      <trkpt lat="43.25394" lon="5.63271">
        <ele>348.1015625</ele>
        <time>2020-06-14T08:41:54Z</time>
      </trkpt>
      <trkpt lat="43.25394" lon="5.63235">
        <ele>348.26171875</ele>
        <time>2020-06-14T08:42:04Z</time>
      </trkpt>
      <trkpt lat="43.25396" lon="5.63234">
        <ele>348.4609375</ele>
        <time>2020-06-14T08:42:05Z</time>
      </trkpt>
      <trkpt lat="43.25397" lon="5.63234">
        <ele>348.71484375</ele>
        <time>2020-06-14T08:42:06Z</time>
      </trkpt>
      <trkpt lat="43.25399" lon="5.63237">
        <ele>349.00390625</ele>
        <time>2020-06-14T08:42:07Z</time>
      </trkpt>
      <trkpt lat="43.25401" lon="5.6324">
        <ele>349.1796875</ele>
        <time>2020-06-14T08:42:08Z</time>
      </trkpt>
      <trkpt lat="43.25401" lon="5.63244">
        <ele>349.265625</ele>
        <time>2020-06-14T08:42:09Z</time>
      </trkpt>
      <trkpt lat="43.25419" lon="5.63298">
        <ele>350.875</ele>
        <time>2020-06-14T08:42:24Z</time>
      </trkpt>
      <trkpt lat="43.25427" lon="5.63314">
        <ele>351.55078125</ele>
        <time>2020-06-14T08:42:37Z</time>
      </trkpt>
      <trkpt lat="43.25427" lon="5.63316">
        <ele>351.546875</ele>
        <time>2020-06-14T08:42:48Z</time>
      </trkpt>
      <trkpt lat="43.25426" lon="5.63319">
        <ele>351.4765625</ele>
        <time>2020-06-14T08:42:49Z</time>
      </trkpt>
      <trkpt lat="43.25425" lon="5.63323">
        <ele>351.390625</ele>
        <time>2020-06-14T08:42:50Z</time>
      </trkpt>
      <trkpt lat="43.25424" lon="5.63339">
        <ele>351.30078125</ele>
        <time>2020-06-14T08:42:54Z</time>
      </trkpt>
      <trkpt lat="43.25424" lon="5.63343">
        <ele>351.30078125</ele>
        <time>2020-06-14T08:42:55Z</time>
      </trkpt>
      <trkpt lat="43.25425" lon="5.63346">
        <ele>351.328125</ele>
        <time>2020-06-14T08:42:56Z</time>
      </trkpt>
      <trkpt lat="43.25428" lon="5.63398">
        <ele>352.3671875</ele>
        <time>2020-06-14T08:43:08Z</time>
      </trkpt>
      <trkpt lat="43.25433" lon="5.6346">
        <ele>353.8984375</ele>
        <time>2020-06-14T08:43:23Z</time>
      </trkpt>
      <trkpt lat="43.25439" lon="5.63509">
        <ele>355.68359375</ele>
        <time>2020-06-14T08:43:36Z</time>
      </trkpt>
      <trkpt lat="43.25445" lon="5.63557">
        <ele>357.7578125</ele>
        <time>2020-06-14T08:43:49Z</time>
      </trkpt>
      <trkpt lat="43.25451" lon="5.63607">
        <ele>358.265625</ele>
        <time>2020-06-14T08:44:01Z</time>
      </trkpt>
      <trkpt lat="43.25468" lon="5.63679">
        <ele>359.96484375</ele>
        <time>2020-06-14T08:44:18Z</time>
      </trkpt>
      <trkpt lat="43.25469" lon="5.63712">
        <ele>359.0703125</ele>
        <time>2020-06-14T08:44:25Z</time>
      </trkpt>
      <trkpt lat="43.25479" lon="5.6377">
        <ele>358.40625</ele>
        <time>2020-06-14T08:44:36Z</time>
      </trkpt>
      <trkpt lat="43.2548" lon="5.63774">
        <ele>358.5234375</ele>
        <time>2020-06-14T08:44:37Z</time>
      </trkpt>
      <trkpt lat="43.25482" lon="5.63783">
        <ele>358.74609375</ele>
        <time>2020-06-14T08:44:39Z</time>
      </trkpt>
      <trkpt lat="43.2549" lon="5.63823">
        <ele>359.13671875</ele>
        <time>2020-06-14T08:44:51Z</time>
      </trkpt>
      <trkpt lat="43.25496" lon="5.63852">
        <ele>359.21484375</ele>
        <time>2020-06-14T08:45:02Z</time>
      </trkpt>
      <trkpt lat="43.25503" lon="5.63878">
        <ele>359.94140625</ele>
        <time>2020-06-14T08:45:07Z</time>
      </trkpt>
      <trkpt lat="43.25529" lon="5.6397">
        <ele>361.578125</ele>
        <time>2020-06-14T08:45:26Z</time>
      </trkpt>
      <trkpt lat="43.25547" lon="5.64067">
        <ele>360.578125</ele>
        <time>2020-06-14T08:45:41Z</time>
      </trkpt>
      <trkpt lat="43.2556" lon="5.64113">
        <ele>359.484375</ele>
        <time>2020-06-14T08:45:51Z</time>
      </trkpt>
      <trkpt lat="43.25567" lon="5.64146">
        <ele>357.65234375</ele>
        <time>2020-06-14T08:46:04Z</time>
      </trkpt>
      <trkpt lat="43.25567" lon="5.64148">
        <ele>357.58984375</ele>
        <time>2020-06-14T08:46:15Z</time>
      </trkpt>
      <trkpt lat="43.25568" lon="5.64149">
        <ele>357.52734375</ele>
        <time>2020-06-14T08:46:17Z</time>
      </trkpt>
      <trkpt lat="43.25568" lon="5.64152">
        <ele>357.44140625</ele>
        <time>2020-06-14T08:46:18Z</time>
      </trkpt>
      <trkpt lat="43.25571" lon="5.64214">
        <ele>355.92578125</ele>
        <time>2020-06-14T08:46:28Z</time>
      </trkpt>
      <trkpt lat="43.25574" lon="5.64255">
        <ele>354.1953125</ele>
        <time>2020-06-14T08:46:36Z</time>
      </trkpt>
      <trkpt lat="43.25576" lon="5.64258">
        <ele>354.0703125</ele>
        <time>2020-06-14T08:46:45Z</time>
      </trkpt>
      <trkpt lat="43.25575" lon="5.64262">
        <ele>353.828125</ele>
        <time>2020-06-14T08:46:51Z</time>
      </trkpt>
      <trkpt lat="43.25575" lon="5.64264">
        <ele>353.73046875</ele>
        <time>2020-06-14T08:46:52Z</time>
      </trkpt>
      <trkpt lat="43.25575" lon="5.64267">
        <ele>353.6171875</ele>
        <time>2020-06-14T08:46:53Z</time>
      </trkpt>
      <trkpt lat="43.25577" lon="5.64282">
        <ele>353.15234375</ele>
        <time>2020-06-14T08:47:03Z</time>
      </trkpt>
      <trkpt lat="43.25577" lon="5.64281">
        <ele>353.13671875</ele>
        <time>2020-06-14T08:47:06Z</time>
      </trkpt>
      <trkpt lat="43.25577" lon="5.64281">
        <ele>353.1328125</ele>
        <time>2020-06-14T08:47:07Z</time>
      </trkpt>
      <trkpt lat="43.25576" lon="5.64281">
        <ele>353.12890625</ele>
        <time>2020-06-14T08:47:08Z</time>
      </trkpt>
      <trkpt lat="43.25576" lon="5.64281">
        <ele>353.125</ele>
        <time>2020-06-14T08:47:11Z</time>
      </trkpt>
      <trkpt lat="43.25576" lon="5.64281">
        <ele>353.10546875</ele>
        <time>2020-06-14T08:47:14Z</time>
      </trkpt>
      <trkpt lat="43.25576" lon="5.64282">
        <ele>353.09765625</ele>
        <time>2020-06-14T08:47:39Z</time>
      </trkpt>
      <trkpt lat="43.25576" lon="5.64284">
        <ele>353.00390625</ele>
        <time>2020-06-14T08:47:41Z</time>
      </trkpt>
      <trkpt lat="43.25572" lon="5.64287">
        <ele>352.7734375</ele>
        <time>2020-06-14T08:47:43Z</time>
      </trkpt>
      <trkpt lat="43.25563" lon="5.64286">
        <ele>352.4921875</ele>
        <time>2020-06-14T08:47:46Z</time>
      </trkpt>
      <trkpt lat="43.2556" lon="5.64283">
        <ele>352.48828125</ele>
        <time>2020-06-14T08:47:47Z</time>
      </trkpt>
      <trkpt lat="43.25549" lon="5.64282">
        <ele>351.2734375</ele>
        <time>2020-06-14T08:47:50Z</time>
      </trkpt>
      <trkpt lat="43.2554" lon="5.64289">
        <ele>349.625</ele>
        <time>2020-06-14T08:47:53Z</time>
      </trkpt>
      <trkpt lat="43.25529" lon="5.64303">
        <ele>346.80859375</ele>
        <time>2020-06-14T08:47:59Z</time>
      </trkpt>
      <trkpt lat="43.25522" lon="5.64305">
        <ele>346.3359375</ele>
        <time>2020-06-14T08:48:13Z</time>
      </trkpt>
      <trkpt lat="43.25521" lon="5.64304">
        <ele>346.38671875</ele>
        <time>2020-06-14T08:48:33Z</time>
      </trkpt>
      <trkpt lat="43.25516" lon="5.643">
        <ele>346.796875</ele>
        <time>2020-06-14T08:48:51Z</time>
      </trkpt>
      <trkpt lat="43.25509" lon="5.64302">
        <ele>346.390625</ele>
        <time>2020-06-14T08:48:58Z</time>
      </trkpt>
      <trkpt lat="43.25495" lon="5.643">
        <ele>347.7734375</ele>
        <time>2020-06-14T08:49:06Z</time>
      </trkpt>
      <trkpt lat="43.25482" lon="5.643">
        <ele>349.7265625</ele>
        <time>2020-06-14T08:49:17Z</time>
      </trkpt>
      <trkpt lat="43.25476" lon="5.64292">
        <ele>351.15234375</ele>
        <time>2020-06-14T08:49:32Z</time>
      </trkpt>
      <trkpt lat="43.25477" lon="5.64288">
        <ele>351.34375</ele>
        <time>2020-06-14T08:49:41Z</time>
      </trkpt>
      <trkpt lat="43.25477" lon="5.64279">
        <ele>351.98828125</ele>
        <time>2020-06-14T08:49:45Z</time>
      </trkpt>
      <trkpt lat="43.25476" lon="5.64269">
        <ele>352.828125</ele>
        <time>2020-06-14T08:49:49Z</time>
      </trkpt>
      <trkpt lat="43.25478" lon="5.6425">
        <ele>354.0390625</ele>
        <time>2020-06-14T08:49:57Z</time>
      </trkpt>
      <trkpt lat="43.25477" lon="5.64215">
        <ele>356.69140625</ele>
        <time>2020-06-14T08:50:09Z</time>
      </trkpt>
      <trkpt lat="43.25476" lon="5.64212">
        <ele>356.97265625</ele>
        <time>2020-06-14T08:50:10Z</time>
      </trkpt>
      <trkpt lat="43.25467" lon="5.64197">
        <ele>358.71484375</ele>
        <time>2020-06-14T08:50:18Z</time>
      </trkpt>
      <trkpt lat="43.25468" lon="5.64195">
        <ele>358.734375</ele>
        <time>2020-06-14T08:50:19Z</time>
      </trkpt>
      <trkpt lat="43.25468" lon="5.64192">
        <ele>358.8203125</ele>
        <time>2020-06-14T08:50:20Z</time>
      </trkpt>
      <trkpt lat="43.25467" lon="5.64184">
        <ele>359.234375</ele>
        <time>2020-06-14T08:50:31Z</time>
      </trkpt>
      <trkpt lat="43.25465" lon="5.6418">
        <ele>359.59375</ele>
        <time>2020-06-14T08:50:35Z</time>
      </trkpt>
      <trkpt lat="43.25464" lon="5.64178">
        <ele>359.76953125</ele>
        <time>2020-06-14T08:50:36Z</time>
      </trkpt>
      <trkpt lat="43.25464" lon="5.64176">
        <ele>359.8984375</ele>
        <time>2020-06-14T08:50:37Z</time>
      </trkpt>
      <trkpt lat="43.25462" lon="5.64169">
        <ele>360.296875</ele>
        <time>2020-06-14T08:50:40Z</time>
      </trkpt>
      <trkpt lat="43.2546" lon="5.64167">
        <ele>360.4765625</ele>
        <time>2020-06-14T08:50:41Z</time>
      </trkpt>
      <trkpt lat="43.25459" lon="5.64165">
        <ele>360.6875</ele>
        <time>2020-06-14T08:50:42Z</time>
      </trkpt>
      <trkpt lat="43.25457" lon="5.64163">
        <ele>360.88671875</ele>
        <time>2020-06-14T08:50:43Z</time>
      </trkpt>
      <trkpt lat="43.25456" lon="5.64157">
        <ele>361.08203125</ele>
        <time>2020-06-14T08:50:56Z</time>
      </trkpt>
      <trkpt lat="43.25452" lon="5.64157">
        <ele>361.54296875</ele>
        <time>2020-06-14T08:51:07Z</time>
      </trkpt>
      <trkpt lat="43.25449" lon="5.64155">
        <ele>361.8515625</ele>
        <time>2020-06-14T08:51:18Z</time>
      </trkpt>
      <trkpt lat="43.25442" lon="5.64152">
        <ele>362.80859375</ele>
        <time>2020-06-14T08:51:32Z</time>
      </trkpt>
      <trkpt lat="43.25438" lon="5.6415">
        <ele>363.38671875</ele>
        <time>2020-06-14T08:51:43Z</time>
      </trkpt>
      <trkpt lat="43.25431" lon="5.64147">
        <ele>364.265625</ele>
        <time>2020-06-14T08:51:55Z</time>
      </trkpt>
      <trkpt lat="43.2543" lon="5.64146">
        <ele>364.375</ele>
        <time>2020-06-14T08:51:56Z</time>
      </trkpt>
      <trkpt lat="43.25428" lon="5.64142">
        <ele>364.44921875</ele>
        <time>2020-06-14T08:51:58Z</time>
      </trkpt>
      <trkpt lat="43.25428" lon="5.6414">
        <ele>364.46484375</ele>
        <time>2020-06-14T08:51:59Z</time>
      </trkpt>
      <trkpt lat="43.25427" lon="5.64138">
        <ele>364.46875</ele>
        <time>2020-06-14T08:52:00Z</time>
      </trkpt>
      <trkpt lat="43.25424" lon="5.6413">
        <ele>364.6015625</ele>
        <time>2020-06-14T08:52:05Z</time>
      </trkpt>
      <trkpt lat="43.25424" lon="5.64128">
        <ele>364.6171875</ele>
        <time>2020-06-14T08:52:06Z</time>
      </trkpt>
      <trkpt lat="43.25423" lon="5.64126">
        <ele>364.5703125</ele>
        <time>2020-06-14T08:52:07Z</time>
      </trkpt>
      <trkpt lat="43.25418" lon="5.64121">
        <ele>365.1796875</ele>
        <time>2020-06-14T08:52:11Z</time>
      </trkpt>
      <trkpt lat="43.25414" lon="5.64117">
        <ele>365.73046875</ele>
        <time>2020-06-14T08:52:14Z</time>
      </trkpt>
      <trkpt lat="43.25413" lon="5.64116">
        <ele>365.8984375</ele>
        <time>2020-06-14T08:52:15Z</time>
      </trkpt>
      <trkpt lat="43.25405" lon="5.64107">
        <ele>367.09765625</ele>
        <time>2020-06-14T08:52:21Z</time>
      </trkpt>
      <trkpt lat="43.25403" lon="5.64104">
        <ele>367.30078125</ele>
        <time>2020-06-14T08:52:23Z</time>
      </trkpt>
      <trkpt lat="43.25402" lon="5.64102">
        <ele>367.4296875</ele>
        <time>2020-06-14T08:52:24Z</time>
      </trkpt>
      <trkpt lat="43.25395" lon="5.64096">
        <ele>368.37890625</ele>
        <time>2020-06-14T08:52:36Z</time>
      </trkpt>
      <trkpt lat="43.25393" lon="5.64093">
        <ele>368.68359375</ele>
        <time>2020-06-14T08:52:40Z</time>
      </trkpt>
      <trkpt lat="43.25392" lon="5.64091">
        <ele>368.8046875</ele>
        <time>2020-06-14T08:52:41Z</time>
      </trkpt>
      <trkpt lat="43.2539" lon="5.64089">
        <ele>369.1328125</ele>
        <time>2020-06-14T08:52:42Z</time>
      </trkpt>
      <trkpt lat="43.25388" lon="5.64088">
        <ele>369.5234375</ele>
        <time>2020-06-14T08:52:43Z</time>
      </trkpt>
      <trkpt lat="43.25386" lon="5.64087">
        <ele>369.90234375</ele>
        <time>2020-06-14T08:52:44Z</time>
      </trkpt>
      <trkpt lat="43.25374" lon="5.64071">
        <ele>371.8359375</ele>
        <time>2020-06-14T08:52:54Z</time>
      </trkpt>
      <trkpt lat="43.25373" lon="5.64069">
        <ele>371.80078125</ele>
        <time>2020-06-14T08:52:55Z</time>
      </trkpt>
      <trkpt lat="43.25372" lon="5.64067">
        <ele>371.70703125</ele>
        <time>2020-06-14T08:52:56Z</time>
      </trkpt>
      <trkpt lat="43.25371" lon="5.64065">
        <ele>371.75390625</ele>
        <time>2020-06-14T08:52:57Z</time>
      </trkpt>
      <trkpt lat="43.2537" lon="5.64063">
        <ele>371.765625</ele>
        <time>2020-06-14T08:52:58Z</time>
      </trkpt>
      <trkpt lat="43.25368" lon="5.64059">
        <ele>371.80078125</ele>
        <time>2020-06-14T08:53:00Z</time>
      </trkpt>
      <trkpt lat="43.2535" lon="5.64039">
        <ele>373.47265625</ele>
        <time>2020-06-14T08:53:13Z</time>
      </trkpt>
      <trkpt lat="43.25345" lon="5.64035">
        <ele>374.1328125</ele>
        <time>2020-06-14T08:53:16Z</time>
      </trkpt>
      <trkpt lat="43.25343" lon="5.64033">
        <ele>374.26953125</ele>
        <time>2020-06-14T08:53:17Z</time>
      </trkpt>
      <trkpt lat="43.25318" lon="5.64022">
        <ele>377.9453125</ele>
        <time>2020-06-14T08:53:31Z</time>
      </trkpt>
      <trkpt lat="43.25302" lon="5.64017">
        <ele>380.3515625</ele>
        <time>2020-06-14T08:53:40Z</time>
      </trkpt>
      <trkpt lat="43.25301" lon="5.64016">
        <ele>380.44921875</ele>
        <time>2020-06-14T08:53:41Z</time>
      </trkpt>
      <trkpt lat="43.25283" lon="5.64006">
        <ele>381.7109375</ele>
        <time>2020-06-14T08:53:55Z</time>
      </trkpt>
      <trkpt lat="43.25276" lon="5.64001">
        <ele>381.78515625</ele>
        <time>2020-06-14T08:54:06Z</time>
      </trkpt>
      <trkpt lat="43.25275" lon="5.64">
        <ele>381.75</ele>
        <time>2020-06-14T08:54:17Z</time>
      </trkpt>
      <trkpt lat="43.25273" lon="5.63999">
        <ele>381.82421875</ele>
        <time>2020-06-14T08:54:45Z</time>
      </trkpt>
      <trkpt lat="43.25275" lon="5.63999">
        <ele>381.3828125</ele>
        <time>2020-06-14T08:55:17Z</time>
      </trkpt>
      <trkpt lat="43.25272" lon="5.63999">
        <ele>382.05078125</ele>
        <time>2020-06-14T08:55:32Z</time>
      </trkpt>
      <trkpt lat="43.2527" lon="5.63999">
        <ele>382.37890625</ele>
        <time>2020-06-14T08:55:33Z</time>
      </trkpt>
      <trkpt lat="43.25268" lon="5.63998">
        <ele>382.64453125</ele>
        <time>2020-06-14T08:55:34Z</time>
      </trkpt>
      <trkpt lat="43.25252" lon="5.63989">
        <ele>383.2578125</ele>
        <time>2020-06-14T08:55:43Z</time>
      </trkpt>
      <trkpt lat="43.25218" lon="5.63992">
        <ele>389.80859375</ele>
        <time>2020-06-14T08:55:55Z</time>
      </trkpt>
      <trkpt lat="43.25208" lon="5.63991">
        <ele>390.99609375</ele>
        <time>2020-06-14T08:56:00Z</time>
      </trkpt>
      <trkpt lat="43.25206" lon="5.63992">
        <ele>391.390625</ele>
        <time>2020-06-14T08:56:01Z</time>
      </trkpt>
      <trkpt lat="43.25184" lon="5.63993">
        <ele>394.359375</ele>
        <time>2020-06-14T08:56:11Z</time>
      </trkpt>
      <trkpt lat="43.25182" lon="5.63991">
        <ele>394.296875</ele>
        <time>2020-06-14T08:56:12Z</time>
      </trkpt>
      <trkpt lat="43.25179" lon="5.6399">
        <ele>394.19140625</ele>
        <time>2020-06-14T08:56:13Z</time>
      </trkpt>
      <trkpt lat="43.25177" lon="5.63989">
        <ele>394.08203125</ele>
        <time>2020-06-14T08:56:14Z</time>
      </trkpt>
      <trkpt lat="43.25175" lon="5.63989">
        <ele>394.1796875</ele>
        <time>2020-06-14T08:56:15Z</time>
      </trkpt>
      <trkpt lat="43.25172" lon="5.63989">
        <ele>394.4921875</ele>
        <time>2020-06-14T08:56:16Z</time>
      </trkpt>
      <trkpt lat="43.25169" lon="5.63988">
        <ele>394.64453125</ele>
        <time>2020-06-14T08:56:17Z</time>
      </trkpt>
      <trkpt lat="43.25165" lon="5.63987">
        <ele>394.66015625</ele>
        <time>2020-06-14T08:56:18Z</time>
      </trkpt>
      <trkpt lat="43.25162" lon="5.63986">
        <ele>394.5859375</ele>
        <time>2020-06-14T08:56:19Z</time>
      </trkpt>
      <trkpt lat="43.25159" lon="5.63983">
        <ele>394.25</ele>
        <time>2020-06-14T08:56:20Z</time>
      </trkpt>
      <trkpt lat="43.25155" lon="5.63981">
        <ele>394.02734375</ele>
        <time>2020-06-14T08:56:21Z</time>
      </trkpt>
      <trkpt lat="43.25151" lon="5.6398">
        <ele>394.0078125</ele>
        <time>2020-06-14T08:56:22Z</time>
      </trkpt>
      <trkpt lat="43.25148" lon="5.6398">
        <ele>394.01953125</ele>
        <time>2020-06-14T08:56:23Z</time>
      </trkpt>
      <trkpt lat="43.25145" lon="5.63978">
        <ele>393.98046875</ele>
        <time>2020-06-14T08:56:24Z</time>
      </trkpt>
      <trkpt lat="43.25141" lon="5.63978">
        <ele>394.05078125</ele>
        <time>2020-06-14T08:56:25Z</time>
      </trkpt>
      <trkpt lat="43.25137" lon="5.63978">
        <ele>394.19921875</ele>
        <time>2020-06-14T08:56:26Z</time>
      </trkpt>
      <trkpt lat="43.25105" lon="5.6398">
        <ele>395.578125</ele>
        <time>2020-06-14T08:56:36Z</time>
      </trkpt>
      <trkpt lat="43.25074" lon="5.63983">
        <ele>396.6328125</ele>
        <time>2020-06-14T08:56:45Z</time>
      </trkpt>
      <trkpt lat="43.25042" lon="5.63986">
        <ele>398.078125</ele>
        <time>2020-06-14T08:56:53Z</time>
      </trkpt>
      <trkpt lat="43.24992" lon="5.63989">
        <ele>399.79296875</ele>
        <time>2020-06-14T08:57:04Z</time>
      </trkpt>
      <trkpt lat="43.24953" lon="5.64">
        <ele>404.46484375</ele>
        <time>2020-06-14T08:57:15Z</time>
      </trkpt>
      <trkpt lat="43.24944" lon="5.64003">
        <ele>405.796875</ele>
        <time>2020-06-14T08:57:18Z</time>
      </trkpt>
      <trkpt lat="43.24941" lon="5.64005">
        <ele>406.60546875</ele>
        <time>2020-06-14T08:57:19Z</time>
      </trkpt>
      <trkpt lat="43.24937" lon="5.64007">
        <ele>407.4140625</ele>
        <time>2020-06-14T08:57:20Z</time>
      </trkpt>
      <trkpt lat="43.24933" lon="5.64009">
        <ele>408.0625</ele>
        <time>2020-06-14T08:57:21Z</time>
      </trkpt>
      <trkpt lat="43.2493" lon="5.64011">
        <ele>408.90625</ele>
        <time>2020-06-14T08:57:22Z</time>
      </trkpt>
      <trkpt lat="43.24926" lon="5.64014">
        <ele>410.2109375</ele>
        <time>2020-06-14T08:57:23Z</time>
      </trkpt>
      <trkpt lat="43.24891" lon="5.64034">
        <ele>418.453125</ele>
        <time>2020-06-14T08:57:34Z</time>
      </trkpt>
      <trkpt lat="43.24856" lon="5.64041">
        <ele>412.94921875</ele>
        <time>2020-06-14T08:57:46Z</time>
      </trkpt>
      <trkpt lat="43.24854" lon="5.64041">
        <ele>412.7109375</ele>
        <time>2020-06-14T08:57:47Z</time>
      </trkpt>
      <trkpt lat="43.24852" lon="5.64042">
        <ele>412.625</ele>
        <time>2020-06-14T08:57:48Z</time>
      </trkpt>
      <trkpt lat="43.24831" lon="5.64045">
        <ele>412.06640625</ele>
        <time>2020-06-14T08:57:59Z</time>
      </trkpt>
      <trkpt lat="43.24829" lon="5.64046">
        <ele>412.328125</ele>
        <time>2020-06-14T08:58:00Z</time>
      </trkpt>
      <trkpt lat="43.24806" lon="5.64054">
        <ele>415.6640625</ele>
        <time>2020-06-14T08:58:15Z</time>
      </trkpt>
      <trkpt lat="43.24803" lon="5.64056">
        <ele>416.39453125</ele>
        <time>2020-06-14T08:58:17Z</time>
      </trkpt>
      <trkpt lat="43.24801" lon="5.64056">
        <ele>416.4765625</ele>
        <time>2020-06-14T08:58:18Z</time>
      </trkpt>
      <trkpt lat="43.24799" lon="5.64056">
        <ele>416.50390625</ele>
        <time>2020-06-14T08:58:19Z</time>
      </trkpt>
      <trkpt lat="43.2479" lon="5.64058">
        <ele>416.75390625</ele>
        <time>2020-06-14T08:58:24Z</time>
      </trkpt>
      <trkpt lat="43.2478" lon="5.64059">
        <ele>417.0625</ele>
        <time>2020-06-14T08:58:30Z</time>
      </trkpt>
      <trkpt lat="43.24776" lon="5.64064">
        <ele>418.5625</ele>
        <time>2020-06-14T08:58:44Z</time>
      </trkpt>
      <trkpt lat="43.24777" lon="5.64063">
        <ele>418.30078125</ele>
        <time>2020-06-14T08:58:58Z</time>
      </trkpt>
      <trkpt lat="43.24782" lon="5.64066">
        <ele>419.4453125</ele>
        <time>2020-06-14T08:59:13Z</time>
      </trkpt>
      <trkpt lat="43.24783" lon="5.64067">
        <ele>419.90625</ele>
        <time>2020-06-14T08:59:29Z</time>
      </trkpt>
      <trkpt lat="43.24785" lon="5.64067">
        <ele>419.90625</ele>
        <time>2020-06-14T08:59:43Z</time>
      </trkpt>
      <trkpt lat="43.24783" lon="5.64065">
        <ele>419.33984375</ele>
        <time>2020-06-14T09:00:13Z</time>
      </trkpt>
      <trkpt lat="43.24783" lon="5.64065">
        <ele>419.25</ele>
        <time>2020-06-14T09:00:39Z</time>
      </trkpt>
      <trkpt lat="43.24784" lon="5.64068">
        <ele>420.46484375</ele>
        <time>2020-06-14T09:00:58Z</time>
      </trkpt>
      <trkpt lat="43.24784" lon="5.64069">
        <ele>420.58203125</ele>
        <time>2020-06-14T09:01:24Z</time>
      </trkpt>
      <trkpt lat="43.24787" lon="5.64068">
        <ele>420.66015625</ele>
        <time>2020-06-14T09:01:40Z</time>
      </trkpt>
      <trkpt lat="43.24789" lon="5.64069">
        <ele>421.046875</ele>
        <time>2020-06-14T09:01:41Z</time>
      </trkpt>
      <trkpt lat="43.24797" lon="5.64075">
        <ele>423.66796875</ele>
        <time>2020-06-14T09:01:47Z</time>
      </trkpt>
      <trkpt lat="43.24801" lon="5.64084">
        <ele>426.28515625</ele>
        <time>2020-06-14T09:01:51Z</time>
      </trkpt>
      <trkpt lat="43.24801" lon="5.64086">
        <ele>426.87109375</ele>
        <time>2020-06-14T09:01:52Z</time>
      </trkpt>
      <trkpt lat="43.24799" lon="5.64091">
        <ele>427.8828125</ele>
        <time>2020-06-14T09:02:04Z</time>
      </trkpt>
      <trkpt lat="43.24794" lon="5.64097">
        <ele>428.78125</ele>
        <time>2020-06-14T09:02:17Z</time>
      </trkpt>
      <trkpt lat="43.2479" lon="5.64109">
        <ele>430.5390625</ele>
        <time>2020-06-14T09:02:33Z</time>
      </trkpt>
      <trkpt lat="43.24784" lon="5.64118">
        <ele>430.81640625</ele>
        <time>2020-06-14T09:02:47Z</time>
      </trkpt>
      <trkpt lat="43.24777" lon="5.64125">
        <ele>430.92578125</ele>
        <time>2020-06-14T09:02:56Z</time>
      </trkpt>
      <trkpt lat="43.24775" lon="5.64126">
        <ele>430.95703125</ele>
        <time>2020-06-14T09:02:57Z</time>
      </trkpt>
      <trkpt lat="43.24774" lon="5.64127">
        <ele>430.98828125</ele>
        <time>2020-06-14T09:02:58Z</time>
      </trkpt>
      <trkpt lat="43.24773" lon="5.64129">
        <ele>431.10546875</ele>
        <time>2020-06-14T09:02:59Z</time>
      </trkpt>
      <trkpt lat="43.24772" lon="5.6413">
        <ele>431.2109375</ele>
        <time>2020-06-14T09:03:00Z</time>
      </trkpt>
      <trkpt lat="43.24774" lon="5.64133">
        <ele>431.8046875</ele>
        <time>2020-06-14T09:03:12Z</time>
      </trkpt>
      <trkpt lat="43.24776" lon="5.64133">
        <ele>432.05859375</ele>
        <time>2020-06-14T09:03:13Z</time>
      </trkpt>
      <trkpt lat="43.24777" lon="5.64134">
        <ele>432.32421875</ele>
        <time>2020-06-14T09:03:14Z</time>
      </trkpt>
      <trkpt lat="43.24777" lon="5.64136">
        <ele>432.64453125</ele>
        <time>2020-06-14T09:03:15Z</time>
      </trkpt>
      <trkpt lat="43.24778" lon="5.64138">
        <ele>432.9609375</ele>
        <time>2020-06-14T09:03:16Z</time>
      </trkpt>
      <trkpt lat="43.24778" lon="5.6414">
        <ele>433.28515625</ele>
        <time>2020-06-14T09:03:17Z</time>
      </trkpt>
      <trkpt lat="43.24778" lon="5.64143">
        <ele>433.6875</ele>
        <time>2020-06-14T09:03:18Z</time>
      </trkpt>
      <trkpt lat="43.24779" lon="5.64146">
        <ele>434.171875</ele>
        <time>2020-06-14T09:03:19Z</time>
      </trkpt>
      <trkpt lat="43.2478" lon="5.64149">
        <ele>434.71484375</ele>
        <time>2020-06-14T09:03:20Z</time>
      </trkpt>
      <trkpt lat="43.24781" lon="5.64152">
        <ele>435.24609375</ele>
        <time>2020-06-14T09:03:21Z</time>
      </trkpt>
      <trkpt lat="43.24782" lon="5.64155">
        <ele>435.79296875</ele>
        <time>2020-06-14T09:03:22Z</time>
      </trkpt>
      <trkpt lat="43.24788" lon="5.64168">
        <ele>437.859375</ele>
        <time>2020-06-14T09:03:27Z</time>
      </trkpt>
      <trkpt lat="43.24789" lon="5.64171">
        <ele>438.125</ele>
        <time>2020-06-14T09:03:28Z</time>
      </trkpt>
      <trkpt lat="43.2479" lon="5.64173">
        <ele>438.3203125</ele>
        <time>2020-06-14T09:03:29Z</time>
      </trkpt>
      <trkpt lat="43.24799" lon="5.64195">
        <ele>440.1484375</ele>
        <time>2020-06-14T09:03:40Z</time>
      </trkpt>
      <trkpt lat="43.248" lon="5.64198">
        <ele>440.30859375</ele>
        <time>2020-06-14T09:03:41Z</time>
      </trkpt>
      <trkpt lat="43.24801" lon="5.642">
        <ele>440.43359375</ele>
        <time>2020-06-14T09:03:42Z</time>
      </trkpt>
      <trkpt lat="43.24802" lon="5.64203">
        <ele>440.53515625</ele>
        <time>2020-06-14T09:03:43Z</time>
      </trkpt>
      <trkpt lat="43.24803" lon="5.64205">
        <ele>440.6328125</ele>
        <time>2020-06-14T09:03:44Z</time>
      </trkpt>
      <trkpt lat="43.24803" lon="5.64207">
        <ele>440.7109375</ele>
        <time>2020-06-14T09:03:45Z</time>
      </trkpt>
      <trkpt lat="43.24804" lon="5.64209">
        <ele>440.765625</ele>
        <time>2020-06-14T09:03:46Z</time>
      </trkpt>
      <trkpt lat="43.24814" lon="5.64244">
        <ele>441.72265625</ele>
        <time>2020-06-14T09:03:59Z</time>
      </trkpt>
      <trkpt lat="43.24815" lon="5.64269">
        <ele>442.90234375</ele>
        <time>2020-06-14T09:04:09Z</time>
      </trkpt>
      <trkpt lat="43.24815" lon="5.64271">
        <ele>443.27734375</ele>
        <time>2020-06-14T09:04:10Z</time>
      </trkpt>
      <trkpt lat="43.24815" lon="5.64274">
        <ele>443.609375</ele>
        <time>2020-06-14T09:04:11Z</time>
      </trkpt>
      <trkpt lat="43.2482" lon="5.64291">
        <ele>446.97265625</ele>
        <time>2020-06-14T09:04:19Z</time>
      </trkpt>
      <trkpt lat="43.2483" lon="5.64305">
        <ele>452.02734375</ele>
        <time>2020-06-14T09:04:25Z</time>
      </trkpt>
      <trkpt lat="43.24841" lon="5.64303">
        <ele>455.47265625</ele>
        <time>2020-06-14T09:04:30Z</time>
      </trkpt>
      <trkpt lat="43.24842" lon="5.64301">
        <ele>455.59765625</ele>
        <time>2020-06-14T09:04:31Z</time>
      </trkpt>
      <trkpt lat="43.24843" lon="5.64299">
        <ele>455.5703125</ele>
        <time>2020-06-14T09:04:32Z</time>
      </trkpt>
      <trkpt lat="43.24843" lon="5.64297">
        <ele>455.4453125</ele>
        <time>2020-06-14T09:04:33Z</time>
      </trkpt>
      <trkpt lat="43.24845" lon="5.64291">
        <ele>455.2890625</ele>
        <time>2020-06-14T09:04:35Z</time>
      </trkpt>
      <trkpt lat="43.2485" lon="5.64268">
        <ele>454.5078125</ele>
        <time>2020-06-14T09:04:44Z</time>
      </trkpt>
      <trkpt lat="43.24853" lon="5.64228">
        <ele>455.234375</ele>
        <time>2020-06-14T09:04:59Z</time>
      </trkpt>
      <trkpt lat="43.24848" lon="5.64187">
        <ele>453.99609375</ele>
        <time>2020-06-14T09:05:11Z</time>
      </trkpt>
      <trkpt lat="43.24848" lon="5.64188">
        <ele>453.9921875</ele>
        <time>2020-06-14T09:05:31Z</time>
      </trkpt>
      <trkpt lat="43.24847" lon="5.64188">
        <ele>453.734375</ele>
        <time>2020-06-14T09:06:06Z</time>
      </trkpt>
      <trkpt lat="43.24847" lon="5.64189">
        <ele>453.6875</ele>
        <time>2020-06-14T09:06:30Z</time>
      </trkpt>
      <trkpt lat="43.24848" lon="5.64187">
        <ele>454.2265625</ele>
        <time>2020-06-14T09:07:04Z</time>
      </trkpt>
      <trkpt lat="43.24848" lon="5.64187">
        <ele>454.1171875</ele>
        <time>2020-06-14T09:07:49Z</time>
      </trkpt>
      <trkpt lat="43.24847" lon="5.64184">
        <ele>453.9375</ele>
        <time>2020-06-14T09:08:08Z</time>
      </trkpt>
      <trkpt lat="43.24848" lon="5.64182">
        <ele>453.890625</ele>
        <time>2020-06-14T09:08:09Z</time>
      </trkpt>
      <trkpt lat="43.24848" lon="5.6418">
        <ele>453.7578125</ele>
        <time>2020-06-14T09:08:10Z</time>
      </trkpt>
      <trkpt lat="43.24848" lon="5.64177">
        <ele>453.62109375</ele>
        <time>2020-06-14T09:08:11Z</time>
      </trkpt>
      <trkpt lat="43.24849" lon="5.64174">
        <ele>453.5859375</ele>
        <time>2020-06-14T09:08:12Z</time>
      </trkpt>
      <trkpt lat="43.2485" lon="5.64171">
        <ele>453.6640625</ele>
        <time>2020-06-14T09:08:13Z</time>
      </trkpt>
      <trkpt lat="43.24851" lon="5.64168">
        <ele>453.8828125</ele>
        <time>2020-06-14T09:08:14Z</time>
      </trkpt>
      <trkpt lat="43.24853" lon="5.64165">
        <ele>454.26953125</ele>
        <time>2020-06-14T09:08:15Z</time>
      </trkpt>
      <trkpt lat="43.24856" lon="5.64162">
        <ele>454.8203125</ele>
        <time>2020-06-14T09:08:16Z</time>
      </trkpt>
      <trkpt lat="43.24888" lon="5.64142">
        <ele>458.19140625</ele>
        <time>2020-06-14T09:08:28Z</time>
      </trkpt>
      <trkpt lat="43.24911" lon="5.64142">
        <ele>460.55078125</ele>
        <time>2020-06-14T09:08:40Z</time>
      </trkpt>
      <trkpt lat="43.24912" lon="5.64142">
        <ele>460.6953125</ele>
        <time>2020-06-14T09:08:41Z</time>
      </trkpt>
      <trkpt lat="43.24924" lon="5.64141">
        <ele>461.45703125</ele>
        <time>2020-06-14T09:08:47Z</time>
      </trkpt>
      <trkpt lat="43.24933" lon="5.64144">
        <ele>462.1796875</ele>
        <time>2020-06-14T09:08:52Z</time>
      </trkpt>
      <trkpt lat="43.24952" lon="5.64157">
        <ele>465.3828125</ele>
        <time>2020-06-14T09:09:05Z</time>
      </trkpt>
      <trkpt lat="43.24954" lon="5.64158">
        <ele>465.8125</ele>
        <time>2020-06-14T09:09:06Z</time>
      </trkpt>
      <trkpt lat="43.24955" lon="5.64159">
        <ele>466.1484375</ele>
        <time>2020-06-14T09:09:07Z</time>
      </trkpt>
      <trkpt lat="43.24957" lon="5.6416">
        <ele>466.33203125</ele>
        <time>2020-06-14T09:09:08Z</time>
      </trkpt>
      <trkpt lat="43.24976" lon="5.64174">
        <ele>470.26171875</ele>
        <time>2020-06-14T09:09:21Z</time>
      </trkpt>
      <trkpt lat="43.24992" lon="5.64196">
        <ele>474.80859375</ele>
        <time>2020-06-14T09:09:34Z</time>
      </trkpt>
      <trkpt lat="43.24997" lon="5.64205">
        <ele>476.16015625</ele>
        <time>2020-06-14T09:09:39Z</time>
      </trkpt>
      <trkpt lat="43.25014" lon="5.64224">
        <ele>480.88671875</ele>
        <time>2020-06-14T09:09:52Z</time>
      </trkpt>
      <trkpt lat="43.25028" lon="5.64239">
        <ele>484.6640625</ele>
        <time>2020-06-14T09:10:03Z</time>
      </trkpt>
      <trkpt lat="43.25041" lon="5.64256">
        <ele>487.25</ele>
        <time>2020-06-14T09:10:14Z</time>
      </trkpt>
      <trkpt lat="43.25044" lon="5.64261">
        <ele>487.87109375</ele>
        <time>2020-06-14T09:10:17Z</time>
      </trkpt>
      <trkpt lat="43.25045" lon="5.64261">
        <ele>487.96875</ele>
        <time>2020-06-14T09:10:18Z</time>
      </trkpt>
      <trkpt lat="43.25047" lon="5.64261">
        <ele>487.99609375</ele>
        <time>2020-06-14T09:10:19Z</time>
      </trkpt>
      <trkpt lat="43.25048" lon="5.6426">
        <ele>487.953125</ele>
        <time>2020-06-14T09:10:20Z</time>
      </trkpt>
      <trkpt lat="43.25049" lon="5.64259">
        <ele>487.93359375</ele>
        <time>2020-06-14T09:10:21Z</time>
      </trkpt>
      <trkpt lat="43.25049" lon="5.64257">
        <ele>487.7421875</ele>
        <time>2020-06-14T09:10:37Z</time>
      </trkpt>
      <trkpt lat="43.25049" lon="5.64258">
        <ele>487.80859375</ele>
        <time>2020-06-14T09:11:05Z</time>
      </trkpt>
      <trkpt lat="43.25048" lon="5.64255">
        <ele>487.46484375</ele>
        <time>2020-06-14T09:11:43Z</time>
      </trkpt>
      <trkpt lat="43.25049" lon="5.64259">
        <ele>487.8984375</ele>
        <time>2020-06-14T09:12:19Z</time>
      </trkpt>
      <trkpt lat="43.25047" lon="5.64258">
        <ele>487.703125</ele>
        <time>2020-06-14T09:12:59Z</time>
      </trkpt>
      <trkpt lat="43.25051" lon="5.64255">
        <ele>487.65625</ele>
        <time>2020-06-14T09:13:20Z</time>
      </trkpt>
      <trkpt lat="43.25063" lon="5.64242">
        <ele>487.625</ele>
        <time>2020-06-14T09:13:29Z</time>
      </trkpt>
      <trkpt lat="43.25065" lon="5.6424">
        <ele>487.62890625</ele>
        <time>2020-06-14T09:13:30Z</time>
      </trkpt>
      <trkpt lat="43.25065" lon="5.64238">
        <ele>487.5703125</ele>
        <time>2020-06-14T09:13:31Z</time>
      </trkpt>
      <trkpt lat="43.25066" lon="5.64236">
        <ele>487.4921875</ele>
        <time>2020-06-14T09:13:32Z</time>
      </trkpt>
      <trkpt lat="43.25068" lon="5.64233">
        <ele>487.4609375</ele>
        <time>2020-06-14T09:13:33Z</time>
      </trkpt>
      <trkpt lat="43.25069" lon="5.64232">
        <ele>487.4921875</ele>
        <time>2020-06-14T09:13:34Z</time>
      </trkpt>
      <trkpt lat="43.25071" lon="5.6423">
        <ele>487.5390625</ele>
        <time>2020-06-14T09:13:35Z</time>
      </trkpt>
      <trkpt lat="43.25088" lon="5.64214">
        <ele>488.10546875</ele>
        <time>2020-06-14T09:13:47Z</time>
      </trkpt>
      <trkpt lat="43.25096" lon="5.64211">
        <ele>487.484375</ele>
        <time>2020-06-14T09:14:06Z</time>
      </trkpt>
      <trkpt lat="43.25101" lon="5.64212">
        <ele>487.52734375</ele>
        <time>2020-06-14T09:14:16Z</time>
      </trkpt>
      <trkpt lat="43.25102" lon="5.64212">
        <ele>487.51171875</ele>
        <time>2020-06-14T09:14:17Z</time>
      </trkpt>
      <trkpt lat="43.25101" lon="5.64212">
        <ele>487.5</ele>
        <time>2020-06-14T09:14:22Z</time>
      </trkpt>
      <trkpt lat="43.25102" lon="5.64212">
        <ele>487.421875</ele>
        <time>2020-06-14T09:14:25Z</time>
      </trkpt>
      <trkpt lat="43.25112" lon="5.64214">
        <ele>487.28125</ele>
        <time>2020-06-14T09:14:57Z</time>
      </trkpt>
      <trkpt lat="43.2512" lon="5.64216">
        <ele>486.9609375</ele>
        <time>2020-06-14T09:14:59Z</time>
      </trkpt>
      <trkpt lat="43.25149" lon="5.64212">
        <ele>484.0390625</ele>
        <time>2020-06-14T09:15:08Z</time>
      </trkpt>
      <trkpt lat="43.25152" lon="5.64213">
        <ele>483.72265625</ele>
        <time>2020-06-14T09:15:09Z</time>
      </trkpt>
      <trkpt lat="43.25178" lon="5.64213">
        <ele>478.45703125</ele>
        <time>2020-06-14T09:15:18Z</time>
      </trkpt>
      <trkpt lat="43.25189" lon="5.64238">
        <ele>476.7734375</ele>
        <time>2020-06-14T09:15:26Z</time>
      </trkpt>
      <trkpt lat="43.25195" lon="5.64276">
        <ele>472.34765625</ele>
        <time>2020-06-14T09:15:38Z</time>
      </trkpt>
      <trkpt lat="43.25195" lon="5.64281">
        <ele>471.25</ele>
        <time>2020-06-14T09:15:40Z</time>
      </trkpt>
      <trkpt lat="43.25196" lon="5.64282">
        <ele>470.54296875</ele>
        <time>2020-06-14T09:15:41Z</time>
      </trkpt>
      <trkpt lat="43.25197" lon="5.64283">
        <ele>469.9375</ele>
        <time>2020-06-14T09:15:42Z</time>
      </trkpt>
      <trkpt lat="43.25199" lon="5.64282">
        <ele>469.4296875</ele>
        <time>2020-06-14T09:15:43Z</time>
      </trkpt>
      <trkpt lat="43.252" lon="5.64281">
        <ele>469.09375</ele>
        <time>2020-06-14T09:15:44Z</time>
      </trkpt>
      <trkpt lat="43.25201" lon="5.6428">
        <ele>468.85546875</ele>
        <time>2020-06-14T09:15:45Z</time>
      </trkpt>
      <trkpt lat="43.252" lon="5.6428">
        <ele>468.98046875</ele>
        <time>2020-06-14T09:15:59Z</time>
      </trkpt>
      <trkpt lat="43.25199" lon="5.64281">
        <ele>469.7109375</ele>
        <time>2020-06-14T09:16:07Z</time>
      </trkpt>
      <trkpt lat="43.252" lon="5.6428">
        <ele>469.3125</ele>
        <time>2020-06-14T09:16:08Z</time>
      </trkpt>
      <trkpt lat="43.25201" lon="5.64279">
        <ele>468.96875</ele>
        <time>2020-06-14T09:16:09Z</time>
      </trkpt>
      <trkpt lat="43.25205" lon="5.64281">
        <ele>466.421875</ele>
        <time>2020-06-14T09:16:21Z</time>
      </trkpt>
      <trkpt lat="43.25206" lon="5.64282">
        <ele>465.8046875</ele>
        <time>2020-06-14T09:16:25Z</time>
      </trkpt>
      <trkpt lat="43.25206" lon="5.6428">
        <ele>465.85546875</ele>
        <time>2020-06-14T09:16:26Z</time>
      </trkpt>
      <trkpt lat="43.25207" lon="5.64278">
        <ele>465.84765625</ele>
        <time>2020-06-14T09:16:27Z</time>
      </trkpt>
      <trkpt lat="43.25208" lon="5.64275">
        <ele>466.09765625</ele>
        <time>2020-06-14T09:16:28Z</time>
      </trkpt>
      <trkpt lat="43.25213" lon="5.64283">
        <ele>462.12890625</ele>
        <time>2020-06-14T09:16:40Z</time>
      </trkpt>
      <trkpt lat="43.25213" lon="5.64284">
        <ele>461.4609375</ele>
        <time>2020-06-14T09:16:55Z</time>
      </trkpt>
      <trkpt lat="43.25214" lon="5.64273">
        <ele>463.046875</ele>
        <time>2020-06-14T09:17:19Z</time>
      </trkpt>
      <trkpt lat="43.25217" lon="5.64267">
        <ele>462.78125</ele>
        <time>2020-06-14T09:17:33Z</time>
      </trkpt>
      <trkpt lat="43.25224" lon="5.6427">
        <ele>458.75</ele>
        <time>2020-06-14T09:17:46Z</time>
      </trkpt>
      <trkpt lat="43.25227" lon="5.64272">
        <ele>456.66796875</ele>
        <time>2020-06-14T09:17:53Z</time>
      </trkpt>
      <trkpt lat="43.25235" lon="5.64274">
        <ele>450.57421875</ele>
        <time>2020-06-14T09:17:59Z</time>
      </trkpt>
      <trkpt lat="43.25249" lon="5.64273">
        <ele>440.1796875</ele>
        <time>2020-06-14T09:18:16Z</time>
      </trkpt>
      <trkpt lat="43.2525" lon="5.64274">
        <ele>439.40234375</ele>
        <time>2020-06-14T09:18:32Z</time>
      </trkpt>
      <trkpt lat="43.25249" lon="5.64274">
        <ele>440.24609375</ele>
        <time>2020-06-14T09:19:10Z</time>
      </trkpt>
      <trkpt lat="43.25249" lon="5.64274">
        <ele>440.25390625</ele>
        <time>2020-06-14T09:19:12Z</time>
      </trkpt>
      <trkpt lat="43.25249" lon="5.64273">
        <ele>440.07421875</ele>
        <time>2020-06-14T09:19:31Z</time>
      </trkpt>
      <trkpt lat="43.25249" lon="5.64273">
        <ele>440.19140625</ele>
        <time>2020-06-14T09:19:34Z</time>
      </trkpt>
      <trkpt lat="43.25249" lon="5.64272">
        <ele>440.65234375</ele>
        <time>2020-06-14T09:19:56Z</time>
      </trkpt>
      <trkpt lat="43.25249" lon="5.64272">
        <ele>440.5390625</ele>
        <time>2020-06-14T09:19:58Z</time>
      </trkpt>
      <trkpt lat="43.25249" lon="5.64272">
        <ele>440.359375</ele>
        <time>2020-06-14T09:20:07Z</time>
      </trkpt>
      <trkpt lat="43.25249" lon="5.64273">
        <ele>440.1640625</ele>
        <time>2020-06-14T09:20:24Z</time>
      </trkpt>
      <trkpt lat="43.25249" lon="5.64273">
        <ele>440.21875</ele>
        <time>2020-06-14T09:20:33Z</time>
      </trkpt>
      <trkpt lat="43.25248" lon="5.64272">
        <ele>441.578125</ele>
        <time>2020-06-14T09:21:01Z</time>
      </trkpt>
      <trkpt lat="43.25238" lon="5.6427">
        <ele>448.9296875</ele>
        <time>2020-06-14T09:21:15Z</time>
      </trkpt>
      <trkpt lat="43.25239" lon="5.6427">
        <ele>448.28125</ele>
        <time>2020-06-14T09:21:55Z</time>
      </trkpt>
      <trkpt lat="43.25239" lon="5.6427">
        <ele>448.24609375</ele>
        <time>2020-06-14T09:22:32Z</time>
      </trkpt>
      <trkpt lat="43.25238" lon="5.64269">
        <ele>448.82421875</ele>
        <time>2020-06-14T09:23:18Z</time>
      </trkpt>
      <trkpt lat="43.25238" lon="5.6427">
        <ele>448.5078125</ele>
        <time>2020-06-14T09:23:50Z</time>
      </trkpt>
      <trkpt lat="43.25238" lon="5.6427">
        <ele>449.1015625</ele>
        <time>2020-06-14T09:24:21Z</time>
      </trkpt>
      <trkpt lat="43.25238" lon="5.6427">
        <ele>448.57421875</ele>
        <time>2020-06-14T09:24:51Z</time>
      </trkpt>
      <trkpt lat="43.25239" lon="5.64269">
        <ele>448.2734375</ele>
        <time>2020-06-14T09:25:21Z</time>
      </trkpt>
      <trkpt lat="43.25239" lon="5.64269">
        <ele>448.1015625</ele>
        <time>2020-06-14T09:25:46Z</time>
      </trkpt>
      <trkpt lat="43.25238" lon="5.6427">
        <ele>448.44921875</ele>
        <time>2020-06-14T09:26:21Z</time>
      </trkpt>
      <trkpt lat="43.25239" lon="5.64271">
        <ele>448.01171875</ele>
        <time>2020-06-14T09:26:57Z</time>
      </trkpt>
      <trkpt lat="43.25238" lon="5.64272">
        <ele>448.109375</ele>
        <time>2020-06-14T09:27:31Z</time>
      </trkpt>
      <trkpt lat="43.25238" lon="5.64271">
        <ele>448.609375</ele>
        <time>2020-06-14T09:28:09Z</time>
      </trkpt>
      <trkpt lat="43.25238" lon="5.64271">
        <ele>448.46875</ele>
        <time>2020-06-14T09:28:29Z</time>
      </trkpt>
      <trkpt lat="43.25238" lon="5.64271">
        <ele>448.4765625</ele>
        <time>2020-06-14T09:28:56Z</time>
      </trkpt>
      <trkpt lat="43.25238" lon="5.64271">
        <ele>448.35546875</ele>
        <time>2020-06-14T09:28:58Z</time>
      </trkpt>
      <trkpt lat="43.25238" lon="5.64271">
        <ele>448.4140625</ele>
        <time>2020-06-14T09:29:05Z</time>
      </trkpt>
      <trkpt lat="43.25239" lon="5.64271">
        <ele>448.18359375</ele>
        <time>2020-06-14T09:29:32Z</time>
      </trkpt>
      <trkpt lat="43.25239" lon="5.64271">
        <ele>448.18359375</ele>
        <time>2020-06-14T09:29:41Z</time>
      </trkpt>
      <trkpt lat="43.25238" lon="5.64271">
        <ele>448.71484375</ele>
        <time>2020-06-14T09:30:32Z</time>
      </trkpt>
      <trkpt lat="43.25238" lon="5.6427">
        <ele>448.62109375</ele>
        <time>2020-06-14T09:31:13Z</time>
      </trkpt>
      <trkpt lat="43.25238" lon="5.6427">
        <ele>448.59765625</ele>
        <time>2020-06-14T09:31:14Z</time>
      </trkpt>
      <trkpt lat="43.25239" lon="5.64271">
        <ele>447.99609375</ele>
        <time>2020-06-14T09:31:47Z</time>
      </trkpt>
      <trkpt lat="43.25239" lon="5.6427">
        <ele>448.40625</ele>
        <time>2020-06-14T09:32:18Z</time>
      </trkpt>
      <trkpt lat="43.25238" lon="5.6427">
        <ele>448.50390625</ele>
        <time>2020-06-14T09:32:20Z</time>
      </trkpt>
      <trkpt lat="43.25238" lon="5.64271">
        <ele>448.59765625</ele>
        <time>2020-06-14T09:32:59Z</time>
      </trkpt>
      <trkpt lat="43.25238" lon="5.64273">
        <ele>447.94140625</ele>
        <time>2020-06-14T09:33:17Z</time>
      </trkpt>
      <trkpt lat="43.25228" lon="5.64274">
        <ele>455.17578125</ele>
        <time>2020-06-14T09:33:33Z</time>
      </trkpt>
      <trkpt lat="43.25223" lon="5.64274">
        <ele>458.296875</ele>
        <time>2020-06-14T09:33:46Z</time>
      </trkpt>
      <trkpt lat="43.25223" lon="5.64275">
        <ele>458.29296875</ele>
        <time>2020-06-14T09:33:47Z</time>
      </trkpt>
      <trkpt lat="43.25219" lon="5.64287">
        <ele>457.71484375</ele>
        <time>2020-06-14T09:33:54Z</time>
      </trkpt>
      <trkpt lat="43.25217" lon="5.64293">
        <ele>457.76171875</ele>
        <time>2020-06-14T09:34:06Z</time>
      </trkpt>
      <trkpt lat="43.25218" lon="5.64291">
        <ele>457.73046875</ele>
        <time>2020-06-14T09:34:27Z</time>
      </trkpt>
      <trkpt lat="43.25218" lon="5.6429">
        <ele>457.98046875</ele>
        <time>2020-06-14T09:34:29Z</time>
      </trkpt>
      <trkpt lat="43.25219" lon="5.64286">
        <ele>458.02734375</ele>
        <time>2020-06-14T09:34:32Z</time>
      </trkpt>
      <trkpt lat="43.2522" lon="5.64274">
        <ele>459.8671875</ele>
        <time>2020-06-14T09:34:39Z</time>
      </trkpt>
      <trkpt lat="43.25218" lon="5.64268">
        <ele>462.10546875</ele>
        <time>2020-06-14T09:34:47Z</time>
      </trkpt>
      <trkpt lat="43.25214" lon="5.64272">
        <ele>463.41015625</ele>
        <time>2020-06-14T09:35:04Z</time>
      </trkpt>
      <trkpt lat="43.25211" lon="5.64276">
        <ele>464.49609375</ele>
        <time>2020-06-14T09:35:17Z</time>
      </trkpt>
      <trkpt lat="43.2521" lon="5.6428">
        <ele>463.8203125</ele>
        <time>2020-06-14T09:35:30Z</time>
      </trkpt>
      <trkpt lat="43.25206" lon="5.64283">
        <ele>465.37109375</ele>
        <time>2020-06-14T09:35:47Z</time>
      </trkpt>
      <trkpt lat="43.25201" lon="5.64279">
        <ele>468.63671875</ele>
        <time>2020-06-14T09:36:02Z</time>
      </trkpt>
      <trkpt lat="43.25194" lon="5.64284">
        <ele>470.5859375</ele>
        <time>2020-06-14T09:36:18Z</time>
      </trkpt>
      <trkpt lat="43.25194" lon="5.64283">
        <ele>471.15234375</ele>
        <time>2020-06-14T09:36:25Z</time>
      </trkpt>
      <trkpt lat="43.25193" lon="5.6427">
        <ele>474.08203125</ele>
        <time>2020-06-14T09:36:40Z</time>
      </trkpt>
      <trkpt lat="43.25195" lon="5.64277">
        <ele>472.03515625</ele>
        <time>2020-06-14T09:36:52Z</time>
      </trkpt>
      <trkpt lat="43.25195" lon="5.6428">
        <ele>471.39453125</ele>
        <time>2020-06-14T09:37:09Z</time>
      </trkpt>
      <trkpt lat="43.25195" lon="5.64284">
        <ele>470.546875</ele>
        <time>2020-06-14T09:37:11Z</time>
      </trkpt>
      <trkpt lat="43.25194" lon="5.64287">
        <ele>470.078125</ele>
        <time>2020-06-14T09:37:12Z</time>
      </trkpt>
      <trkpt lat="43.25187" lon="5.64308">
        <ele>466.44921875</ele>
        <time>2020-06-14T09:37:17Z</time>
      </trkpt>
      <trkpt lat="43.25187" lon="5.64308">
        <ele>466.31640625</ele>
        <time>2020-06-14T09:37:21Z</time>
      </trkpt>
      <trkpt lat="43.25188" lon="5.64307">
        <ele>466.296875</ele>
        <time>2020-06-14T09:37:52Z</time>
      </trkpt>
      <trkpt lat="43.25189" lon="5.64304">
        <ele>467.09375</ele>
        <time>2020-06-14T09:37:58Z</time>
      </trkpt>
      <trkpt lat="43.2519" lon="5.64302">
        <ele>467.38671875</ele>
        <time>2020-06-14T09:37:59Z</time>
      </trkpt>
      <trkpt lat="43.25196" lon="5.6427">
        <ele>472.95703125</ele>
        <time>2020-06-14T09:38:10Z</time>
      </trkpt>
      <trkpt lat="43.25193" lon="5.64252">
        <ele>475.27734375</ele>
        <time>2020-06-14T09:38:17Z</time>
      </trkpt>
      <trkpt lat="43.25189" lon="5.64252">
        <ele>476.33203125</ele>
        <time>2020-06-14T09:38:21Z</time>
      </trkpt>
      <trkpt lat="43.25189" lon="5.64254">
        <ele>476.28515625</ele>
        <time>2020-06-14T09:38:22Z</time>
      </trkpt>
      <trkpt lat="43.2519" lon="5.64257">
        <ele>476.11328125</ele>
        <time>2020-06-14T09:38:23Z</time>
      </trkpt>
      <trkpt lat="43.25189" lon="5.6426">
        <ele>476.3203125</ele>
        <time>2020-06-14T09:38:33Z</time>
      </trkpt>
      <trkpt lat="43.25187" lon="5.64259">
        <ele>476.78515625</ele>
        <time>2020-06-14T09:38:50Z</time>
      </trkpt>
      <trkpt lat="43.25187" lon="5.64259">
        <ele>476.78515625</ele>
        <time>2020-06-14T09:38:51Z</time>
      </trkpt>
      <trkpt lat="43.25187" lon="5.64258">
        <ele>476.76171875</ele>
        <time>2020-06-14T09:38:54Z</time>
      </trkpt>
      <trkpt lat="43.25187" lon="5.64257">
        <ele>476.94921875</ele>
        <time>2020-06-14T09:39:03Z</time>
      </trkpt>
      <trkpt lat="43.25186" lon="5.64256">
        <ele>477.2890625</ele>
        <time>2020-06-14T09:39:04Z</time>
      </trkpt>
      <trkpt lat="43.25185" lon="5.64256">
        <ele>477.72265625</ele>
        <time>2020-06-14T09:39:05Z</time>
      </trkpt>
      <trkpt lat="43.25182" lon="5.64256">
        <ele>478.734375</ele>
        <time>2020-06-14T09:39:07Z</time>
      </trkpt>
      <trkpt lat="43.2518" lon="5.64255">
        <ele>479.18359375</ele>
        <time>2020-06-14T09:39:08Z</time>
      </trkpt>
      <trkpt lat="43.25179" lon="5.64254">
        <ele>479.6328125</ele>
        <time>2020-06-14T09:39:09Z</time>
      </trkpt>
      <trkpt lat="43.25178" lon="5.64253">
        <ele>480.15625</ele>
        <time>2020-06-14T09:39:10Z</time>
      </trkpt>
      <trkpt lat="43.25176" lon="5.64251">
        <ele>480.734375</ele>
        <time>2020-06-14T09:39:11Z</time>
      </trkpt>
      <trkpt lat="43.25174" lon="5.64249">
        <ele>481.3828125</ele>
        <time>2020-06-14T09:39:12Z</time>
      </trkpt>
      <trkpt lat="43.25168" lon="5.64252">
        <ele>482.8515625</ele>
        <time>2020-06-14T09:39:16Z</time>
      </trkpt>
      <trkpt lat="43.25166" lon="5.64253">
        <ele>483.12109375</ele>
        <time>2020-06-14T09:39:27Z</time>
      </trkpt>
      <trkpt lat="43.25162" lon="5.64255">
        <ele>483.765625</ele>
        <time>2020-06-14T09:39:38Z</time>
      </trkpt>
      <trkpt lat="43.25161" lon="5.64257">
        <ele>483.91796875</ele>
        <time>2020-06-14T09:39:46Z</time>
      </trkpt>
      <trkpt lat="43.25158" lon="5.64259">
        <ele>484.3984375</ele>
        <time>2020-06-14T09:39:59Z</time>
      </trkpt>
      <trkpt lat="43.25157" lon="5.64263">
        <ele>484.43359375</ele>
        <time>2020-06-14T09:40:09Z</time>
      </trkpt>
      <trkpt lat="43.25155" lon="5.64266">
        <ele>484.76171875</ele>
        <time>2020-06-14T09:40:13Z</time>
      </trkpt>
      <trkpt lat="43.25149" lon="5.64267">
        <ele>485.86328125</ele>
        <time>2020-06-14T09:40:22Z</time>
      </trkpt>
      <trkpt lat="43.25149" lon="5.64266">
        <ele>485.875</ele>
        <time>2020-06-14T09:40:25Z</time>
      </trkpt>
      <trkpt lat="43.25148" lon="5.64267">
        <ele>486.1015625</ele>
        <time>2020-06-14T09:40:37Z</time>
      </trkpt>
      <trkpt lat="43.25142" lon="5.64274">
        <ele>486.06640625</ele>
        <time>2020-06-14T09:40:41Z</time>
      </trkpt>
      <trkpt lat="43.2514" lon="5.64277">
        <ele>485.80859375</ele>
        <time>2020-06-14T09:40:42Z</time>
      </trkpt>
      <trkpt lat="43.25139" lon="5.64281">
        <ele>485.40625</ele>
        <time>2020-06-14T09:40:43Z</time>
      </trkpt>
      <trkpt lat="43.25137" lon="5.64285">
        <ele>484.96484375</ele>
        <time>2020-06-14T09:40:44Z</time>
      </trkpt>
      <trkpt lat="43.25135" lon="5.64288">
        <ele>484.7734375</ele>
        <time>2020-06-14T09:40:45Z</time>
      </trkpt>
      <trkpt lat="43.25133" lon="5.64289">
        <ele>484.8203125</ele>
        <time>2020-06-14T09:40:46Z</time>
      </trkpt>
      <trkpt lat="43.2513" lon="5.64291">
        <ele>484.91796875</ele>
        <time>2020-06-14T09:40:47Z</time>
      </trkpt>
      <trkpt lat="43.25123" lon="5.64293">
        <ele>485.32421875</ele>
        <time>2020-06-14T09:40:49Z</time>
      </trkpt>
      <trkpt lat="43.2511" lon="5.64297">
        <ele>486.109375</ele>
        <time>2020-06-14T09:40:58Z</time>
      </trkpt>
      <trkpt lat="43.25109" lon="5.64299">
        <ele>485.84765625</ele>
        <time>2020-06-14T09:41:12Z</time>
      </trkpt>
      <trkpt lat="43.25109" lon="5.643">
        <ele>485.8125</ele>
        <time>2020-06-14T09:41:13Z</time>
      </trkpt>
      <trkpt lat="43.25107" lon="5.643">
        <ele>485.87890625</ele>
        <time>2020-06-14T09:41:14Z</time>
      </trkpt>
      <trkpt lat="43.25105" lon="5.64301">
        <ele>486.06640625</ele>
        <time>2020-06-14T09:41:15Z</time>
      </trkpt>
      <trkpt lat="43.25102" lon="5.64302">
        <ele>486.19921875</ele>
        <time>2020-06-14T09:41:16Z</time>
      </trkpt>
      <trkpt lat="43.25099" lon="5.64304">
        <ele>486.18359375</ele>
        <time>2020-06-14T09:41:17Z</time>
      </trkpt>
      <trkpt lat="43.25096" lon="5.64307">
        <ele>486.15234375</ele>
        <time>2020-06-14T09:41:18Z</time>
      </trkpt>
      <trkpt lat="43.25093" lon="5.6431">
        <ele>486.1796875</ele>
        <time>2020-06-14T09:41:19Z</time>
      </trkpt>
      <trkpt lat="43.25083" lon="5.64318">
        <ele>486.12109375</ele>
        <time>2020-06-14T09:41:22Z</time>
      </trkpt>
      <trkpt lat="43.25079" lon="5.6432">
        <ele>486.17578125</ele>
        <time>2020-06-14T09:41:23Z</time>
      </trkpt>
      <trkpt lat="43.25076" lon="5.64324">
        <ele>486.03515625</ele>
        <time>2020-06-14T09:41:24Z</time>
      </trkpt>
      <trkpt lat="43.25073" lon="5.64328">
        <ele>485.80078125</ele>
        <time>2020-06-14T09:41:25Z</time>
      </trkpt>
      <trkpt lat="43.25069" lon="5.64332">
        <ele>485.7109375</ele>
        <time>2020-06-14T09:41:26Z</time>
      </trkpt>
      <trkpt lat="43.25066" lon="5.64335">
        <ele>485.83984375</ele>
        <time>2020-06-14T09:41:27Z</time>
      </trkpt>
      <trkpt lat="43.25062" lon="5.64337">
        <ele>486.0546875</ele>
        <time>2020-06-14T09:41:28Z</time>
      </trkpt>
      <trkpt lat="43.25045" lon="5.6435">
        <ele>487.05859375</ele>
        <time>2020-06-14T09:41:38Z</time>
      </trkpt>
      <trkpt lat="43.25043" lon="5.64351">
        <ele>487.23828125</ele>
        <time>2020-06-14T09:41:39Z</time>
      </trkpt>
      <trkpt lat="43.25024" lon="5.64362">
        <ele>488.90234375</ele>
        <time>2020-06-14T09:41:51Z</time>
      </trkpt>
      <trkpt lat="43.25004" lon="5.64394">
        <ele>489.91015625</ele>
        <time>2020-06-14T09:42:05Z</time>
      </trkpt>
      <trkpt lat="43.24994" lon="5.64405">
        <ele>490.1015625</ele>
        <time>2020-06-14T09:42:11Z</time>
      </trkpt>
      <trkpt lat="43.24994" lon="5.64407">
        <ele>490.0546875</ele>
        <time>2020-06-14T09:42:12Z</time>
      </trkpt>
      <trkpt lat="43.24993" lon="5.64408">
        <ele>490.00390625</ele>
        <time>2020-06-14T09:42:13Z</time>
      </trkpt>
      <trkpt lat="43.24992" lon="5.6441">
        <ele>489.9609375</ele>
        <time>2020-06-14T09:42:14Z</time>
      </trkpt>
      <trkpt lat="43.24991" lon="5.64411">
        <ele>489.92578125</ele>
        <time>2020-06-14T09:42:15Z</time>
      </trkpt>
      <trkpt lat="43.24991" lon="5.64413">
        <ele>489.875</ele>
        <time>2020-06-14T09:42:16Z</time>
      </trkpt>
      <trkpt lat="43.2499" lon="5.64415">
        <ele>489.80078125</ele>
        <time>2020-06-14T09:42:17Z</time>
      </trkpt>
      <trkpt lat="43.24992" lon="5.64419">
        <ele>489.35546875</ele>
        <time>2020-06-14T09:42:33Z</time>
      </trkpt>
      <trkpt lat="43.24989" lon="5.64427">
        <ele>489.203125</ele>
        <time>2020-06-14T09:42:37Z</time>
      </trkpt>
      <trkpt lat="43.24987" lon="5.64429">
        <ele>489.27734375</ele>
        <time>2020-06-14T09:42:38Z</time>
      </trkpt>
      <trkpt lat="43.24986" lon="5.64431">
        <ele>489.3515625</ele>
        <time>2020-06-14T09:42:39Z</time>
      </trkpt>
      <trkpt lat="43.24985" lon="5.64434">
        <ele>489.38671875</ele>
        <time>2020-06-14T09:42:40Z</time>
      </trkpt>
      <trkpt lat="43.24984" lon="5.64437">
        <ele>489.2265625</ele>
        <time>2020-06-14T09:42:41Z</time>
      </trkpt>
      <trkpt lat="43.24984" lon="5.6444">
        <ele>489.0234375</ele>
        <time>2020-06-14T09:42:42Z</time>
      </trkpt>
      <trkpt lat="43.24983" lon="5.64443">
        <ele>488.93359375</ele>
        <time>2020-06-14T09:42:43Z</time>
      </trkpt>
      <trkpt lat="43.24981" lon="5.64446">
        <ele>488.984375</ele>
        <time>2020-06-14T09:42:44Z</time>
      </trkpt>
      <trkpt lat="43.24963" lon="5.64475">
        <ele>489.94921875</ele>
        <time>2020-06-14T09:42:52Z</time>
      </trkpt>
      <trkpt lat="43.24959" lon="5.64478">
        <ele>490.33203125</ele>
        <time>2020-06-14T09:42:53Z</time>
      </trkpt>
      <trkpt lat="43.24937" lon="5.64499">
        <ele>492.9453125</ele>
        <time>2020-06-14T09:43:00Z</time>
      </trkpt>
      <trkpt lat="43.24931" lon="5.64527">
        <ele>493.26171875</ele>
        <time>2020-06-14T09:43:07Z</time>
      </trkpt>
      <trkpt lat="43.24929" lon="5.6453">
        <ele>493.44140625</ele>
        <time>2020-06-14T09:43:08Z</time>
      </trkpt>
      <trkpt lat="43.24916" lon="5.64566">
        <ele>495.82421875</ele>
        <time>2020-06-14T09:43:19Z</time>
      </trkpt>
      <trkpt lat="43.24905" lon="5.64598">
        <ele>497.82421875</ele>
        <time>2020-06-14T09:43:30Z</time>
      </trkpt>
      <trkpt lat="43.249" lon="5.64603">
        <ele>498.82421875</ele>
        <time>2020-06-14T09:43:33Z</time>
      </trkpt>
      <trkpt lat="43.24898" lon="5.64604">
        <ele>499.2265625</ele>
        <time>2020-06-14T09:43:34Z</time>
      </trkpt>
      <trkpt lat="43.24896" lon="5.64606">
        <ele>499.61328125</ele>
        <time>2020-06-14T09:43:35Z</time>
      </trkpt>
      <trkpt lat="43.24894" lon="5.64608">
        <ele>499.9453125</ele>
        <time>2020-06-14T09:43:36Z</time>
      </trkpt>
      <trkpt lat="43.24893" lon="5.6461">
        <ele>500.25390625</ele>
        <time>2020-06-14T09:43:37Z</time>
      </trkpt>
      <trkpt lat="43.24892" lon="5.64612">
        <ele>500.46484375</ele>
        <time>2020-06-14T09:43:38Z</time>
      </trkpt>
      <trkpt lat="43.24891" lon="5.64614">
        <ele>500.59375</ele>
        <time>2020-06-14T09:43:39Z</time>
      </trkpt>
      <trkpt lat="43.2489" lon="5.64616">
        <ele>500.73046875</ele>
        <time>2020-06-14T09:43:40Z</time>
      </trkpt>
      <trkpt lat="43.24888" lon="5.64618">
        <ele>500.83984375</ele>
        <time>2020-06-14T09:43:41Z</time>
      </trkpt>
      <trkpt lat="43.24887" lon="5.64618">
        <ele>500.921875</ele>
        <time>2020-06-14T09:43:42Z</time>
      </trkpt>
      <trkpt lat="43.24886" lon="5.64619">
        <ele>501.01171875</ele>
        <time>2020-06-14T09:43:43Z</time>
      </trkpt>
      <trkpt lat="43.24884" lon="5.6462">
        <ele>501.11328125</ele>
        <time>2020-06-14T09:43:44Z</time>
      </trkpt>
      <trkpt lat="43.24883" lon="5.64622">
        <ele>501.19921875</ele>
        <time>2020-06-14T09:43:45Z</time>
      </trkpt>
      <trkpt lat="43.24882" lon="5.64624">
        <ele>501.26953125</ele>
        <time>2020-06-14T09:43:46Z</time>
      </trkpt>
      <trkpt lat="43.24881" lon="5.64626">
        <ele>501.39453125</ele>
        <time>2020-06-14T09:43:53Z</time>
      </trkpt>
      <trkpt lat="43.2488" lon="5.64628">
        <ele>501.453125</ele>
        <time>2020-06-14T09:43:54Z</time>
      </trkpt>
      <trkpt lat="43.24879" lon="5.6463">
        <ele>501.328125</ele>
        <time>2020-06-14T09:43:55Z</time>
      </trkpt>
      <trkpt lat="43.24874" lon="5.64643">
        <ele>500.58984375</ele>
        <time>2020-06-14T09:44:03Z</time>
      </trkpt>
      <trkpt lat="43.24872" lon="5.64645">
        <ele>500.55078125</ele>
        <time>2020-06-14T09:44:04Z</time>
      </trkpt>
      <trkpt lat="43.24871" lon="5.64646">
        <ele>500.515625</ele>
        <time>2020-06-14T09:44:05Z</time>
      </trkpt>
      <trkpt lat="43.24844" lon="5.64654">
        <ele>500.1484375</ele>
        <time>2020-06-14T09:44:15Z</time>
      </trkpt>
      <trkpt lat="43.24839" lon="5.64654">
        <ele>500.19140625</ele>
        <time>2020-06-14T09:44:16Z</time>
      </trkpt>
      <trkpt lat="43.24833" lon="5.64652">
        <ele>500.25</ele>
        <time>2020-06-14T09:44:17Z</time>
      </trkpt>
      <trkpt lat="43.24821" lon="5.64648">
        <ele>500.453125</ele>
        <time>2020-06-14T09:44:19Z</time>
      </trkpt>
      <trkpt lat="43.24811" lon="5.64645">
        <ele>500.68359375</ele>
        <time>2020-06-14T09:44:21Z</time>
      </trkpt>
      <trkpt lat="43.24808" lon="5.64642">
        <ele>501.140625</ele>
        <time>2020-06-14T09:44:22Z</time>
      </trkpt>
      <trkpt lat="43.24805" lon="5.64639">
        <ele>501.7265625</ele>
        <time>2020-06-14T09:44:23Z</time>
      </trkpt>
      <trkpt lat="43.24785" lon="5.64619">
        <ele>504.41796875</ele>
        <time>2020-06-14T09:44:34Z</time>
      </trkpt>
      <trkpt lat="43.24782" lon="5.64619">
        <ele>504.63671875</ele>
        <time>2020-06-14T09:44:36Z</time>
      </trkpt>
      <trkpt lat="43.24781" lon="5.6462">
        <ele>504.79296875</ele>
        <time>2020-06-14T09:44:37Z</time>
      </trkpt>
      <trkpt lat="43.24779" lon="5.64622">
        <ele>504.984375</ele>
        <time>2020-06-14T09:44:38Z</time>
      </trkpt>
      <trkpt lat="43.24772" lon="5.64623">
        <ele>505.6640625</ele>
        <time>2020-06-14T09:44:43Z</time>
      </trkpt>
      <trkpt lat="43.2477" lon="5.64624">
        <ele>505.8046875</ele>
        <time>2020-06-14T09:44:44Z</time>
      </trkpt>
      <trkpt lat="43.24769" lon="5.64624">
        <ele>505.92578125</ele>
        <time>2020-06-14T09:44:45Z</time>
      </trkpt>
      <trkpt lat="43.24767" lon="5.64625">
        <ele>506.046875</ele>
        <time>2020-06-14T09:44:46Z</time>
      </trkpt>
      <trkpt lat="43.24765" lon="5.64625">
        <ele>506.18359375</ele>
        <time>2020-06-14T09:44:47Z</time>
      </trkpt>
      <trkpt lat="43.24764" lon="5.64625">
        <ele>506.32421875</ele>
        <time>2020-06-14T09:44:48Z</time>
      </trkpt>
      <trkpt lat="43.24762" lon="5.64625">
        <ele>506.47265625</ele>
        <time>2020-06-14T09:44:49Z</time>
      </trkpt>
      <trkpt lat="43.2476" lon="5.64625">
        <ele>506.62109375</ele>
        <time>2020-06-14T09:44:50Z</time>
      </trkpt>
      <trkpt lat="43.24747" lon="5.64622">
        <ele>508.58984375</ele>
        <time>2020-06-14T09:44:58Z</time>
      </trkpt>
      <trkpt lat="43.24739" lon="5.64612">
        <ele>510.5390625</ele>
        <time>2020-06-14T09:45:04Z</time>
      </trkpt>
      <trkpt lat="43.24733" lon="5.64602">
        <ele>512.453125</ele>
        <time>2020-06-14T09:45:10Z</time>
      </trkpt>
      <trkpt lat="43.24726" lon="5.64596">
        <ele>514.078125</ele>
        <time>2020-06-14T09:45:15Z</time>
      </trkpt>
      <trkpt lat="43.24719" lon="5.64593">
        <ele>515.95703125</ele>
        <time>2020-06-14T09:45:26Z</time>
      </trkpt>
      <trkpt lat="43.24713" lon="5.64594">
        <ele>517.5</ele>
        <time>2020-06-14T09:45:40Z</time>
      </trkpt>
      <trkpt lat="43.24711" lon="5.64594">
        <ele>517.84375</ele>
        <time>2020-06-14T09:45:57Z</time>
      </trkpt>
      <trkpt lat="43.24711" lon="5.64596">
        <ele>517.8828125</ele>
        <time>2020-06-14T09:46:20Z</time>
      </trkpt>
      <trkpt lat="43.2471" lon="5.64598">
        <ele>518.09765625</ele>
        <time>2020-06-14T09:46:52Z</time>
      </trkpt>
      <trkpt lat="43.24712" lon="5.64599">
        <ele>517.59765625</ele>
        <time>2020-06-14T09:47:22Z</time>
      </trkpt>
      <trkpt lat="43.24711" lon="5.646">
        <ele>517.859375</ele>
        <time>2020-06-14T09:47:55Z</time>
      </trkpt>
      <trkpt lat="43.24709" lon="5.64598">
        <ele>518.32421875</ele>
        <time>2020-06-14T09:48:18Z</time>
      </trkpt>
      <trkpt lat="43.24707" lon="5.646">
        <ele>518.73828125</ele>
        <time>2020-06-14T09:48:23Z</time>
      </trkpt>
      <trkpt lat="43.24706" lon="5.64601">
        <ele>518.9453125</ele>
        <time>2020-06-14T09:48:24Z</time>
      </trkpt>
      <trkpt lat="43.24705" lon="5.64602">
        <ele>519.125</ele>
        <time>2020-06-14T09:48:25Z</time>
      </trkpt>
      <trkpt lat="43.24703" lon="5.64603">
        <ele>519.37109375</ele>
        <time>2020-06-14T09:48:26Z</time>
      </trkpt>
      <trkpt lat="43.24702" lon="5.64604">
        <ele>519.73046875</ele>
        <time>2020-06-14T09:48:27Z</time>
      </trkpt>
      <trkpt lat="43.247" lon="5.64604">
        <ele>520.0078125</ele>
        <time>2020-06-14T09:48:28Z</time>
      </trkpt>
      <trkpt lat="43.24699" lon="5.64605">
        <ele>520.19921875</ele>
        <time>2020-06-14T09:48:29Z</time>
      </trkpt>
      <trkpt lat="43.24692" lon="5.64609">
        <ele>521.29296875</ele>
        <time>2020-06-14T09:48:34Z</time>
      </trkpt>
      <trkpt lat="43.24685" lon="5.64606">
        <ele>523.21875</ele>
        <time>2020-06-14T09:48:38Z</time>
      </trkpt>
      <trkpt lat="43.24683" lon="5.64603">
        <ele>524.3984375</ele>
        <time>2020-06-14T09:48:40Z</time>
      </trkpt>
      <trkpt lat="43.24682" lon="5.64601">
        <ele>524.94921875</ele>
        <time>2020-06-14T09:48:41Z</time>
      </trkpt>
      <trkpt lat="43.24682" lon="5.64599">
        <ele>525.22265625</ele>
        <time>2020-06-14T09:48:42Z</time>
      </trkpt>
      <trkpt lat="43.24682" lon="5.64597">
        <ele>525.4375</ele>
        <time>2020-06-14T09:48:43Z</time>
      </trkpt>
      <trkpt lat="43.24681" lon="5.64595">
        <ele>525.71875</ele>
        <time>2020-06-14T09:48:44Z</time>
      </trkpt>
      <trkpt lat="43.24681" lon="5.64593">
        <ele>526.03515625</ele>
        <time>2020-06-14T09:48:45Z</time>
      </trkpt>
      <trkpt lat="43.24681" lon="5.64591">
        <ele>526.296875</ele>
        <time>2020-06-14T09:48:46Z</time>
      </trkpt>
      <trkpt lat="43.2468" lon="5.64589">
        <ele>526.4765625</ele>
        <time>2020-06-14T09:48:47Z</time>
      </trkpt>
      <trkpt lat="43.24675" lon="5.64568">
        <ele>529.671875</ele>
        <time>2020-06-14T09:49:00Z</time>
      </trkpt>
      <trkpt lat="43.24664" lon="5.64546">
        <ele>533.80859375</ele>
        <time>2020-06-14T09:49:13Z</time>
      </trkpt>
      <trkpt lat="43.24663" lon="5.64545">
        <ele>534.26953125</ele>
        <time>2020-06-14T09:49:14Z</time>
      </trkpt>
      <trkpt lat="43.24661" lon="5.64544">
        <ele>534.71484375</ele>
        <time>2020-06-14T09:49:15Z</time>
      </trkpt>
      <trkpt lat="43.24659" lon="5.64544">
        <ele>535.12109375</ele>
        <time>2020-06-14T09:49:16Z</time>
      </trkpt>
      <trkpt lat="43.24658" lon="5.64544">
        <ele>535.5546875</ele>
        <time>2020-06-14T09:49:17Z</time>
      </trkpt>
      <trkpt lat="43.24656" lon="5.64544">
        <ele>536.05859375</ele>
        <time>2020-06-14T09:49:18Z</time>
      </trkpt>
      <trkpt lat="43.24655" lon="5.64545">
        <ele>536.484375</ele>
        <time>2020-06-14T09:49:28Z</time>
      </trkpt>
      <trkpt lat="43.24654" lon="5.64545">
        <ele>536.66796875</ele>
        <time>2020-06-14T09:49:37Z</time>
      </trkpt>
      <trkpt lat="43.24653" lon="5.64545">
        <ele>537.1796875</ele>
        <time>2020-06-14T09:49:49Z</time>
      </trkpt>
      <trkpt lat="43.24652" lon="5.64546">
        <ele>537.1953125</ele>
        <time>2020-06-14T09:50:16Z</time>
      </trkpt>
      <trkpt lat="43.2465" lon="5.6455">
        <ele>537.75390625</ele>
        <time>2020-06-14T09:50:48Z</time>
      </trkpt>
      <trkpt lat="43.2465" lon="5.64551">
        <ele>537.75390625</ele>
        <time>2020-06-14T09:50:50Z</time>
      </trkpt>
      <trkpt lat="43.24648" lon="5.64562">
        <ele>537.8671875</ele>
        <time>2020-06-14T09:51:07Z</time>
      </trkpt>
      <trkpt lat="43.24646" lon="5.64568">
        <ele>538.16015625</ele>
        <time>2020-06-14T09:51:18Z</time>
      </trkpt>
      <trkpt lat="43.24643" lon="5.64579">
        <ele>538.27734375</ele>
        <time>2020-06-14T09:51:32Z</time>
      </trkpt>
      <trkpt lat="43.24642" lon="5.64584">
        <ele>538.03515625</ele>
        <time>2020-06-14T09:51:48Z</time>
      </trkpt>
      <trkpt lat="43.24642" lon="5.64584">
        <ele>538.00390625</ele>
        <time>2020-06-14T09:52:15Z</time>
      </trkpt>
      <trkpt lat="43.24641" lon="5.64586">
        <ele>537.9765625</ele>
        <time>2020-06-14T09:52:31Z</time>
      </trkpt>
      <trkpt lat="43.2464" lon="5.64588">
        <ele>537.96484375</ele>
        <time>2020-06-14T09:52:32Z</time>
      </trkpt>
      <trkpt lat="43.24639" lon="5.64591">
        <ele>537.94921875</ele>
        <time>2020-06-14T09:52:34Z</time>
      </trkpt>
      <trkpt lat="43.2462" lon="5.6462">
        <ele>538.203125</ele>
        <time>2020-06-14T09:52:45Z</time>
      </trkpt>
      <trkpt lat="43.24589" lon="5.64652">
        <ele>538.9921875</ele>
        <time>2020-06-14T09:52:57Z</time>
      </trkpt>
      <trkpt lat="43.24562" lon="5.64668">
        <ele>543.859375</ele>
        <time>2020-06-14T09:53:07Z</time>
      </trkpt>
      <trkpt lat="43.24536" lon="5.64692">
        <ele>548.48828125</ele>
        <time>2020-06-14T09:53:21Z</time>
      </trkpt>
      <trkpt lat="43.24532" lon="5.64709">
        <ele>548.89453125</ele>
        <time>2020-06-14T09:53:29Z</time>
      </trkpt>
      <trkpt lat="43.24533" lon="5.64712">
        <ele>548.6796875</ele>
        <time>2020-06-14T09:53:30Z</time>
      </trkpt>
      <trkpt lat="43.24531" lon="5.64746">
        <ele>546.89453125</ele>
        <time>2020-06-14T09:53:45Z</time>
      </trkpt>
      <trkpt lat="43.24528" lon="5.64777">
        <ele>546.92578125</ele>
        <time>2020-06-14T09:53:59Z</time>
      </trkpt>
      <trkpt lat="43.24529" lon="5.6478">
        <ele>546.73828125</ele>
        <time>2020-06-14T09:54:00Z</time>
      </trkpt>
      <trkpt lat="43.24523" lon="5.64795">
        <ele>548.57421875</ele>
        <time>2020-06-14T09:54:08Z</time>
      </trkpt>
      <trkpt lat="43.24503" lon="5.64809">
        <ele>554.7265625</ele>
        <time>2020-06-14T09:54:22Z</time>
      </trkpt>
      <trkpt lat="43.24498" lon="5.64813">
        <ele>555.76953125</ele>
        <time>2020-06-14T09:54:26Z</time>
      </trkpt>
      <trkpt lat="43.24496" lon="5.64821">
        <ele>556.37890625</ele>
        <time>2020-06-14T09:54:32Z</time>
      </trkpt>
      <trkpt lat="43.24499" lon="5.64829">
        <ele>556.37890625</ele>
        <time>2020-06-14T09:54:37Z</time>
      </trkpt>
      <trkpt lat="43.24509" lon="5.64854">
        <ele>556.09765625</ele>
        <time>2020-06-14T09:54:52Z</time>
      </trkpt>
      <trkpt lat="43.24512" lon="5.64864">
        <ele>556.39453125</ele>
        <time>2020-06-14T09:54:58Z</time>
      </trkpt>
      <trkpt lat="43.24513" lon="5.64868">
        <ele>556.53125</ele>
        <time>2020-06-14T09:55:00Z</time>
      </trkpt>
      <trkpt lat="43.24515" lon="5.64879">
        <ele>556.953125</ele>
        <time>2020-06-14T09:55:17Z</time>
      </trkpt>
      <trkpt lat="43.24516" lon="5.64881">
        <ele>556.828125</ele>
        <time>2020-06-14T09:55:47Z</time>
      </trkpt>
      <trkpt lat="43.24518" lon="5.64883">
        <ele>556.61328125</ele>
        <time>2020-06-14T09:55:49Z</time>
      </trkpt>
      <trkpt lat="43.24519" lon="5.64891">
        <ele>556.5</ele>
        <time>2020-06-14T09:55:53Z</time>
      </trkpt>
      <trkpt lat="43.24523" lon="5.64904">
        <ele>556.234375</ele>
        <time>2020-06-14T09:55:59Z</time>
      </trkpt>
      <trkpt lat="43.2454" lon="5.64932">
        <ele>552.9140625</ele>
        <time>2020-06-14T09:56:13Z</time>
      </trkpt>
      <trkpt lat="43.24557" lon="5.64952">
        <ele>547.4609375</ele>
        <time>2020-06-14T09:56:21Z</time>
      </trkpt>
      <trkpt lat="43.24562" lon="5.64961">
        <ele>546.20703125</ele>
        <time>2020-06-14T09:56:25Z</time>
      </trkpt>
      <trkpt lat="43.24562" lon="5.64965">
        <ele>546.0390625</ele>
        <time>2020-06-14T09:56:26Z</time>
      </trkpt>
      <trkpt lat="43.24562" lon="5.64968">
        <ele>545.890625</ele>
        <time>2020-06-14T09:56:27Z</time>
      </trkpt>
      <trkpt lat="43.24563" lon="5.6497">
        <ele>545.546875</ele>
        <time>2020-06-14T09:56:28Z</time>
      </trkpt>
      <trkpt lat="43.24564" lon="5.64972">
        <ele>545.09375</ele>
        <time>2020-06-14T09:56:29Z</time>
      </trkpt>
      <trkpt lat="43.24566" lon="5.64975">
        <ele>544.5234375</ele>
        <time>2020-06-14T09:56:30Z</time>
      </trkpt>
      <trkpt lat="43.24571" lon="5.64988">
        <ele>543.0390625</ele>
        <time>2020-06-14T09:56:34Z</time>
      </trkpt>
      <trkpt lat="43.24573" lon="5.6499">
        <ele>542.515625</ele>
        <time>2020-06-14T09:56:35Z</time>
      </trkpt>
      <trkpt lat="43.24575" lon="5.64992">
        <ele>541.86328125</ele>
        <time>2020-06-14T09:56:36Z</time>
      </trkpt>
      <trkpt lat="43.24577" lon="5.64994">
        <ele>541.34765625</ele>
        <time>2020-06-14T09:56:37Z</time>
      </trkpt>
      <trkpt lat="43.24578" lon="5.64994">
        <ele>541.1328125</ele>
        <time>2020-06-14T09:56:38Z</time>
      </trkpt>
      <trkpt lat="43.24579" lon="5.64994">
        <ele>540.8984375</ele>
        <time>2020-06-14T09:56:58Z</time>
      </trkpt>
      <trkpt lat="43.24596" lon="5.65">
        <ele>536.546875</ele>
        <time>2020-06-14T09:57:10Z</time>
      </trkpt>
      <trkpt lat="43.246" lon="5.65003">
        <ele>535.625</ele>
        <time>2020-06-14T09:57:11Z</time>
      </trkpt>
      <trkpt lat="43.24603" lon="5.65007">
        <ele>535.06640625</ele>
        <time>2020-06-14T09:57:12Z</time>
      </trkpt>
      <trkpt lat="43.24605" lon="5.65013">
        <ele>534.875</ele>
        <time>2020-06-14T09:57:13Z</time>
      </trkpt>
      <trkpt lat="43.24607" lon="5.65019">
        <ele>534.7578125</ele>
        <time>2020-06-14T09:57:14Z</time>
      </trkpt>
      <trkpt lat="43.24608" lon="5.65025">
        <ele>534.265625</ele>
        <time>2020-06-14T09:57:15Z</time>
      </trkpt>
      <trkpt lat="43.2461" lon="5.65029">
        <ele>533.765625</ele>
        <time>2020-06-14T09:57:16Z</time>
      </trkpt>
      <trkpt lat="43.24614" lon="5.65033">
        <ele>533.2265625</ele>
        <time>2020-06-14T09:57:17Z</time>
      </trkpt>
      <trkpt lat="43.24617" lon="5.65037">
        <ele>532.328125</ele>
        <time>2020-06-14T09:57:18Z</time>
      </trkpt>
      <trkpt lat="43.24621" lon="5.65042">
        <ele>531.30078125</ele>
        <time>2020-06-14T09:57:19Z</time>
      </trkpt>
      <trkpt lat="43.24624" lon="5.65046">
        <ele>530.296875</ele>
        <time>2020-06-14T09:57:20Z</time>
      </trkpt>
      <trkpt lat="43.24628" lon="5.65049">
        <ele>529.18359375</ele>
        <time>2020-06-14T09:57:21Z</time>
      </trkpt>
      <trkpt lat="43.24631" lon="5.65051">
        <ele>528.2109375</ele>
        <time>2020-06-14T09:57:22Z</time>
      </trkpt>
      <trkpt lat="43.24634" lon="5.65053">
        <ele>527.3671875</ele>
        <time>2020-06-14T09:57:23Z</time>
      </trkpt>
      <trkpt lat="43.24636" lon="5.65055">
        <ele>526.69140625</ele>
        <time>2020-06-14T09:57:24Z</time>
      </trkpt>
      <trkpt lat="43.24638" lon="5.65059">
        <ele>526.21484375</ele>
        <time>2020-06-14T09:57:25Z</time>
      </trkpt>
      <trkpt lat="43.24639" lon="5.65062">
        <ele>525.90234375</ele>
        <time>2020-06-14T09:57:26Z</time>
      </trkpt>
      <trkpt lat="43.24641" lon="5.65066">
        <ele>525.50390625</ele>
        <time>2020-06-14T09:57:27Z</time>
      </trkpt>
      <trkpt lat="43.24643" lon="5.6507">
        <ele>524.9921875</ele>
        <time>2020-06-14T09:57:28Z</time>
      </trkpt>
      <trkpt lat="43.24645" lon="5.65073">
        <ele>524.3203125</ele>
        <time>2020-06-14T09:57:29Z</time>
      </trkpt>
      <trkpt lat="43.24647" lon="5.65077">
        <ele>523.7109375</ele>
        <time>2020-06-14T09:57:30Z</time>
      </trkpt>
      <trkpt lat="43.24648" lon="5.65082">
        <ele>523.4375</ele>
        <time>2020-06-14T09:57:31Z</time>
      </trkpt>
      <trkpt lat="43.24648" lon="5.65086">
        <ele>523.34765625</ele>
        <time>2020-06-14T09:57:32Z</time>
      </trkpt>
      <trkpt lat="43.24648" lon="5.6509">
        <ele>523.20703125</ele>
        <time>2020-06-14T09:57:33Z</time>
      </trkpt>
      <trkpt lat="43.24649" lon="5.65095">
        <ele>522.8984375</ele>
        <time>2020-06-14T09:57:34Z</time>
      </trkpt>
      <trkpt lat="43.2465" lon="5.651">
        <ele>522.515625</ele>
        <time>2020-06-14T09:57:35Z</time>
      </trkpt>
      <trkpt lat="43.24659" lon="5.65123">
        <ele>518.68359375</ele>
        <time>2020-06-14T09:57:40Z</time>
      </trkpt>
      <trkpt lat="43.24661" lon="5.65129">
        <ele>517.95703125</ele>
        <time>2020-06-14T09:57:41Z</time>
      </trkpt>
      <trkpt lat="43.24665" lon="5.65141">
        <ele>516.39453125</ele>
        <time>2020-06-14T09:57:43Z</time>
      </trkpt>
      <trkpt lat="43.24666" lon="5.65145">
        <ele>515.91796875</ele>
        <time>2020-06-14T09:57:44Z</time>
      </trkpt>
      <trkpt lat="43.24666" lon="5.65149">
        <ele>515.625</ele>
        <time>2020-06-14T09:57:45Z</time>
      </trkpt>
      <trkpt lat="43.24666" lon="5.65151">
        <ele>515.421875</ele>
        <time>2020-06-14T09:57:46Z</time>
      </trkpt>
      <trkpt lat="43.24665" lon="5.65154">
        <ele>515.18359375</ele>
        <time>2020-06-14T09:57:47Z</time>
      </trkpt>
      <trkpt lat="43.24665" lon="5.65157">
        <ele>514.81640625</ele>
        <time>2020-06-14T09:57:48Z</time>
      </trkpt>
      <trkpt lat="43.24666" lon="5.6516">
        <ele>514.21484375</ele>
        <time>2020-06-14T09:57:49Z</time>
      </trkpt>
      <trkpt lat="43.24667" lon="5.65163">
        <ele>513.57421875</ele>
        <time>2020-06-14T09:57:50Z</time>
      </trkpt>
      <trkpt lat="43.2467" lon="5.65167">
        <ele>513</ele>
        <time>2020-06-14T09:57:51Z</time>
      </trkpt>
      <trkpt lat="43.24673" lon="5.6517">
        <ele>511.94921875</ele>
        <time>2020-06-14T09:57:52Z</time>
      </trkpt>
      <trkpt lat="43.24676" lon="5.65173">
        <ele>510.73046875</ele>
        <time>2020-06-14T09:57:53Z</time>
      </trkpt>
      <trkpt lat="43.24679" lon="5.65175">
        <ele>509.7421875</ele>
        <time>2020-06-14T09:57:54Z</time>
      </trkpt>
      <trkpt lat="43.24686" lon="5.65183">
        <ele>507.3359375</ele>
        <time>2020-06-14T09:57:57Z</time>
      </trkpt>
      <trkpt lat="43.24687" lon="5.65186">
        <ele>506.70703125</ele>
        <time>2020-06-14T09:57:58Z</time>
      </trkpt>
      <trkpt lat="43.2469" lon="5.65191">
        <ele>505.58984375</ele>
        <time>2020-06-14T09:58:00Z</time>
      </trkpt>
      <trkpt lat="43.24691" lon="5.65193">
        <ele>505.1328125</ele>
        <time>2020-06-14T09:58:01Z</time>
      </trkpt>
      <trkpt lat="43.24692" lon="5.65195">
        <ele>504.79296875</ele>
        <time>2020-06-14T09:58:02Z</time>
      </trkpt>
      <trkpt lat="43.24693" lon="5.65194">
        <ele>504.5703125</ele>
        <time>2020-06-14T09:58:03Z</time>
      </trkpt>
      <trkpt lat="43.24695" lon="5.65195">
        <ele>504.2890625</ele>
        <time>2020-06-14T09:58:04Z</time>
      </trkpt>
      <trkpt lat="43.24697" lon="5.65195">
        <ele>503.94140625</ele>
        <time>2020-06-14T09:58:05Z</time>
      </trkpt>
      <trkpt lat="43.24703" lon="5.652">
        <ele>502.35546875</ele>
        <time>2020-06-14T09:58:08Z</time>
      </trkpt>
      <trkpt lat="43.24704" lon="5.65202">
        <ele>501.82421875</ele>
        <time>2020-06-14T09:58:09Z</time>
      </trkpt>
      <trkpt lat="43.24706" lon="5.65204">
        <ele>501.3203125</ele>
        <time>2020-06-14T09:58:10Z</time>
      </trkpt>
      <trkpt lat="43.24707" lon="5.65206">
        <ele>500.8984375</ele>
        <time>2020-06-14T09:58:11Z</time>
      </trkpt>
      <trkpt lat="43.24709" lon="5.65208">
        <ele>500.43359375</ele>
        <time>2020-06-14T09:58:12Z</time>
      </trkpt>
      <trkpt lat="43.24711" lon="5.6521">
        <ele>499.8828125</ele>
        <time>2020-06-14T09:58:13Z</time>
      </trkpt>
      <trkpt lat="43.24712" lon="5.65211">
        <ele>499.42578125</ele>
        <time>2020-06-14T09:58:14Z</time>
      </trkpt>
      <trkpt lat="43.24713" lon="5.65214">
        <ele>499.05859375</ele>
        <time>2020-06-14T09:58:15Z</time>
      </trkpt>
      <trkpt lat="43.24714" lon="5.65216">
        <ele>498.6796875</ele>
        <time>2020-06-14T09:58:16Z</time>
      </trkpt>
      <trkpt lat="43.24715" lon="5.65219">
        <ele>498.1640625</ele>
        <time>2020-06-14T09:58:17Z</time>
      </trkpt>
      <trkpt lat="43.24719" lon="5.65225">
        <ele>496.98828125</ele>
        <time>2020-06-14T09:58:19Z</time>
      </trkpt>
      <trkpt lat="43.24728" lon="5.65242">
        <ele>494.15625</ele>
        <time>2020-06-14T09:58:24Z</time>
      </trkpt>
      <trkpt lat="43.24731" lon="5.65252">
        <ele>492.4609375</ele>
        <time>2020-06-14T09:58:27Z</time>
      </trkpt>
      <trkpt lat="43.24731" lon="5.65251">
        <ele>492.5078125</ele>
        <time>2020-06-14T09:58:44Z</time>
      </trkpt>
      <trkpt lat="43.24732" lon="5.65252">
        <ele>492.1796875</ele>
        <time>2020-06-14T09:59:11Z</time>
      </trkpt>
      <trkpt lat="43.24746" lon="5.65276">
        <ele>487.37890625</ele>
        <time>2020-06-14T09:59:26Z</time>
      </trkpt>
      <trkpt lat="43.24751" lon="5.6528">
        <ele>486.08203125</ele>
        <time>2020-06-14T09:59:28Z</time>
      </trkpt>
      <trkpt lat="43.24759" lon="5.6528">
        <ele>484.48828125</ele>
        <time>2020-06-14T09:59:31Z</time>
      </trkpt>
      <trkpt lat="43.24771" lon="5.65279">
        <ele>482.0234375</ele>
        <time>2020-06-14T09:59:35Z</time>
      </trkpt>
      <trkpt lat="43.24774" lon="5.65279">
        <ele>481.2890625</ele>
        <time>2020-06-14T09:59:36Z</time>
      </trkpt>
      <trkpt lat="43.24785" lon="5.65279">
        <ele>478.9140625</ele>
        <time>2020-06-14T09:59:39Z</time>
      </trkpt>
      <trkpt lat="43.2479" lon="5.65285">
        <ele>477.0625</ele>
        <time>2020-06-14T09:59:42Z</time>
      </trkpt>
      <trkpt lat="43.248" lon="5.65298">
        <ele>473.90234375</ele>
        <time>2020-06-14T09:59:46Z</time>
      </trkpt>
      <trkpt lat="43.24802" lon="5.65301">
        <ele>473.3671875</ele>
        <time>2020-06-14T09:59:47Z</time>
      </trkpt>
      <trkpt lat="43.24803" lon="5.65304">
        <ele>472.94921875</ele>
        <time>2020-06-14T09:59:48Z</time>
      </trkpt>
      <trkpt lat="43.24805" lon="5.65307">
        <ele>472.40234375</ele>
        <time>2020-06-14T09:59:49Z</time>
      </trkpt>
      <trkpt lat="43.24812" lon="5.65319">
        <ele>470.421875</ele>
        <time>2020-06-14T09:59:52Z</time>
      </trkpt>
      <trkpt lat="43.24812" lon="5.65323">
        <ele>470.21875</ele>
        <time>2020-06-14T09:59:53Z</time>
      </trkpt>
      <trkpt lat="43.24812" lon="5.65329">
        <ele>470.40234375</ele>
        <time>2020-06-14T09:59:54Z</time>
      </trkpt>
      <trkpt lat="43.2481" lon="5.65342">
        <ele>470.83203125</ele>
        <time>2020-06-14T09:59:56Z</time>
      </trkpt>
      <trkpt lat="43.24807" lon="5.6538">
        <ele>472.2109375</ele>
        <time>2020-06-14T10:00:01Z</time>
      </trkpt>
      <trkpt lat="43.24808" lon="5.65386">
        <ele>472.5703125</ele>
        <time>2020-06-14T10:00:02Z</time>
      </trkpt>
      <trkpt lat="43.24809" lon="5.65391">
        <ele>472.9375</ele>
        <time>2020-06-14T10:00:03Z</time>
      </trkpt>
      <trkpt lat="43.2481" lon="5.65395">
        <ele>473.17578125</ele>
        <time>2020-06-14T10:00:04Z</time>
      </trkpt>
      <trkpt lat="43.24809" lon="5.65396">
        <ele>473.33984375</ele>
        <time>2020-06-14T10:00:05Z</time>
      </trkpt>
      <trkpt lat="43.24808" lon="5.65397">
        <ele>473.38671875</ele>
        <time>2020-06-14T10:00:06Z</time>
      </trkpt>
      <trkpt lat="43.24808" lon="5.65399">
        <ele>473.46484375</ele>
        <time>2020-06-14T10:00:07Z</time>
      </trkpt>
      <trkpt lat="43.24807" lon="5.65401">
        <ele>473.5625</ele>
        <time>2020-06-14T10:00:08Z</time>
      </trkpt>
      <trkpt lat="43.24806" lon="5.65403">
        <ele>473.65234375</ele>
        <time>2020-06-14T10:00:15Z</time>
      </trkpt>
      <trkpt lat="43.24805" lon="5.65406">
        <ele>473.7265625</ele>
        <time>2020-06-14T10:00:16Z</time>
      </trkpt>
      <trkpt lat="43.24802" lon="5.6541">
        <ele>473.75390625</ele>
        <time>2020-06-14T10:00:17Z</time>
      </trkpt>
      <trkpt lat="43.24799" lon="5.65414">
        <ele>473.625</ele>
        <time>2020-06-14T10:00:18Z</time>
      </trkpt>
      <trkpt lat="43.24794" lon="5.65418">
        <ele>473.3203125</ele>
        <time>2020-06-14T10:00:19Z</time>
      </trkpt>
      <trkpt lat="43.24789" lon="5.65422">
        <ele>472.90625</ele>
        <time>2020-06-14T10:00:20Z</time>
      </trkpt>
      <trkpt lat="43.24781" lon="5.6543">
        <ele>471.78125</ele>
        <time>2020-06-14T10:00:22Z</time>
      </trkpt>
      <trkpt lat="43.24776" lon="5.65433">
        <ele>470.765625</ele>
        <time>2020-06-14T10:00:23Z</time>
      </trkpt>
      <trkpt lat="43.2477" lon="5.65434">
        <ele>469.5078125</ele>
        <time>2020-06-14T10:00:24Z</time>
      </trkpt>
      <trkpt lat="43.24755" lon="5.65435">
        <ele>466.09375</ele>
        <time>2020-06-14T10:00:27Z</time>
      </trkpt>
      <trkpt lat="43.2475" lon="5.65432">
        <ele>464.9765625</ele>
        <time>2020-06-14T10:00:28Z</time>
      </trkpt>
      <trkpt lat="43.24742" lon="5.65427">
        <ele>463.08203125</ele>
        <time>2020-06-14T10:00:30Z</time>
      </trkpt>
      <trkpt lat="43.24731" lon="5.65426">
        <ele>460.08984375</ele>
        <time>2020-06-14T10:00:33Z</time>
      </trkpt>
      <trkpt lat="43.24722" lon="5.65425">
        <ele>457.44921875</ele>
        <time>2020-06-14T10:00:36Z</time>
      </trkpt>
      <trkpt lat="43.24719" lon="5.65422">
        <ele>457.23828125</ele>
        <time>2020-06-14T10:00:37Z</time>
      </trkpt>
      <trkpt lat="43.24699" lon="5.654">
        <ele>457.7109375</ele>
        <time>2020-06-14T10:00:47Z</time>
      </trkpt>
      <trkpt lat="43.24692" lon="5.65398">
        <ele>456.640625</ele>
        <time>2020-06-14T10:00:54Z</time>
      </trkpt>
      <trkpt lat="43.24691" lon="5.65398">
        <ele>456.2265625</ele>
        <time>2020-06-14T10:00:55Z</time>
      </trkpt>
      <trkpt lat="43.24689" lon="5.65398">
        <ele>455.9375</ele>
        <time>2020-06-14T10:00:56Z</time>
      </trkpt>
      <trkpt lat="43.24688" lon="5.65398">
        <ele>455.6171875</ele>
        <time>2020-06-14T10:00:57Z</time>
      </trkpt>
      <trkpt lat="43.24687" lon="5.65397">
        <ele>455.96484375</ele>
        <time>2020-06-14T10:01:11Z</time>
      </trkpt>
      <trkpt lat="43.24676" lon="5.65401">
        <ele>451.77734375</ele>
        <time>2020-06-14T10:01:30Z</time>
      </trkpt>
      <trkpt lat="43.24657" lon="5.65409">
        <ele>445.4765625</ele>
        <time>2020-06-14T10:01:36Z</time>
      </trkpt>
      <trkpt lat="43.24649" lon="5.65409">
        <ele>443.984375</ele>
        <time>2020-06-14T10:01:38Z</time>
      </trkpt>
      <trkpt lat="43.2464" lon="5.65408">
        <ele>442.71875</ele>
        <time>2020-06-14T10:01:40Z</time>
      </trkpt>
      <trkpt lat="43.24636" lon="5.65409">
        <ele>441.9375</ele>
        <time>2020-06-14T10:01:41Z</time>
      </trkpt>
      <trkpt lat="43.24633" lon="5.6541">
        <ele>441.0703125</ele>
        <time>2020-06-14T10:01:42Z</time>
      </trkpt>
      <trkpt lat="43.24628" lon="5.65411">
        <ele>440.1328125</ele>
        <time>2020-06-14T10:01:43Z</time>
      </trkpt>
      <trkpt lat="43.24623" lon="5.65412">
        <ele>439.16796875</ele>
        <time>2020-06-14T10:01:44Z</time>
      </trkpt>
      <trkpt lat="43.24619" lon="5.65412">
        <ele>438.3828125</ele>
        <time>2020-06-14T10:01:45Z</time>
      </trkpt>
      <trkpt lat="43.24615" lon="5.65412">
        <ele>437.97265625</ele>
        <time>2020-06-14T10:01:46Z</time>
      </trkpt>
      <trkpt lat="43.24609" lon="5.65411">
        <ele>437.19921875</ele>
        <time>2020-06-14T10:01:48Z</time>
      </trkpt>
      <trkpt lat="43.24605" lon="5.65411">
        <ele>436.44921875</ele>
        <time>2020-06-14T10:01:49Z</time>
      </trkpt>
      <trkpt lat="43.24601" lon="5.65411">
        <ele>435.93359375</ele>
        <time>2020-06-14T10:01:50Z</time>
      </trkpt>
      <trkpt lat="43.24597" lon="5.6541">
        <ele>435.5859375</ele>
        <time>2020-06-14T10:01:51Z</time>
      </trkpt>
      <trkpt lat="43.24592" lon="5.65407">
        <ele>435.421875</ele>
        <time>2020-06-14T10:01:52Z</time>
      </trkpt>
      <trkpt lat="43.24587" lon="5.65404">
        <ele>435.52734375</ele>
        <time>2020-06-14T10:01:53Z</time>
      </trkpt>
      <trkpt lat="43.24583" lon="5.65399">
        <ele>435.72265625</ele>
        <time>2020-06-14T10:01:54Z</time>
      </trkpt>
      <trkpt lat="43.24578" lon="5.65394">
        <ele>435.98046875</ele>
        <time>2020-06-14T10:01:55Z</time>
      </trkpt>
      <trkpt lat="43.24566" lon="5.65381">
        <ele>436.19921875</ele>
        <time>2020-06-14T10:01:58Z</time>
      </trkpt>
      <trkpt lat="43.24557" lon="5.65369">
        <ele>435.80078125</ele>
        <time>2020-06-14T10:02:05Z</time>
      </trkpt>
      <trkpt lat="43.2455" lon="5.65361">
        <ele>434.71875</ele>
        <time>2020-06-14T10:02:07Z</time>
      </trkpt>
      <trkpt lat="43.24546" lon="5.65356">
        <ele>433.91796875</ele>
        <time>2020-06-14T10:02:08Z</time>
      </trkpt>
      <trkpt lat="43.24534" lon="5.65342">
        <ele>431.5859375</ele>
        <time>2020-06-14T10:02:12Z</time>
      </trkpt>
      <trkpt lat="43.24527" lon="5.65335">
        <ele>430.8203125</ele>
        <time>2020-06-14T10:02:14Z</time>
      </trkpt>
      <trkpt lat="43.24523" lon="5.65333">
        <ele>430.390625</ele>
        <time>2020-06-14T10:02:15Z</time>
      </trkpt>
      <trkpt lat="43.2452" lon="5.65333">
        <ele>429.671875</ele>
        <time>2020-06-14T10:02:16Z</time>
      </trkpt>
      <trkpt lat="43.24515" lon="5.65342">
        <ele>426.88671875</ele>
        <time>2020-06-14T10:02:19Z</time>
      </trkpt>
      <trkpt lat="43.24514" lon="5.65346">
        <ele>426.15625</ele>
        <time>2020-06-14T10:02:20Z</time>
      </trkpt>
      <trkpt lat="43.24514" lon="5.65349">
        <ele>425.41796875</ele>
        <time>2020-06-14T10:02:21Z</time>
      </trkpt>
      <trkpt lat="43.24513" lon="5.65362">
        <ele>422.9140625</ele>
        <time>2020-06-14T10:02:25Z</time>
      </trkpt>
      <trkpt lat="43.24511" lon="5.65367">
        <ele>421.71875</ele>
        <time>2020-06-14T10:02:27Z</time>
      </trkpt>
      <trkpt lat="43.2451" lon="5.65376">
        <ele>419.7578125</ele>
        <time>2020-06-14T10:02:30Z</time>
      </trkpt>
      <trkpt lat="43.24511" lon="5.65379">
        <ele>419.5703125</ele>
        <time>2020-06-14T10:02:31Z</time>
      </trkpt>
      <trkpt lat="43.24513" lon="5.65384">
        <ele>419.265625</ele>
        <time>2020-06-14T10:02:33Z</time>
      </trkpt>
      <trkpt lat="43.24505" lon="5.65404">
        <ele>413.48828125</ele>
        <time>2020-06-14T10:02:38Z</time>
      </trkpt>
      <trkpt lat="43.24504" lon="5.65413">
        <ele>411.64453125</ele>
        <time>2020-06-14T10:02:40Z</time>
      </trkpt>
      <trkpt lat="43.24502" lon="5.65427">
        <ele>408.640625</ele>
        <time>2020-06-14T10:02:44Z</time>
      </trkpt>
      <trkpt lat="43.24502" lon="5.65428">
        <ele>408.45703125</ele>
        <time>2020-06-14T10:02:55Z</time>
      </trkpt>
      <trkpt lat="43.245" lon="5.65427">
        <ele>408.3359375</ele>
        <time>2020-06-14T10:03:14Z</time>
      </trkpt>
      <trkpt lat="43.245" lon="5.65427">
        <ele>408.13671875</ele>
        <time>2020-06-14T10:03:47Z</time>
      </trkpt>
      <trkpt lat="43.24502" lon="5.6543">
        <ele>408.1875</ele>
        <time>2020-06-14T10:04:07Z</time>
      </trkpt>
      <trkpt lat="43.24503" lon="5.65434">
        <ele>407.734375</ele>
        <time>2020-06-14T10:04:21Z</time>
      </trkpt>
      <trkpt lat="43.24503" lon="5.65435">
        <ele>407.55859375</ele>
        <time>2020-06-14T10:04:22Z</time>
      </trkpt>
      <trkpt lat="43.24499" lon="5.65454">
        <ele>403.94921875</ele>
        <time>2020-06-14T10:04:27Z</time>
      </trkpt>
      <trkpt lat="43.24499" lon="5.65461">
        <ele>402.91796875</ele>
        <time>2020-06-14T10:04:28Z</time>
      </trkpt>
      <trkpt lat="43.24498" lon="5.65477">
        <ele>400.6640625</ele>
        <time>2020-06-14T10:04:30Z</time>
      </trkpt>
      <trkpt lat="43.24499" lon="5.65484">
        <ele>399.6953125</ele>
        <time>2020-06-14T10:04:31Z</time>
      </trkpt>
      <trkpt lat="43.24499" lon="5.65491">
        <ele>398.71484375</ele>
        <time>2020-06-14T10:04:32Z</time>
      </trkpt>
      <trkpt lat="43.24499" lon="5.65498">
        <ele>397.5078125</ele>
        <time>2020-06-14T10:04:33Z</time>
      </trkpt>
      <trkpt lat="43.24497" lon="5.65504">
        <ele>396.15234375</ele>
        <time>2020-06-14T10:04:34Z</time>
      </trkpt>
      <trkpt lat="43.24496" lon="5.65511">
        <ele>394.65625</ele>
        <time>2020-06-14T10:04:35Z</time>
      </trkpt>
      <trkpt lat="43.24494" lon="5.65519">
        <ele>393.2578125</ele>
        <time>2020-06-14T10:04:36Z</time>
      </trkpt>
      <trkpt lat="43.24495" lon="5.65528">
        <ele>392.14453125</ele>
        <time>2020-06-14T10:04:37Z</time>
      </trkpt>
      <trkpt lat="43.24495" lon="5.65537">
        <ele>391.06640625</ele>
        <time>2020-06-14T10:04:38Z</time>
      </trkpt>
      <trkpt lat="43.24495" lon="5.65545">
        <ele>389.95703125</ele>
        <time>2020-06-14T10:04:39Z</time>
      </trkpt>
      <trkpt lat="43.24494" lon="5.65553">
        <ele>388.7734375</ele>
        <time>2020-06-14T10:04:40Z</time>
      </trkpt>
      <trkpt lat="43.24495" lon="5.65571">
        <ele>386.44140625</ele>
        <time>2020-06-14T10:04:42Z</time>
      </trkpt>
      <trkpt lat="43.24497" lon="5.65588">
        <ele>385.34375</ele>
        <time>2020-06-14T10:04:44Z</time>
      </trkpt>
      <trkpt lat="43.24498" lon="5.65596">
        <ele>384.86328125</ele>
        <time>2020-06-14T10:04:45Z</time>
      </trkpt>
      <trkpt lat="43.24499" lon="5.65605">
        <ele>384.2890625</ele>
        <time>2020-06-14T10:04:46Z</time>
      </trkpt>
      <trkpt lat="43.24499" lon="5.65613">
        <ele>383.609375</ele>
        <time>2020-06-14T10:04:47Z</time>
      </trkpt>
      <trkpt lat="43.24499" lon="5.65622">
        <ele>382.8515625</ele>
        <time>2020-06-14T10:04:48Z</time>
      </trkpt>
      <trkpt lat="43.24497" lon="5.65631">
        <ele>382.265625</ele>
        <time>2020-06-14T10:04:49Z</time>
      </trkpt>
      <trkpt lat="43.24497" lon="5.6564">
        <ele>382.08203125</ele>
        <time>2020-06-14T10:04:50Z</time>
      </trkpt>
      <trkpt lat="43.24496" lon="5.6565">
        <ele>381.93359375</ele>
        <time>2020-06-14T10:04:51Z</time>
      </trkpt>
      <trkpt lat="43.24497" lon="5.65677">
        <ele>381.51171875</ele>
        <time>2020-06-14T10:04:54Z</time>
      </trkpt>
      <trkpt lat="43.24497" lon="5.65702">
        <ele>381.69921875</ele>
        <time>2020-06-14T10:04:57Z</time>
      </trkpt>
      <trkpt lat="43.24496" lon="5.65719">
        <ele>381.59765625</ele>
        <time>2020-06-14T10:04:59Z</time>
      </trkpt>
      <trkpt lat="43.24493" lon="5.65735">
        <ele>380.79296875</ele>
        <time>2020-06-14T10:05:01Z</time>
      </trkpt>
      <trkpt lat="43.24489" lon="5.65752">
        <ele>379.5546875</ele>
        <time>2020-06-14T10:05:03Z</time>
      </trkpt>
      <trkpt lat="43.24484" lon="5.65789">
        <ele>377.1953125</ele>
        <time>2020-06-14T10:05:07Z</time>
      </trkpt>
      <trkpt lat="43.24481" lon="5.65798">
        <ele>376.5</ele>
        <time>2020-06-14T10:05:08Z</time>
      </trkpt>
      <trkpt lat="43.24465" lon="5.65839">
        <ele>373.8671875</ele>
        <time>2020-06-14T10:05:14Z</time>
      </trkpt>
      <trkpt lat="43.24462" lon="5.65845">
        <ele>373.14453125</ele>
        <time>2020-06-14T10:05:15Z</time>
      </trkpt>
      <trkpt lat="43.24459" lon="5.6585">
        <ele>372.26171875</ele>
        <time>2020-06-14T10:05:16Z</time>
      </trkpt>
      <trkpt lat="43.24453" lon="5.6586">
        <ele>370.93359375</ele>
        <time>2020-06-14T10:05:18Z</time>
      </trkpt>
      <trkpt lat="43.24451" lon="5.65865">
        <ele>370.51953125</ele>
        <time>2020-06-14T10:05:19Z</time>
      </trkpt>
      <trkpt lat="43.2445" lon="5.65871">
        <ele>370.21484375</ele>
        <time>2020-06-14T10:05:20Z</time>
      </trkpt>
      <trkpt lat="43.24448" lon="5.65877">
        <ele>369.91796875</ele>
        <time>2020-06-14T10:05:21Z</time>
      </trkpt>
      <trkpt lat="43.24445" lon="5.65884">
        <ele>369.31640625</ele>
        <time>2020-06-14T10:05:22Z</time>
      </trkpt>
      <trkpt lat="43.24442" lon="5.65891">
        <ele>368.56640625</ele>
        <time>2020-06-14T10:05:23Z</time>
      </trkpt>
      <trkpt lat="43.24438" lon="5.65898">
        <ele>367.78515625</ele>
        <time>2020-06-14T10:05:24Z</time>
      </trkpt>
      <trkpt lat="43.24435" lon="5.65905">
        <ele>367.08984375</ele>
        <time>2020-06-14T10:05:25Z</time>
      </trkpt>
      <trkpt lat="43.24432" lon="5.65913">
        <ele>366.42578125</ele>
        <time>2020-06-14T10:05:26Z</time>
      </trkpt>
      <trkpt lat="43.24429" lon="5.6592">
        <ele>365.8515625</ele>
        <time>2020-06-14T10:05:27Z</time>
      </trkpt>
      <trkpt lat="43.24418" lon="5.65943">
        <ele>364.32421875</ele>
        <time>2020-06-14T10:05:30Z</time>
      </trkpt>
      <trkpt lat="43.24413" lon="5.65948">
        <ele>363.62890625</ele>
        <time>2020-06-14T10:05:31Z</time>
      </trkpt>
      <trkpt lat="43.24408" lon="5.65952">
        <ele>362.9375</ele>
        <time>2020-06-14T10:05:32Z</time>
      </trkpt>
      <trkpt lat="43.24403" lon="5.65956">
        <ele>362.2421875</ele>
        <time>2020-06-14T10:05:33Z</time>
      </trkpt>
      <trkpt lat="43.24398" lon="5.65961">
        <ele>361.5234375</ele>
        <time>2020-06-14T10:05:34Z</time>
      </trkpt>
      <trkpt lat="43.24393" lon="5.65966">
        <ele>360.80859375</ele>
        <time>2020-06-14T10:05:35Z</time>
      </trkpt>
      <trkpt lat="43.24388" lon="5.65972">
        <ele>360.2578125</ele>
        <time>2020-06-14T10:05:36Z</time>
      </trkpt>
      <trkpt lat="43.24383" lon="5.65977">
        <ele>359.6875</ele>
        <time>2020-06-14T10:05:37Z</time>
      </trkpt>
      <trkpt lat="43.24377" lon="5.65982">
        <ele>359.10546875</ele>
        <time>2020-06-14T10:05:38Z</time>
      </trkpt>
      <trkpt lat="43.24366" lon="5.65991">
        <ele>357.9296875</ele>
        <time>2020-06-14T10:05:40Z</time>
      </trkpt>
      <trkpt lat="43.24348" lon="5.66005">
        <ele>356.16796875</ele>
        <time>2020-06-14T10:05:43Z</time>
      </trkpt>
      <trkpt lat="43.24343" lon="5.66011">
        <ele>355.625</ele>
        <time>2020-06-14T10:05:44Z</time>
      </trkpt>
      <trkpt lat="43.24339" lon="5.66017">
        <ele>355.09765625</ele>
        <time>2020-06-14T10:05:45Z</time>
      </trkpt>
      <trkpt lat="43.24325" lon="5.66042">
        <ele>352.66015625</ele>
        <time>2020-06-14T10:05:49Z</time>
      </trkpt>
      <trkpt lat="43.24321" lon="5.66047">
        <ele>352.3046875</ele>
        <time>2020-06-14T10:05:50Z</time>
      </trkpt>
      <trkpt lat="43.24319" lon="5.66053">
        <ele>351.99609375</ele>
        <time>2020-06-14T10:05:51Z</time>
      </trkpt>
      <trkpt lat="43.24317" lon="5.66059">
        <ele>351.7265625</ele>
        <time>2020-06-14T10:05:52Z</time>
      </trkpt>
      <trkpt lat="43.24316" lon="5.66064">
        <ele>351.515625</ele>
        <time>2020-06-14T10:05:53Z</time>
      </trkpt>
      <trkpt lat="43.24317" lon="5.66068">
        <ele>351.38671875</ele>
        <time>2020-06-14T10:05:54Z</time>
      </trkpt>
      <trkpt lat="43.24318" lon="5.66071">
        <ele>351.328125</ele>
        <time>2020-06-14T10:05:55Z</time>
      </trkpt>
      <trkpt lat="43.24319" lon="5.66073">
        <ele>351.2109375</ele>
        <time>2020-06-14T10:05:56Z</time>
      </trkpt>
      <trkpt lat="43.2432" lon="5.66076">
        <ele>351.07421875</ele>
        <time>2020-06-14T10:05:57Z</time>
      </trkpt>
      <trkpt lat="43.24323" lon="5.66098">
        <ele>349.57421875</ele>
        <time>2020-06-14T10:06:07Z</time>
      </trkpt>
      <trkpt lat="43.24321" lon="5.66098">
        <ele>349.515625</ele>
        <time>2020-06-14T10:06:08Z</time>
      </trkpt>
      <trkpt lat="43.24319" lon="5.66097">
        <ele>349.546875</ele>
        <time>2020-06-14T10:06:09Z</time>
      </trkpt>
      <trkpt lat="43.24317" lon="5.66095">
        <ele>349.609375</ele>
        <time>2020-06-14T10:06:10Z</time>
      </trkpt>
      <trkpt lat="43.24314" lon="5.66092">
        <ele>349.69140625</ele>
        <time>2020-06-14T10:06:11Z</time>
      </trkpt>
      <trkpt lat="43.24303" lon="5.66078">
        <ele>350.42578125</ele>
        <time>2020-06-14T10:06:15Z</time>
      </trkpt>
      <trkpt lat="43.24274" lon="5.66048">
        <ele>351.18359375</ele>
        <time>2020-06-14T10:06:24Z</time>
      </trkpt>
      <trkpt lat="43.24243" lon="5.66024">
        <ele>352.9453125</ele>
        <time>2020-06-14T10:06:35Z</time>
      </trkpt>
      <trkpt lat="43.24235" lon="5.66016">
        <ele>353.0234375</ele>
        <time>2020-06-14T10:06:47Z</time>
      </trkpt>
      <trkpt lat="43.24233" lon="5.66018">
        <ele>353.02734375</ele>
        <time>2020-06-14T10:07:09Z</time>
      </trkpt>
      <trkpt lat="43.24231" lon="5.66017">
        <ele>353.01953125</ele>
        <time>2020-06-14T10:07:10Z</time>
      </trkpt>
      <trkpt lat="43.24229" lon="5.66015">
        <ele>353.08984375</ele>
        <time>2020-06-14T10:07:11Z</time>
      </trkpt>
      <trkpt lat="43.24227" lon="5.66013">
        <ele>353.30078125</ele>
        <time>2020-06-14T10:07:12Z</time>
      </trkpt>
      <trkpt lat="43.24224" lon="5.66012">
        <ele>353.44140625</ele>
        <time>2020-06-14T10:07:13Z</time>
      </trkpt>
      <trkpt lat="43.24221" lon="5.66011">
        <ele>353.53515625</ele>
        <time>2020-06-14T10:07:14Z</time>
      </trkpt>
      <trkpt lat="43.24174" lon="5.65999">
        <ele>354.5078125</ele>
        <time>2020-06-14T10:07:28Z</time>
      </trkpt>
      <trkpt lat="43.24127" lon="5.66008">
        <ele>356.98828125</ele>
        <time>2020-06-14T10:07:44Z</time>
      </trkpt>
      <trkpt lat="43.2409" lon="5.66018">
        <ele>360.30078125</ele>
        <time>2020-06-14T10:07:57Z</time>
      </trkpt>
      <trkpt lat="43.24052" lon="5.66034">
        <ele>364.53125</ele>
        <time>2020-06-14T10:08:09Z</time>
      </trkpt>
      <trkpt lat="43.24008" lon="5.66069">
        <ele>367</ele>
        <time>2020-06-14T10:08:24Z</time>
      </trkpt>
      <trkpt lat="43.23972" lon="5.66085">
        <ele>367.73046875</ele>
        <time>2020-06-14T10:08:36Z</time>
      </trkpt>
      <trkpt lat="43.23937" lon="5.66099">
        <ele>367.125</ele>
        <time>2020-06-14T10:08:48Z</time>
      </trkpt>
      <trkpt lat="43.23898" lon="5.66132">
        <ele>369.80078125</ele>
        <time>2020-06-14T10:09:04Z</time>
      </trkpt>
      <trkpt lat="43.23872" lon="5.66191">
        <ele>374.640625</ele>
        <time>2020-06-14T10:09:20Z</time>
      </trkpt>
      <trkpt lat="43.2384" lon="5.66214">
        <ele>375.80859375</ele>
        <time>2020-06-14T10:09:33Z</time>
      </trkpt>
      <trkpt lat="43.238" lon="5.66209">
        <ele>373.57421875</ele>
        <time>2020-06-14T10:09:48Z</time>
      </trkpt>
      <trkpt lat="43.23775" lon="5.66222">
        <ele>373.96484375</ele>
        <time>2020-06-14T10:09:59Z</time>
      </trkpt>
      <trkpt lat="43.23773" lon="5.66225">
        <ele>374.171875</ele>
        <time>2020-06-14T10:10:00Z</time>
      </trkpt>
      <trkpt lat="43.23754" lon="5.66267">
        <ele>377.08203125</ele>
        <time>2020-06-14T10:10:13Z</time>
      </trkpt>
      <trkpt lat="43.2374" lon="5.66312">
        <ele>379.1484375</ele>
        <time>2020-06-14T10:10:27Z</time>
      </trkpt>
      <trkpt lat="43.23755" lon="5.66363">
        <ele>381.5390625</ele>
        <time>2020-06-14T10:10:42Z</time>
      </trkpt>
      <trkpt lat="43.23789" lon="5.66402">
        <ele>384.67578125</ele>
        <time>2020-06-14T10:10:58Z</time>
      </trkpt>
      <trkpt lat="43.23799" lon="5.66458">
        <ele>385.578125</ele>
        <time>2020-06-14T10:11:14Z</time>
      </trkpt>
      <trkpt lat="43.23811" lon="5.66519">
        <ele>385.4375</ele>
        <time>2020-06-14T10:11:29Z</time>
      </trkpt>
      <trkpt lat="43.23805" lon="5.66579">
        <ele>388.3828125</ele>
        <time>2020-06-14T10:11:43Z</time>
      </trkpt>
      <trkpt lat="43.23781" lon="5.66622">
        <ele>389.57421875</ele>
        <time>2020-06-14T10:11:58Z</time>
      </trkpt>
      <trkpt lat="43.23777" lon="5.66629">
        <ele>389.78125</ele>
        <time>2020-06-14T10:12:01Z</time>
      </trkpt>
      <trkpt lat="43.23776" lon="5.6663">
        <ele>389.73046875</ele>
        <time>2020-06-14T10:12:02Z</time>
      </trkpt>
      <trkpt lat="43.23749" lon="5.66628">
        <ele>388.0546875</ele>
        <time>2020-06-14T10:12:15Z</time>
      </trkpt>
      <trkpt lat="43.23736" lon="5.66625">
        <ele>387.98046875</ele>
        <time>2020-06-14T10:12:27Z</time>
      </trkpt>
      <trkpt lat="43.23706" lon="5.66619">
        <ele>389.4921875</ele>
        <time>2020-06-14T10:12:44Z</time>
      </trkpt>
      <trkpt lat="43.2368" lon="5.66626">
        <ele>390.7109375</ele>
        <time>2020-06-14T10:12:59Z</time>
      </trkpt>
      <trkpt lat="43.23653" lon="5.6663">
        <ele>391.6640625</ele>
        <time>2020-06-14T10:13:14Z</time>
      </trkpt>
      <trkpt lat="43.23643" lon="5.66632">
        <ele>392.02734375</ele>
        <time>2020-06-14T10:13:29Z</time>
      </trkpt>
      <trkpt lat="43.23643" lon="5.66636">
        <ele>392.03125</ele>
        <time>2020-06-14T10:13:56Z</time>
      </trkpt>
      <trkpt lat="43.23642" lon="5.66638">
        <ele>392.05859375</ele>
        <time>2020-06-14T10:13:57Z</time>
      </trkpt>
      <trkpt lat="43.23641" lon="5.66639">
        <ele>392.09375</ele>
        <time>2020-06-14T10:13:58Z</time>
      </trkpt>
      <trkpt lat="43.23636" lon="5.66661">
        <ele>392.25</ele>
        <time>2020-06-14T10:14:05Z</time>
      </trkpt>
      <trkpt lat="43.23631" lon="5.66682">
        <ele>392.4609375</ele>
        <time>2020-06-14T10:14:13Z</time>
      </trkpt>
      <trkpt lat="43.23629" lon="5.66697">
        <ele>392.5234375</ele>
        <time>2020-06-14T10:14:17Z</time>
      </trkpt>
      <trkpt lat="43.23626" lon="5.66717">
        <ele>392.52734375</ele>
        <time>2020-06-14T10:14:24Z</time>
      </trkpt>
      <trkpt lat="43.23621" lon="5.66728">
        <ele>392.7109375</ele>
        <time>2020-06-14T10:14:28Z</time>
      </trkpt>
      <trkpt lat="43.23615" lon="5.66741">
        <ele>393.04296875</ele>
        <time>2020-06-14T10:14:32Z</time>
      </trkpt>
      <trkpt lat="43.23607" lon="5.66749">
        <ele>393.6015625</ele>
        <time>2020-06-14T10:14:36Z</time>
      </trkpt>
      <trkpt lat="43.23606" lon="5.66763">
        <ele>393.69921875</ele>
        <time>2020-06-14T10:14:40Z</time>
      </trkpt>
      <trkpt lat="43.23601" lon="5.66802">
        <ele>393.609375</ele>
        <time>2020-06-14T10:14:52Z</time>
      </trkpt>
      <trkpt lat="43.2359" lon="5.66838">
        <ele>394.21875</ele>
        <time>2020-06-14T10:15:05Z</time>
      </trkpt>
      <trkpt lat="43.23579" lon="5.66869">
        <ele>394.9765625</ele>
        <time>2020-06-14T10:15:18Z</time>
      </trkpt>
      <trkpt lat="43.23569" lon="5.66875">
        <ele>396.01171875</ele>
        <time>2020-06-14T10:15:23Z</time>
      </trkpt>
      <trkpt lat="43.23565" lon="5.66886">
        <ele>396.1875</ele>
        <time>2020-06-14T10:15:36Z</time>
      </trkpt>
      <trkpt lat="43.23565" lon="5.66885">
        <ele>396.171875</ele>
        <time>2020-06-14T10:15:54Z</time>
      </trkpt>
      <trkpt lat="43.23555" lon="5.66915">
        <ele>396.53125</ele>
        <time>2020-06-14T10:16:06Z</time>
      </trkpt>
      <trkpt lat="43.23553" lon="5.66918">
        <ele>396.71875</ele>
        <time>2020-06-14T10:16:07Z</time>
      </trkpt>
      <trkpt lat="43.2355" lon="5.66931">
        <ele>397.140625</ele>
        <time>2020-06-14T10:16:11Z</time>
      </trkpt>
      <trkpt lat="43.23526" lon="5.66962">
        <ele>398.8828125</ele>
        <time>2020-06-14T10:16:23Z</time>
      </trkpt>
      <trkpt lat="43.2352" lon="5.66972">
        <ele>398.15625</ele>
        <time>2020-06-14T10:16:26Z</time>
      </trkpt>
      <trkpt lat="43.23511" lon="5.66994">
        <ele>396.765625</ele>
        <time>2020-06-14T10:16:37Z</time>
      </trkpt>
      <trkpt lat="43.23509" lon="5.67003">
        <ele>396.44921875</ele>
        <time>2020-06-14T10:16:50Z</time>
      </trkpt>
      <trkpt lat="43.23507" lon="5.67009">
        <ele>396.2265625</ele>
        <time>2020-06-14T10:17:30Z</time>
      </trkpt>
      <trkpt lat="43.23504" lon="5.67006">
        <ele>396.3515625</ele>
        <time>2020-06-14T10:18:04Z</time>
      </trkpt>
    </trkseg>
  </trk>
</gpx>